GFSSGP_850_rhum_000.txt.gz
RH
30 26 26 26 33 45 44 34 28 28 26 21 22 22 23 26 27 39 39 41 37 33 27 40 62 67 73 80 82 83 79 60 54 49 90 75 93 82 82 76 90 93 70 50 40 38 53 75 78
33 27 28 30 40 40 38 28 26 23 21 22 23 22 24 39 45 42 46 35 40 28 28 39 60 71 81 81 86 76 54 49 52 58 89 92 86 89 89 91 90 69 60 46 37 36 29 24 40
35 32 35 46 55 44 35 26 24 19 20 23 22 26 30 42 50 47 43 30 36 35 31 37 59 74 79 70 75 67 54 51 52 46 81 85 85 88 79 86 88 74 66 38 31 33 40 38 36
38 38 35 45 48 40 32 30 21 20 17 22 23 34 34 38 45 43 29 30 34 40 41 45 52 63 83 71 74 66 50 50 43 45 73 82 87 83 80 82 78 76 78 39 35 34 32 40 48
44 44 55 51 49 39 32 23 20 21 21 22 23 28 38 38 37 40 29 35 37 40 48 46 56 52 59 67 68 60 54 54 49 61 71 74 83 84 81 78 83 83 57 36 38 40 40 39 40
51 46 65 65 51 40 35 26 20 20 21 23 24 29 37 42 38 42 48 46 48 45 52 60 47 50 51 61 65 52 56 72 59 48 58 60 68 76 75 81 82 70 38 38 39 40 41 40 40
61 68 67 59 54 50 36 27 19 18 25 25 24 31 36 30 27 38 46 59 56 53 54 56 40 40 46 53 49 57 89 92 62 55 43 34 44 67 71 76 63 44 41 40 40 43 44 46 48
57 65 68 62 58 53 34 27 19 19 22 22 22 32 33 29 25 33 44 54 59 56 56 51 38 38 39 38 45 54 72 63 54 49 33 25 35 51 53 41 36 37 40 46 54 59 69 72 75
67 80 83 66 57 45 32 31 26 22 22 25 24 25 26 25 31 39 41 51 60 60 55 48 42 40 42 39 45 53 52 46 49 40 34 20 25 36 34 34 38 47 56 60 66 68 73 79 86
77 92 76 56 49 46 38 32 27 28 30 29 28 27 28 27 28 30 31 31 38 44 43 47 43 45 46 48 53 66 62 50 44 35 41 34 36 42 45 51 60 70 73 75 82 86 88 88 87
76 84 61 51 43 40 40 37 32 29 35 29 27 27 30 25 28 32 26 25 25 29 44 47 44 53 55 54 60 65 61 66 57 62 54 58 52 57 65 75 85 86 83 86 84 87 88 87 85
83 66 61 57 51 50 50 40 36 32 28 26 27 27 29 31 30 29 28 24 24 30 35 47 52 54 63 70 69 76 73 74 63 65 63 61 61 71 80 84 91 96 93 88 87 83 80 79 79
79 66 62 61 57 52 48 49 43 37 32 29 29 28 26 28 30 31 28 27 22 27 32 44 58 66 65 72 78 80 76 81 82 83 83 81 76 82 92 100 100 95 87 87 85 83 76 62 43
60 62 63 57 53 51 52 48 43 37 31 31 31 30 28 28 29 30 29 28 22 24 30 48 62 77 85 88 92 90 86 97 99 92 93 91 92 96 97 95 93 89 84 82 74 51 41 38 38
63 69 61 58 59 54 47 56 53 37 32 30 31 30 28 31 31 29 25 27 26 24 30 52 67 76 83 92 99 95 100 97 98 99 97 98 98 98 97 94 91 85 61 38 39 37 38 34 29
75 73 86 60 58 58 52 70 47 37 33 34 32 30 30 31 32 26 24 28 27 34 38 61 66 70 81 90 98 99 98 99 99 98 97 97 97 99 97 88 49 30 35 36 33 29 25 24 24
86 94 80 70 57 59 61 61 46 36 36 35 31 31 32 33 32 30 29 32 36 45 52 62 67 73 83 92 99 99 100 98 99 99 94 95 96 87 54 31 34 31 27 25 24 24 26 27 26
72 84 72 69 65 64 65 64 53 38 36 36 32 32 32 32 30 30 31 34 40 48 57 63 68 79 83 91 98 98 99 100 100 96 91 82 41 30 34 32 30 33 33 28 27 27 28 24 22
82 84 78 69 55 66 65 64 54 48 42 40 35 33 31 33 34 37 36 39 43 46 44 49 63 81 82 95 98 98 99 99 94 83 35 30 35 35 34 35 41 41 40 33 30 28 25 22 19
83 84 85 67 55 62 72 75 61 47 44 39 38 34 30 38 39 39 39 44 48 50 56 56 74 84 87 88 98 99 95 86 59 30 34 37 36 37 41 46 50 48 42 33 28 25 21 19 15
81 82 76 80 64 53 53 61 67 55 45 37 37 33 30 37 36 40 45 54 58 62 71 74 85 84 94 100 100 97 80 44 31 36 37 38 39 45 50 52 51 46 36 30 24 21 18 17 16
86 65 67 68 81 91 71 90 66 54 54 45 40 36 35 40 41 48 56 64 65 74 86 90 93 98 96 93 88 72 51 31 36 38 38 38 46 51 53 52 50 41 32 26 21 16 16 16 14
74 55 60 66 74 84 73 89 74 52 57 48 43 37 40 38 40 48 58 64 71 77 85 88 87 89 83 65 60 42 30 34 38 38 38 44 50 52 52 50 47 38 30 24 20 19 17 12 10
60 66 65 69 80 91 69 82 76 69 50 46 43 42 47 45 47 54 65 73 77 83 84 88 89 78 68 54 40 32 32 35 36 38 43 48 51 52 50 48 44 35 28 25 22 17 10 9 14
62 74 94 97 96 82 60 82 63 56 50 36 41 48 52 48 49 59 64 68 78 82 81 74 71 59 51 45 37 34 36 38 39 42 47 51 52 50 49 48 42 33 28 22 15 9 9 13 17
74 70 86 91 97 78 73 79 73 53 41 39 39 38 52 52 54 61 60 59 54 59 58 54 54 52 53 48 36 36 40 41 43 47 51 51 51 50 50 47 39 32 25 14 8 9 13 18 19
78 84 59 78 74 90 87 82 70 60 48 45 48 55 57 58 56 56 57 56 53 54 53 53 53 49 47 40 37 38 41 43 47 50 52 52 52 52 52 48 39 28 14 8 9 14 19 18 16
71 60 82 81 100 92 82 84 66 59 43 53 54 54 56 62 66 58 56 55 52 51 50 50 44 38 39 39 38 40 43 46 51 53 54 53 54 55 53 45 33 17 9 9 17 21 18 17 16
86 82 70 61 77 98 92 78 55 47 43 53 52 51 59 66 62 57 57 53 47 45 43 42 41 39 39 40 41 43 46 50 54 55 55 56 58 56 50 37 20 10 10 20 22 19 19 21 21
65 67 63 68 66 73 98 74 40 44 38 45 49 51 59 62 59 56 56 53 50 47 47 45 45 43 42 42 44 46 50 54 56 56 57 61 60 53 40 21 11 13 23 23 20 22 23 23 26

GFSSGP_850_rhum_003.txt.gz
RH
32 30 25 29 36 49 47 38 27 28 25 22 22 26 25 28 27 38 37 38 29 32 28 50 70 89 84 76 83 79 86 75 56 45 72 79 91 80 80 74 81 72 68 55 49 48 53 64 75
34 31 27 31 49 43 42 29 27 23 20 23 24 24 26 41 43 36 35 29 29 25 24 34 54 63 66 84 84 87 75 55 54 61 97 96 84 90 90 93 83 69 64 49 46 42 37 28 39
40 34 35 49 58 56 41 27 26 22 17 23 24 30 34 45 44 32 37 26 27 27 26 33 45 58 78 76 76 71 60 51 52 55 87 90 86 87 81 86 79 83 74 40 39 37 42 41 40
42 40 38 49 53 46 34 34 26 23 17 23 24 30 37 37 42 45 32 29 29 32 29 33 48 61 90 66 63 66 52 49 45 42 77 82 82 82 82 83 82 85 66 40 38 39 37 39 40
45 47 59 57 55 43 36 30 25 23 21 21 24 29 38 37 35 38 30 29 32 36 36 36 43 55 69 60 64 64 50 39 40 50 67 80 83 81 81 81 78 84 56 39 39 40 40 40 39
54 50 71 67 53 43 40 31 29 24 21 23 25 32 36 38 34 32 34 36 42 39 41 42 39 48 62 61 63 60 49 47 43 46 58 61 76 81 80 81 86 80 41 39 40 41 43 44 44
66 69 71 63 57 50 42 30 20 22 25 26 25 31 34 32 26 40 41 47 52 53 50 47 45 44 52 54 58 55 53 67 48 43 40 40 53 68 70 72 69 45 38 40 44 55 62 69 73
62 71 72 69 60 54 37 30 26 19 23 24 23 32 33 27 28 47 55 53 55 59 58 54 48 42 45 46 50 52 80 78 61 55 39 33 38 54 61 54 38 38 44 56 70 72 79 83 88
69 83 87 67 62 47 36 33 29 27 24 25 24 22 25 27 27 43 53 58 60 62 63 61 51 39 48 44 48 59 66 65 63 58 37 28 32 37 34 33 37 51 68 76 85 87 87 88 89
79 93 74 60 51 49 38 36 34 28 29 30 28 28 27 27 26 30 39 44 50 54 54 60 54 42 44 47 48 58 60 63 59 52 44 34 36 37 41 47 54 74 78 87 90 88 88 88 85
80 84 64 56 49 43 45 39 36 35 38 28 27 27 28 28 29 30 30 30 30 33 49 53 52 52 50 53 54 68 77 76 64 54 57 56 49 51 60 62 72 81 89 100 94 88 85 83 80
84 71 64 59 52 55 54 46 38 34 32 29 27 27 27 29 26 27 29 29 31 27 37 48 59 59 61 67 70 80 78 67 65 76 78 74 67 74 74 81 88 94 93 89 88 84 84 82 78
80 73 64 60 60 60 58 58 55 45 42 35 34 29 28 28 29 30 31 31 31 31 33 42 59 65 69 76 82 84 78 78 81 84 85 79 84 89 86 96 97 95 92 84 84 83 76 50 34
67 66 64 63 60 58 60 57 51 42 36 35 35 31 29 28 27 28 29 31 31 29 25 35 54 69 79 85 93 91 89 88 93 91 92 98 100 99 98 97 91 89 88 81 68 44 36 36 37
68 77 67 62 58 64 52 62 59 46 42 40 36 32 30 29 28 28 31 30 29 28 25 30 49 70 88 92 98 100 99 98 97 98 98 98 99 98 96 92 89 86 66 35 34 36 35 28 23
74 76 87 60 60 58 56 70 49 42 41 40 37 31 30 28 28 28 30 30 28 28 27 30 53 75 93 100 98 98 98 98 96 96 96 97 97 98 97 90 65 31 34 31 26 23 20 20 20
85 86 84 73 57 61 67 65 52 42 40 42 37 34 31 30 30 29 30 30 26 31 30 36 57 77 94 100 98 99 98 95 93 92 95 94 92 92 83 34 32 31 30 31 30 26 26 25 22
83 94 79 81 59 65 64 59 58 48 44 44 39 34 32 32 30 30 30 31 37 40 44 56 72 80 85 91 98 99 99 96 97 96 96 92 86 35 32 33 34 37 41 38 32 28 27 24 22
86 87 81 68 60 70 64 63 54 54 52 52 47 42 36 32 31 32 34 34 39 47 57 69 76 76 77 95 96 96 92 97 98 96 91 71 31 34 36 38 45 47 43 32 30 27 25 22 22
83 85 82 66 57 58 63 68 62 56 52 52 49 44 40 35 33 34 36 34 36 41 47 60 72 74 95 94 95 97 96 97 96 83 42 33 36 37 44 49 49 47 39 31 27 24 21 20 18
87 91 73 70 65 58 62 61 50 44 47 47 47 42 39 37 33 32 37 37 40 43 44 49 60 86 99 96 95 93 97 94 69 35 34 37 38 46 51 52 51 47 36 28 25 21 19 18 16
92 72 72 71 78 84 67 74 62 57 53 50 45 43 40 36 35 33 37 40 45 46 51 59 73 99 100 100 97 96 91 80 42 35 37 37 44 50 52 52 50 46 35 28 26 23 21 16 12
74 62 67 76 86 88 77 87 70 49 50 52 56 45 38 36 33 31 35 36 46 58 61 73 97 100 99 100 100 99 91 54 36 37 38 40 49 52 52 50 50 46 36 30 27 23 17 11 13
58 71 72 71 82 95 68 79 58 53 62 51 49 42 38 36 35 36 40 50 56 68 77 91 99 100 99 95 98 88 62 36 36 38 38 45 50 52 51 49 50 45 36 30 26 16 10 12 16
63 75 96 97 95 82 61 70 57 52 54 50 45 39 38 42 41 41 46 58 63 70 86 93 96 94 93 79 75 61 36 34 37 37 42 47 51 52 49 50 50 44 36 26 16 10 10 14 18
79 73 86 84 96 79 49 64 58 52 37 33 36 39 38 48 46 42 50 56 66 76 86 89 90 91 76 68 52 38 36 39 40 41 44 50 51 50 50 52 50 42 29 17 10 9 14 18 17
96 97 66 67 64 97 82 76 70 66 63 57 50 44 44 46 51 50 59 66 72 78 83 81 85 81 66 51 46 40 40 43 42 43 48 50 51 50 53 54 47 34 19 11 10 15 19 16 17
69 63 95 96 95 94 76 85 72 62 49 41 53 48 51 53 59 62 65 70 78 80 80 76 70 60 52 54 50 41 44 45 44 48 51 51 51 54 56 53 43 26 13 11 17 21 18 19 20
82 88 76 66 80 93 91 60 65 57 50 52 55 55 58 62 72 70 65 65 66 68 66 61 60 58 59 58 48 45 46 45 48 51 53 52 55 57 56 49 32 18 13 19 22 20 22 23 22
62 69 73 91 84 62 92 74 59 58 46 51 54 58 64 73 76 67 62 61 58 58 57 56 55 53 50 48 47 46 45 48 51 54 54 55 59 58 52 37 22 16 22 25 23 25 27 25 25

GFSSGP_850_rhum_006.txt.gz
RH
34 32 28 26 39 49 49 40 29 28 26 23 23 26 27 28 33 39 35 30 25 23 34 82 88 90 80 72 76 75 80 83 58 51 90 92 85 77 73 68 74 70 66 54 44 45 52 55 72
34 32 28 30 48 50 46 34 28 26 21 21 26 28 28 36 41 38 35 28 24 23 30 45 89 78 75 68 77 77 82 62 55 59 77 88 89 86 89 90 80 77 53 40 37 40 36 28 35
38 37 32 50 61 58 46 29 29 27 21 22 25 31 32 40 42 35 31 26 24 23 26 36 79 69 64 72 75 73 59 51 53 71 95 88 84 84 79 71 82 80 55 39 35 32 33 34 34
44 40 39 51 56 48 38 30 31 29 22 25 25 28 35 38 42 40 38 28 26 24 27 28 38 51 73 68 62 62 52 44 47 47 85 89 83 82 81 82 83 84 48 38 37 37 37 37 39
48 46 60 60 58 45 40 33 30 30 27 22 26 27 34 32 37 39 33 28 31 31 34 30 38 52 69 64 57 54 45 35 36 40 75 87 87 84 87 80 78 85 66 45 45 45 45 43 43
54 52 73 68 54 44 40 32 32 29 26 22 26 30 31 34 34 39 36 31 39 43 41 38 38 50 62 65 62 59 49 40 38 51 64 81 84 83 83 83 82 89 57 48 50 51 52 56 58
68 72 72 62 58 50 42 32 27 26 23 26 26 30 29 33 28 32 40 41 48 52 52 46 41 43 54 65 69 65 55 56 44 45 53 58 69 78 76 73 74 63 46 48 59 69 76 80 84
65 71 75 71 60 58 36 32 28 22 21 22 26 31 29 27 29 31 42 49 56 60 59 58 57 49 43 53 69 68 62 79 62 54 48 38 44 60 66 68 50 42 48 64 72 76 82 82 82
69 85 91 74 66 53 37 37 31 30 28 27 26 24 25 26 27 28 38 46 53 60 64 64 64 60 48 50 60 68 70 83 79 72 48 34 35 48 50 45 42 54 66 73 82 86 86 86 83
81 96 78 64 56 48 43 42 39 33 33 32 29 27 26 26 26 26 28 35 43 48 57 63 64 64 57 57 60 65 72 71 66 67 48 31 32 41 47 48 52 69 80 89 88 84 86 84 83
79 84 67 61 54 50 50 45 42 38 46 35 31 28 28 27 27 28 30 33 36 40 47 54 59 65 64 59 61 63 72 75 74 70 50 46 40 45 58 64 77 86 88 99 93 85 82 83 83
88 78 73 63 58 60 60 55 49 42 40 32 36 36 29 30 26 26 28 28 31 36 41 52 61 66 67 64 66 65 76 89 81 73 66 69 66 70 81 83 94 91 97 91 85 85 85 84 73
83 79 70 66 62 61 60 66 67 60 55 48 42 39 35 30 29 29 28 30 32 34 33 37 51 66 70 70 78 80 91 88 86 88 86 84 83 86 88 98 98 94 89 90 87 83 59 42 36
71 72 71 63 64 64 66 63 59 52 51 48 41 35 36 34 29 29 29 28 30 31 31 31 34 57 73 77 86 90 95 94 94 91 93 98 96 98 100 98 94 86 86 88 65 35 33 34 33
73 81 73 67 61 66 58 69 66 52 52 50 47 43 37 35 31 29 28 29 29 27 30 30 29 45 69 84 94 99 100 99 98 98 96 97 96 97 95 90 87 90 66 33 33 30 27 23 20
75 77 92 63 65 62 60 74 51 42 41 46 45 44 42 38 32 30 30 30 29 30 29 29 28 38 68 90 100 100 97 96 94 91 95 93 96 96 94 93 86 34 32 31 29 26 23 20 19
82 92 88 70 57 62 70 65 54 43 41 46 41 41 40 38 34 30 30 30 30 30 29 29 31 46 75 92 99 96 96 99 93 92 93 93 95 92 90 74 32 33 35 36 32 25 23 22 20
86 90 77 72 60 66 77 75 61 49 49 52 48 47 44 40 35 33 32 31 32 29 30 28 36 60 80 93 98 96 95 99 96 94 100 91 92 86 36 33 36 41 40 33 25 23 24 23 22
86 92 92 76 61 69 74 70 60 53 52 57 52 51 45 44 39 35 34 32 33 32 31 33 42 71 80 85 96 98 98 100 100 100 100 92 83 32 36 39 45 45 39 29 22 23 24 24 24
85 89 86 76 61 65 65 62 53 52 55 58 56 52 49 43 40 38 38 34 34 38 35 39 54 78 78 88 98 95 91 93 94 98 88 66 33 37 41 48 49 46 41 33 25 24 26 26 22
90 92 86 83 63 56 62 60 47 39 39 40 43 42 43 42 40 36 37 34 36 44 37 45 64 90 87 99 99 98 92 90 95 87 70 35 38 41 50 51 51 48 45 39 30 27 27 24 16
92 77 78 79 84 94 62 76 49 45 51 41 39 40 46 38 38 39 37 35 35 38 45 49 62 87 99 89 98 91 83 86 87 68 38 37 40 49 51 52 51 51 49 43 35 29 24 16 13
71 68 78 80 90 92 82 89 66 48 48 46 53 48 42 38 34 36 35 35 35 43 45 50 56 76 92 88 94 94 90 88 81 43 37 39 45 51 52 52 52 53 51 46 37 26 18 12 13
61 75 75 77 79 92 73 86 61 49 41 54 47 40 35 37 37 36 35 36 41 47 50 59 67 90 90 97 96 94 90 87 64 38 39 39 48 51 52 51 52 54 52 46 35 22 14 12 14
72 89 97 98 97 88 64 76 54 45 41 45 47 41 32 32 40 40 37 37 42 46 56 73 84 94 98 99 100 98 97 89 49 37 39 42 48 51 51 50 53 54 51 42 28 17 12 13 17
80 78 91 88 92 86 58 76 64 48 37 33 31 38 39 38 37 40 39 39 40 50 67 80 100 99 100 100 99 96 89 60 37 40 40 44 49 50 50 52 54 54 48 35 22 14 14 18 18
98 97 69 74 62 90 80 71 55 57 58 53 48 38 35 35 38 41 44 45 47 55 73 85 100 100 100 95 84 77 55 37 40 42 42 44 48 49 50 54 55 52 41 29 18 15 19 19 20
88 77 98 97 96 94 79 68 69 51 58 54 49 36 48 39 41 41 48 51 61 69 83 97 98 98 94 76 68 50 39 42 45 43 42 47 48 50 54 56 55 46 32 20 18 22 22 22 25
92 96 98 78 88 91 86 59 57 52 58 56 52 48 46 43 46 47 51 56 65 79 92 95 98 97 81 70 51 45 43 46 47 43 46 49 50 53 57 58 51 39 25 21 24 25 26 28 29
64 72 75 86 84 82 87 56 46 71 64 55 58 55 53 53 59 66 72 72 78 84 90 92 93 84 75 57 53 50 47 47 45 46 49 50 53 57 60 56 45 30 24 26 28 29 31 33 33

GFSSGP_850_rhum_009.txt.gz
RH
34 34 31 26 36 39 42 35 32 28 27 25 22 26 26 28 32 35 36 37 27 24 33 79 87 93 82 77 69 69 70 68 48 88 95 73 68 73 72 66 63 62 53 44 38 41 54 60 86
35 33 30 28 39 42 38 32 30 27 25 22 26 29 29 31 33 40 40 32 28 25 30 61 96 92 73 70 72 71 73 52 46 57 86 78 88 86 84 85 75 66 43 34 36 36 34 28 38
38 36 32 42 48 42 39 31 28 30 25 22 27 31 28 36 37 41 33 35 26 25 38 62 86 70 70 64 72 73 59 48 49 80 96 86 83 80 66 77 79 75 47 42 40 37 38 39 38
42 40 38 44 45 44 37 27 31 30 26 24 25 28 34 36 44 40 40 32 32 22 35 52 97 72 57 62 65 67 52 43 48 64 92 86 84 82 80 80 83 81 57 46 46 46 43 42 44
46 45 51 56 48 42 38 36 32 30 31 26 24 27 33 34 37 41 40 33 28 24 33 49 92 68 63 61 60 62 48 38 41 55 85 85 85 88 86 82 79 81 58 48 48 48 47 46 47
54 50 60 58 47 44 38 33 33 32 29 26 26 29 28 32 35 36 34 32 32 30 32 42 62 61 76 66 61 57 47 35 38 51 79 86 84 84 81 83 79 81 57 48 49 57 66 70 74
64 61 63 59 51 48 40 32 34 31 27 24 25 28 26 31 35 33 37 37 39 40 38 43 51 70 90 69 62 58 48 43 39 50 61 78 82 82 82 73 75 68 48 50 69 72 78 77 82
65 60 72 64 51 48 37 34 30 28 25 23 28 28 26 27 29 30 39 44 49 48 51 55 57 71 88 67 68 65 55 56 47 44 45 48 60 70 72 70 66 48 48 67 74 79 84 81 86
69 78 78 63 60 47 40 38 34 34 31 29 28 26 28 27 27 30 31 42 52 58 60 67 70 80 77 66 68 69 66 76 70 59 45 38 39 53 63 61 45 48 66 76 78 82 84 84 81
76 87 76 62 54 49 43 42 41 39 37 36 34 29 30 29 27 26 28 31 40 49 58 68 71 72 75 67 73 67 66 69 68 66 54 35 32 47 46 43 48 67 77 80 86 88 82 78 80
79 75 67 62 53 53 56 52 47 42 45 40 37 32 31 29 31 31 30 31 32 43 54 60 65 74 77 68 68 71 66 67 65 66 58 43 41 47 50 58 66 82 84 98 93 82 81 80 76
84 79 77 64 58 59 62 58 61 51 47 43 36 42 42 38 30 32 33 32 32 32 39 48 58 69 78 75 66 72 68 74 80 76 50 60 56 59 69 83 93 93 94 96 89 86 85 66 41
84 79 73 69 67 67 64 68 63 67 56 52 50 48 45 39 34 30 32 35 34 33 33 35 41 53 71 77 71 73 70 81 90 75 70 75 79 82 89 98 98 93 90 88 88 81 52 34 34
72 76 73 68 65 65 66 62 65 51 48 47 50 48 44 39 34 34 30 29 30 31 31 32 34 38 58 75 76 76 78 92 84 82 84 92 98 98 100 96 93 88 85 86 60 32 32 28 25
73 81 70 69 66 63 63 72 74 57 55 50 45 41 38 40 35 34 31 30 30 29 29 29 30 32 40 68 82 87 93 95 93 93 97 97 97 95 94 93 87 88 77 33 31 30 28 25 22
76 75 84 62 65 62 56 62 54 48 52 55 52 44 42 36 32 32 33 31 30 29 29 31 30 30 34 67 84 90 95 93 94 93 92 91 92 95 91 89 90 61 31 33 33 31 26 20 18
82 84 86 70 60 58 67 69 52 48 52 55 50 47 44 44 35 34 36 33 31 31 30 30 31 30 33 72 80 94 96 91 93 89 92 90 90 90 90 90 53 33 35 36 30 21 18 18 18
83 95 81 74 59 63 68 70 58 57 56 52 53 47 49 48 43 39 37 36 35 32 31 32 32 33 37 69 91 98 95 93 99 94 94 89 88 90 88 43 35 39 40 32 24 19 20 20 19
84 88 88 76 61 69 65 61 52 50 54 51 51 48 48 43 42 41 39 39 36 34 32 32 33 37 42 68 91 94 94 100 100 99 99 95 91 88 34 37 43 45 40 36 30 24 21 19 17
82 86 82 62 63 65 64 64 51 46 46 46 45 51 50 45 41 38 36 37 38 36 34 35 39 43 50 64 83 88 90 98 100 100 100 99 82 41 38 45 49 48 46 44 40 34 26 21 18
71 77 69 66 65 60 61 55 36 28 29 37 43 42 42 43 35 36 35 37 36 36 35 41 44 53 67 64 87 87 97 100 100 100 99 77 50 38 42 50 50 50 50 50 47 42 32 23 17
83 72 75 79 84 82 60 69 39 38 36 34 37 38 41 42 36 32 34 34 39 35 39 49 57 63 65 80 93 83 89 90 93 86 81 73 38 42 49 51 51 52 53 53 51 44 35 23 17
74 67 73 79 89 93 74 86 54 47 46 41 37 36 37 38 36 30 27 29 37 37 40 49 64 69 88 98 89 91 84 88 79 81 82 39 40 46 51 51 51 53 54 54 52 44 31 21 15
63 79 77 78 86 95 68 76 56 42 38 37 36 34 36 35 39 36 37 32 36 41 46 51 56 77 100 82 85 93 88 88 83 81 45 40 42 49 51 51 51 54 55 55 52 42 28 18 15
72 99 92 96 96 83 61 78 53 39 35 34 33 36 34 34 37 38 42 41 36 40 44 51 55 68 99 86 83 96 92 88 84 73 40 39 42 49 51 51 51 54 56 55 50 38 24 17 18
83 83 88 89 82 73 67 79 58 45 37 35 35 35 33 33 27 38 38 42 37 39 44 49 56 69 98 91 98 88 92 88 82 54 39 42 45 49 50 50 52 55 56 54 46 31 21 20 20
97 95 66 94 86 95 72 62 49 42 42 52 48 44 45 40 32 30 34 45 40 41 45 51 65 79 87 97 94 94 93 89 68 40 42 42 44 48 50 50 54 57 55 50 39 26 22 22 24
84 79 94 97 95 91 68 67 62 42 42 56 56 52 50 50 41 27 33 43 48 46 52 68 78 84 90 98 99 98 95 76 44 40 42 42 44 48 49 52 56 56 53 45 32 25 25 26 29
90 99 100 98 96 86 71 46 43 37 52 60 58 53 54 54 53 42 32 46 58 60 67 79 95 96 95 98 100 94 71 44 41 44 43 42 46 48 51 55 57 55 48 36 28 27 29 32 34
63 72 73 90 86 88 81 61 33 48 69 57 57 58 50 51 59 56 47 47 66 79 86 94 99 97 97 98 84 67 44 44 47 46 43 45 48 50 54 58 57 51 40 30 28 31 33 34 35

GFSSGP_850_rhum_012.txt.gz
RH
34 33 32 30 27 25 26 22 18 21 22 21 20 21 21 22 25 28 37 40 34 33 70 70 89 79 78 70 65 64 66 57 44 93 80 80 81 82 77 69 55 55 50 40 40 47 61 80 89
36 33 33 28 28 29 22 20 20 21 21 20 22 24 22 22 32 45 44 38 34 39 82 93 97 94 86 70 69 69 69 51 45 92 79 74 80 82 68 60 64 51 40 37 38 37 32 37 49
38 35 31 27 28 28 24 21 17 22 22 20 22 28 25 26 47 47 38 31 34 60 70 87 98 98 86 71 71 74 62 45 45 69 86 80 78 68 74 83 78 67 45 43 42 42 44 43 41
47 38 33 31 28 24 24 20 22 22 22 22 21 21 29 30 47 50 39 37 33 71 80 59 49 89 90 70 71 69 54 44 44 78 86 79 82 89 85 81 75 70 48 46 46 46 44 45 46
48 36 30 34 28 22 22 22 24 22 22 21 21 21 23 35 34 39 44 36 37 62 87 58 61 98 92 78 71 64 49 44 43 82 85 83 82 85 84 82 80 76 55 49 48 48 52 53 53
38 34 33 32 26 24 25 23 24 22 21 21 22 19 22 30 37 35 38 35 43 40 91 76 78 98 91 86 66 56 46 34 37 73 84 85 83 80 85 85 82 78 56 47 52 59 70 70 72
35 33 29 27 25 25 26 25 24 21 20 20 22 19 22 31 42 36 37 35 38 64 80 76 78 94 92 88 73 58 48 35 39 58 80 81 81 82 86 85 76 73 49 48 63 71 80 79 79
47 34 32 33 29 29 24 28 25 24 21 23 26 20 20 36 34 33 40 40 46 52 70 90 90 96 91 89 83 68 53 41 36 43 53 66 75 76 76 73 69 58 46 61 70 77 84 84 84
64 42 37 34 34 27 30 29 29 28 26 27 26 27 30 28 32 41 46 50 60 59 56 74 93 96 96 98 90 77 62 62 46 40 38 39 48 59 66 63 57 45 55 67 75 80 84 82 78
48 44 34 27 29 31 28 31 29 31 28 27 28 29 32 31 37 60 64 66 74 69 56 52 82 99 98 95 93 85 73 76 72 57 44 39 35 44 57 51 44 55 71 77 82 86 82 77 78
49 48 32 44 42 39 35 38 37 33 31 29 28 28 34 36 40 50 52 52 66 73 79 53 58 74 93 97 99 98 96 96 95 65 51 34 29 42 48 61 68 88 82 85 89 87 81 80 68
55 46 45 44 50 53 47 45 44 37 30 28 35 36 40 39 37 35 46 52 61 73 76 53 53 60 71 94 94 99 97 95 96 84 62 43 39 42 54 95 91 93 87 90 88 85 82 68 33
58 44 51 52 57 54 50 46 45 41 40 43 44 44 44 41 38 35 36 46 57 58 46 42 46 44 62 72 96 98 99 94 98 87 70 67 66 80 93 84 86 89 88 87 84 82 45 31 30
53 58 56 55 51 49 50 44 43 42 42 40 41 40 41 39 38 35 37 37 44 49 42 40 38 38 46 64 79 93 99 98 98 97 69 75 96 96 87 92 93 90 86 85 66 31 30 28 25
61 61 46 43 44 46 51 50 45 38 37 36 37 35 34 35 37 38 36 36 34 37 46 41 37 35 38 60 74 95 96 94 98 98 93 96 90 90 92 92 90 87 87 44 31 32 30 25 19
57 56 56 40 47 43 46 44 30 43 40 40 37 35 32 33 32 34 35 36 38 36 33 31 32 33 34 48 87 98 95 96 96 97 89 89 89 90 90 87 86 87 39 33 33 28 20 16 16
52 48 56 48 42 44 48 46 36 36 43 40 35 36 37 37 34 32 34 35 37 37 36 31 32 32 43 93 98 90 96 92 90 93 87 86 87 90 89 87 89 43 35 36 28 21 16 14 15
47 60 50 47 41 49 49 46 37 40 40 38 37 38 39 42 42 36 34 34 36 35 33 31 31 33 40 93 99 93 94 93 92 91 86 90 90 88 89 87 52 36 41 35 32 28 24 19 15
55 56 54 47 48 52 47 43 37 35 35 35 36 36 35 37 41 44 44 45 41 37 34 32 32 33 44 73 71 79 90 91 94 95 94 99 90 86 88 54 36 44 43 42 41 38 34 26 18
59 61 56 45 42 49 45 45 36 34 33 32 32 31 32 34 35 38 43 42 44 38 37 35 33 34 45 46 67 60 75 95 95 96 100 100 94 86 75 36 44 48 47 48 48 46 40 32 22
61 62 56 55 47 46 50 48 28 21 21 23 26 27 27 27 31 34 35 38 44 42 37 37 34 38 50 60 82 82 83 90 100 100 100 99 91 71 37 42 49 49 50 51 52 51 46 34 24
64 47 52 60 64 66 45 52 29 24 24 23 23 26 28 29 30 30 34 33 38 38 38 38 38 43 58 71 70 70 69 89 98 100 99 98 72 43 40 48 49 50 52 53 54 53 48 37 23
61 53 54 56 62 64 54 86 35 29 30 27 22 22 22 24 27 32 33 34 38 32 34 38 44 55 56 61 74 88 85 92 94 99 100 84 54 40 44 50 50 51 53 54 55 54 47 37 24
53 59 61 58 66 89 51 50 42 28 24 23 23 22 22 26 32 33 40 38 39 46 34 43 51 63 65 75 94 96 85 79 93 99 91 64 52 42 48 50 50 51 53 55 56 54 48 34 23
60 74 72 80 90 64 30 41 39 26 25 24 20 20 25 27 30 33 38 46 49 49 37 46 56 60 71 97 99 96 89 84 89 80 76 74 45 43 48 50 50 51 54 56 56 53 43 29 22
67 63 63 62 43 41 31 54 33 21 24 24 24 30 37 39 39 31 37 47 56 55 41 49 58 62 85 98 100 100 97 95 86 79 78 59 41 44 49 50 49 52 54 56 55 50 38 27 23
71 90 55 72 56 79 48 38 29 25 28 24 26 38 40 42 46 45 39 48 61 62 45 53 64 69 96 97 99 99 100 92 85 82 67 42 42 46 48 48 49 52 55 55 54 45 33 26 26
65 55 86 90 79 66 38 42 38 22 24 26 36 36 36 39 42 49 45 54 65 74 63 82 86 79 94 96 92 97 93 91 82 77 54 41 44 45 46 48 50 54 55 55 50 38 30 28 31
80 89 94 73 72 70 64 36 19 23 23 21 32 35 38 47 50 56 52 58 74 85 88 89 88 80 85 98 99 99 93 84 79 60 42 43 42 43 46 48 52 54 55 52 43 33 29 29 30
44 54 61 92 78 88 74 56 22 23 28 44 36 33 44 60 59 66 65 76 87 92 92 92 85 82 87 100 100 100 100 92 64 44 42 41 41 44 47 51 54 56 54 46 37 30 28 26 30

GFSSGP_850_rhum_015.txt.gz
RH
36 42 35 31 27 24 23 19 14 16 15 15 18 17 18 20 21 30 52 65 62 79 83 44 58 67 68 68 67 66 66 46 76 91 82 72 88 86 82 72 52 44 36 32 35 46 72 82 86
42 38 33 26 30 26 22 15 18 12 16 18 17 18 18 20 24 44 56 45 62 76 93 78 63 75 75 70 69 66 63 44 69 78 59 72 72 64 62 53 55 44 38 33 34 34 34 43 71
36 38 28 27 27 27 21 17 16 15 18 18 18 20 19 22 35 39 56 38 62 74 88 89 64 86 79 72 74 71 52 42 50 76 72 64 69 71 70 76 68 55 42 40 39 39 39 35 35
42 34 27 30 28 20 18 15 15 17 16 19 19 18 23 31 38 44 59 58 60 73 80 88 94 99 80 71 74 73 46 40 57 76 78 76 77 76 80 81 74 62 46 45 45 44 44 42 43
42 28 30 28 25 18 15 16 18 18 16 17 19 18 20 35 46 53 58 60 60 70 87 82 94 92 90 70 70 64 44 39 54 80 81 83 84 87 84 78 79 77 52 48 48 50 54 56 61
32 26 30 27 22 18 15 17 17 17 16 16 18 18 19 36 43 55 62 59 59 70 83 94 92 97 99 87 77 62 42 33 50 78 81 81 79 84 81 83 82 76 58 48 60 64 70 72 82
35 29 28 24 21 17 15 19 19 18 16 16 16 18 20 27 53 59 62 60 64 70 79 97 93 96 95 90 87 67 49 34 42 71 78 78 79 79 87 90 79 66 49 48 67 77 80 78 79
37 29 30 26 22 20 15 18 20 18 18 19 20 18 18 37 55 59 60 63 66 70 76 81 94 97 80 85 85 69 54 34 38 56 64 70 76 79 83 77 67 53 41 52 66 77 77 76 75
48 41 36 30 22 20 17 19 22 20 19 19 19 19 29 38 52 58 61 66 67 72 76 76 79 88 99 87 81 72 58 45 35 37 40 48 74 71 71 62 55 41 44 61 68 72 79 76 64
44 40 31 19 18 20 20 24 22 24 22 19 22 23 29 35 42 50 54 59 63 71 74 77 78 84 98 94 90 80 75 63 49 43 37 69 76 66 86 50 46 41 55 69 73 75 78 72 71
40 41 24 22 31 31 28 24 24 25 27 20 20 22 25 30 34 40 43 44 54 62 71 80 84 84 94 94 99 95 92 98 95 95 95 80 37 35 45 50 42 70 80 85 82 82 78 79 69
41 33 30 29 32 40 35 30 26 28 26 23 23 24 27 31 30 30 35 38 41 55 65 78 88 96 96 100 99 92 85 89 94 95 95 83 69 55 85 87 96 98 87 82 80 80 78 57 30
44 37 29 34 39 40 40 37 35 34 33 30 29 30 34 33 31 30 30 33 39 50 60 73 87 73 96 100 100 93 84 85 90 94 96 88 83 77 87 94 87 84 82 78 78 79 45 30 28
39 41 39 39 40 40 42 37 35 32 32 32 32 33 33 34 33 31 31 30 35 44 56 66 81 93 73 98 100 98 89 87 88 94 99 85 88 91 94 80 81 85 83 80 81 34 30 27 22
51 53 41 37 37 38 39 43 39 34 32 29 28 29 29 30 30 31 31 30 31 33 44 55 72 86 82 53 94 99 89 87 92 96 98 91 91 99 82 86 88 87 85 80 31 31 26 17 14
50 44 49 31 34 32 36 42 24 28 30 30 28 27 26 25 26 27 29 31 32 31 32 42 57 78 94 43 75 90 95 91 97 98 97 97 97 83 87 89 84 85 82 32 31 26 19 15 14
43 46 40 35 29 34 40 41 26 31 29 28 30 28 29 28 26 25 27 29 30 32 34 34 41 59 79 49 87 98 97 96 98 98 99 91 85 82 83 82 83 86 38 34 31 29 25 21 16
42 48 40 36 28 37 39 37 28 28 30 32 31 30 29 28 29 29 27 26 28 30 34 34 41 44 61 89 94 96 98 98 99 98 88 83 84 84 84 86 87 62 35 38 37 37 35 30 23
42 42 39 32 28 38 38 35 28 24 25 27 28 28 28 28 28 31 34 31 28 31 34 38 38 50 56 74 90 93 95 99 100 96 83 81 87 89 87 86 81 35 42 42 44 45 43 38 30
47 49 46 36 31 37 38 37 29 26 24 24 25 26 26 26 26 27 30 36 37 36 39 40 44 52 63 77 74 93 100 100 100 91 83 86 92 90 85 84 38 42 46 47 48 49 48 44 36
49 51 47 44 37 38 42 41 27 21 22 21 21 23 24 24 24 24 27 30 36 38 38 40 48 60 73 71 95 99 100 100 99 96 87 94 98 92 83 58 37 47 48 50 51 52 52 47 40
55 36 40 46 51 54 39 46 24 16 16 17 18 19 20 20 22 22 22 25 29 36 40 43 53 66 79 91 86 83 59 86 97 91 92 100 100 90 72 39 43 49 50 51 53 54 54 51 41
51 46 48 49 54 55 44 57 32 16 16 15 15 19 20 21 20 20 23 25 26 30 38 47 60 74 86 85 97 99 91 96 97 93 100 100 94 83 52 42 47 49 51 52 53 55 55 53 42
47 51 53 53 64 83 45 40 33 20 14 15 13 17 19 19 20 24 25 26 29 30 36 45 70 79 86 93 99 85 93 87 88 92 100 98 94 61 45 44 48 50 51 52 54 55 56 52 42
54 67 69 80 90 64 24 30 30 17 16 16 17 17 18 20 24 25 26 30 35 34 37 52 81 84 93 99 92 90 95 83 77 80 94 98 88 54 45 45 49 50 51 52 55 56 56 51 38
61 60 58 52 38 34 26 34 26 18 14 17 17 19 20 23 32 39 39 28 34 44 43 69 86 86 94 93 99 98 93 88 80 82 91 96 72 55 45 46 49 49 51 53 55 57 55 46 35
60 81 50 67 50 61 39 28 20 17 17 17 18 20 19 27 34 37 42 39 33 43 50 72 85 90 94 98 100 97 96 89 86 92 97 73 55 54 44 47 48 49 51 54 56 56 51 41 32
54 46 81 86 80 54 33 28 28 20 19 17 18 19 21 29 32 38 45 46 39 49 60 75 82 90 97 100 96 97 93 94 92 90 72 56 61 46 45 47 47 49 52 55 56 54 47 36 33
67 74 85 59 70 74 63 39 20 21 21 22 18 19 28 31 39 44 50 49 44 55 67 74 81 89 97 95 98 97 98 99 92 77 66 65 51 43 46 46 47 50 54 56 55 48 40 33 32
42 56 55 88 67 77 75 62 25 22 21 21 22 31 27 26 41 48 56 56 53 65 74 77 82 89 88 88 98 100 95 97 85 70 64 54 43 44 43 45 48 52 56 56 51 42 34 30 28

GFSSGP_850_rhum_018.txt.gz
RH
34 43 36 33 45 39 39 29 15 16 16 14 17 17 20 18 29 59 59 60 59 46 37 44 48 47 49 54 58 60 54 38 84 91 66 88 90 86 82 65 45 32 29 30 31 48 80 77 80
35 39 33 32 46 47 33 23 21 16 15 18 17 16 18 21 35 49 60 60 79 70 43 35 42 48 55 55 60 62 48 43 61 70 78 78 78 72 70 40 40 36 34 29 30 29 30 41 60
35 42 34 42 43 42 35 20 18 16 17 16 16 16 16 29 37 51 55 61 76 84 52 39 42 54 57 53 58 57 42 49 64 63 68 71 57 56 54 58 54 42 40 39 37 35 33 30 29
45 39 33 38 37 29 26 20 16 17 16 16 18 20 21 29 39 44 42 62 73 84 85 67 58 71 67 58 57 49 38 43 69 62 62 62 66 71 71 69 67 56 46 46 44 42 41 41 43
44 38 43 40 34 26 20 16 17 18 17 17 18 20 26 37 40 46 45 60 70 80 87 84 59 92 71 60 60 46 30 40 64 70 71 79 80 85 77 71 61 56 45 45 51 55 59 61 66
39 32 44 43 34 24 19 15 17 18 17 16 16 17 27 40 48 56 56 58 67 74 84 84 73 90 76 57 60 46 31 35 64 73 77 77 78 85 81 76 63 55 43 45 56 64 73 77 75
46 44 43 35 31 24 18 14 18 19 18 17 16 18 24 42 50 58 59 57 63 76 86 74 83 90 92 68 51 49 32 31 52 65 72 76 76 79 79 80 70 55 42 48 65 74 72 73 74
40 43 46 35 32 28 18 14 18 19 20 17 18 19 28 52 56 60 59 60 62 74 82 84 80 86 87 67 52 37 36 29 40 51 60 73 74 81 90 86 64 48 40 52 61 66 68 72 64
39 54 52 41 33 28 17 19 18 20 20 18 19 19 28 48 55 58 59 64 65 72 78 83 80 82 94 75 68 52 32 30 35 43 51 62 71 74 72 60 51 44 40 53 61 64 70 66 61
47 62 52 32 26 25 26 19 20 21 21 20 20 20 27 32 48 57 60 64 66 70 75 77 84 92 95 98 78 65 44 33 29 34 34 42 78 72 57 58 52 40 44 56 63 65 68 68 72
45 54 35 27 22 25 33 32 24 24 29 23 20 19 23 28 35 44 50 54 61 67 73 76 77 81 88 96 96 89 64 54 41 38 47 62 78 67 65 57 42 48 60 60 68 64 66 69 51
46 36 35 33 29 32 37 34 32 28 25 24 24 23 23 27 30 33 38 40 48 58 67 74 79 82 86 92 98 90 79 72 86 77 81 77 45 40 52 74 88 91 82 78 75 76 71 45 29
41 37 31 30 31 33 36 38 41 37 33 28 27 28 27 31 31 30 29 31 36 51 59 69 79 84 87 89 96 95 93 88 92 92 87 80 57 48 62 90 95 91 77 72 72 73 47 29 25
37 39 39 38 34 36 39 38 38 35 33 34 34 32 31 31 34 33 31 30 31 38 51 64 75 80 86 92 96 96 89 86 87 91 90 90 75 68 91 92 84 75 74 76 76 47 28 25 16
46 57 48 43 40 40 38 46 45 38 36 33 30 30 31 31 32 33 33 31 30 32 43 58 71 78 74 86 98 97 91 85 87 89 93 91 87 87 90 87 80 81 82 78 53 29 25 17 13
55 55 68 35 37 36 39 54 34 29 34 35 33 30 28 28 29 29 31 32 31 31 32 47 62 77 79 59 89 97 96 87 86 90 85 90 90 92 93 83 87 86 84 71 30 29 25 22 17
53 62 55 43 35 34 39 47 35 30 28 29 30 28 28 27 26 25 25 27 29 30 31 36 50 60 72 63 56 98 96 84 86 90 86 91 92 94 80 83 87 84 81 33 34 32 33 30 25
54 56 47 44 36 36 44 45 35 30 28 29 30 30 31 29 28 28 26 25 26 28 31 31 37 55 66 70 65 90 84 92 91 88 89 90 89 84 86 82 83 84 58 36 37 39 40 38 32
46 50 52 38 30 37 39 37 33 28 27 26 27 28 28 29 28 28 28 28 27 26 27 31 34 35 50 77 79 76 88 89 93 95 98 91 82 80 86 82 84 85 34 41 42 45 45 44 39
49 56 56 42 34 37 43 44 37 32 29 27 26 24 25 26 26 26 27 28 31 31 27 29 34 37 37 62 76 68 82 88 91 96 99 94 82 79 82 77 81 62 39 44 47 48 48 48 45
55 57 54 50 42 40 43 47 38 28 29 28 27 26 24 24 24 25 25 26 28 33 33 31 32 37 42 45 82 90 89 88 93 95 99 95 94 84 88 80 80 37 44 47 49 51 51 51 49
62 42 44 46 56 68 44 75 39 28 21 25 21 22 21 20 21 22 24 24 26 28 33 36 39 39 44 53 75 66 60 79 95 99 100 100 100 96 92 83 65 36 46 49 51 52 53 54 53
51 49 50 52 62 73 58 74 47 28 27 19 19 18 18 20 21 21 21 22 22 23 30 33 37 41 48 61 74 68 78 86 93 100 98 100 100 99 89 80 51 42 47 50 51 52 54 55 55
47 49 53 56 66 96 69 55 40 31 24 19 16 16 16 17 19 21 22 25 25 25 22 35 37 41 57 73 84 80 74 96 92 100 99 99 97 92 82 72 46 46 48 50 52 53 55 56 56
53 65 93 96 96 89 38 47 36 23 21 19 19 17 17 17 20 22 30 34 32 29 28 25 40 43 55 77 95 94 82 72 72 98 100 98 94 87 83 73 48 47 48 50 52 53 56 57 56
64 66 89 77 83 68 40 60 38 20 18 16 16 17 17 18 20 31 36 39 40 33 30 33 38 51 62 81 92 99 100 82 87 98 100 100 96 88 80 67 48 48 49 50 52 54 56 58 55
67 83 55 78 62 86 58 34 26 22 21 20 18 17 18 19 24 33 35 41 46 42 35 38 52 54 58 85 100 100 97 88 90 96 100 98 94 86 78 57 46 48 49 50 52 55 57 58 52
57 49 85 88 95 81 50 41 40 29 24 22 27 21 18 19 24 33 38 44 44 43 38 42 56 54 68 92 96 96 89 96 92 98 98 96 94 88 61 52 47 48 49 51 54 57 58 56 46
68 74 72 71 83 94 80 52 27 32 30 28 26 24 29 33 34 37 44 48 44 43 42 48 56 62 74 91 96 94 94 96 93 95 95 94 90 63 54 48 47 48 48 51 55 58 58 52 41
54 64 62 86 79 80 86 68 32 31 28 30 26 23 23 30 30 33 38 50 49 51 50 57 61 82 87 90 95 94 92 94 91 91 90 84 64 58 50 46 46 47 50 54 57 58 54 43 30

GFSSGP_850_rhum_021.txt.gz
RH
35 35 36 37 48 54 50 41 29 19 18 19 17 18 20 22 28 53 54 60 59 43 58 31 23 22 24 30 33 38 34 34 43 39 71 81 87 80 74 41 28 26 27 29 39 70 74 81 79
37 33 36 35 56 58 54 34 31 18 19 16 15 15 17 42 44 59 59 62 59 48 46 33 31 29 30 32 28 26 25 38 76 68 82 90 88 80 58 33 33 33 30 29 27 29 43 44 46
36 40 42 53 58 57 51 28 24 19 16 16 17 18 18 44 47 51 56 60 60 48 40 35 33 35 36 38 27 22 22 32 47 72 69 71 64 71 44 43 40 39 38 34 31 30 29 29 31
35 43 40 46 51 42 35 28 19 18 17 16 17 21 30 40 40 51 56 53 70 62 42 40 43 43 44 46 32 24 23 36 47 48 61 52 53 59 53 49 43 39 39 40 39 40 43 46 49
48 46 56 53 45 35 30 25 20 20 18 17 18 22 37 45 42 43 59 61 75 73 57 52 51 50 50 48 32 25 25 42 51 53 52 57 63 67 60 53 44 38 39 43 49 54 59 62 59
46 43 61 63 51 34 29 21 20 20 19 17 18 17 32 45 37 46 60 64 74 79 79 79 58 50 52 49 32 24 25 35 54 62 72 76 84 82 69 56 46 38 38 46 50 62 65 66 69
51 58 59 46 43 36 29 21 22 22 19 18 17 18 44 50 55 51 58 66 73 80 84 87 77 69 64 53 37 24 20 29 46 60 68 73 78 78 67 57 46 37 37 45 54 56 61 65 64
45 58 55 52 45 41 26 20 17 20 21 18 18 23 59 56 59 58 57 65 69 77 81 78 79 72 66 60 45 31 21 22 36 56 66 68 74 86 78 67 48 39 37 46 51 54 62 63 57
44 67 72 57 48 38 24 30 22 20 20 18 19 22 42 52 60 61 59 62 66 71 76 79 70 70 69 72 58 44 31 23 28 39 60 68 66 78 80 64 48 41 39 49 56 60 61 62 62
52 74 65 44 39 35 29 35 32 22 22 21 20 29 46 44 57 60 61 63 68 70 76 79 82 74 81 80 68 51 40 28 31 35 44 59 62 56 62 58 54 43 45 54 62 60 66 67 66
50 68 50 46 34 32 36 36 34 32 29 22 21 21 28 26 38 56 61 63 65 69 75 80 83 88 82 71 74 68 50 37 33 35 38 46 56 54 48 53 53 44 52 63 64 57 63 66 44
58 46 44 39 36 35 38 37 42 38 32 30 27 26 27 35 29 44 56 58 61 65 70 76 80 84 85 84 92 81 70 48 39 35 40 62 60 66 51 62 58 63 74 70 68 65 68 50 28
48 44 40 39 34 37 33 40 42 40 37 31 28 29 31 29 32 36 37 42 50 62 65 73 77 77 79 82 92 96 74 70 63 58 66 67 73 50 44 69 83 74 79 67 66 72 65 29 25
42 42 44 43 43 43 42 41 38 38 31 33 33 29 31 34 31 31 31 32 34 44 60 67 74 78 79 80 87 92 86 83 83 78 86 84 78 47 63 82 93 91 81 72 75 75 31 26 17
50 58 56 52 48 48 40 52 51 38 37 38 36 32 31 32 33 32 32 31 32 32 52 61 66 73 77 82 86 92 91 92 86 89 88 91 82 67 71 82 92 83 68 76 76 41 28 21 17
57 58 79 54 46 47 45 60 45 36 39 38 37 35 32 30 30 29 31 32 32 33 33 48 58 63 74 78 85 94 95 90 84 85 89 88 86 86 86 89 90 75 79 82 67 30 27 25 23
61 78 73 61 39 43 50 54 42 37 35 36 35 34 33 33 29 28 28 28 31 32 33 34 48 51 59 70 76 92 99 91 84 87 88 88 86 87 90 89 87 80 84 81 35 32 33 33 31
71 74 56 55 40 39 46 53 44 35 33 33 31 32 33 33 29 29 28 26 27 30 32 31 38 48 52 52 61 75 99 93 88 86 89 90 84 90 93 92 82 84 83 70 34 36 40 39 36
61 56 62 53 40 42 44 47 41 33 32 32 31 29 28 28 31 30 30 29 27 25 26 27 36 44 56 56 61 74 92 96 89 86 89 90 87 90 92 83 83 82 83 46 38 41 43 43 41
60 61 65 53 40 43 48 47 40 37 35 33 32 31 27 26 26 29 28 28 28 29 26 25 27 35 51 58 52 48 68 85 88 90 90 90 87 88 91 80 81 80 81 36 42 45 46 46 46
58 63 63 60 50 47 51 55 44 38 34 32 32 30 28 26 25 24 25 26 27 27 28 30 27 28 45 53 52 51 64 71 87 88 87 87 90 93 87 81 80 78 68 39 45 48 48 49 49
68 51 52 57 63 75 55 86 62 39 32 28 32 31 29 26 24 24 23 23 24 25 26 28 32 32 38 43 49 52 53 65 81 80 85 84 92 99 90 89 83 77 50 41 47 49 50 50 51
60 52 56 59 69 73 69 78 64 44 36 28 23 24 25 24 22 22 20 20 21 22 24 26 30 30 39 40 42 47 51 55 62 70 78 86 92 100 95 94 85 65 40 44 48 49 50 51 52
48 56 57 63 76 96 75 65 56 38 31 21 17 16 16 18 20 20 23 24 26 26 25 24 24 33 33 42 45 47 53 51 62 75 86 91 91 99 98 94 85 56 42 45 49 50 50 52 54
59 69 95 91 94 89 58 71 52 29 25 22 22 18 16 19 18 18 22 22 26 28 27 26 26 26 33 35 44 52 54 54 59 69 84 92 92 97 98 90 83 52 45 48 50 50 51 53 56
73 66 90 91 96 81 51 68 47 29 23 20 17 18 16 16 16 17 22 31 34 33 33 32 30 29 27 42 46 55 60 68 73 71 90 92 96 96 92 88 72 51 47 50 51 50 51 54 56
70 85 60 81 72 93 70 50 33 26 25 24 23 23 24 21 17 18 34 35 36 35 29 28 36 36 31 37 56 61 67 74 70 89 100 98 97 95 88 81 63 50 51 52 51 50 52 55 58
61 58 86 92 100 95 72 57 46 33 30 34 32 28 31 26 23 35 35 36 39 32 26 26 34 39 36 43 61 64 66 73 78 98 97 96 97 97 80 73 60 53 52 51 50 51 53 57 58
72 83 73 76 91 98 99 71 37 36 35 37 34 29 30 34 33 36 38 36 35 28 23 26 39 38 46 53 61 68 73 77 94 95 97 96 100 88 72 73 69 60 50 50 51 53 56 58 58
62 70 69 86 78 91 94 69 33 33 35 35 34 36 37 38 38 38 34 32 29 30 28 37 50 54 57 62 68 72 74 82 95 91 94 99 97 73 76 73 54 51 50 50 52 55 58 59 49

GFSSGP_850_rhum_024.txt.gz
RH
37 34 38 36 44 56 55 48 35 30 20 19 17 18 20 31 28 42 49 54 61 57 46 37 29 22 22 24 22 20 22 27 54 76 84 78 82 75 61 27 22 22 23 26 70 80 81 77 75
40 35 38 38 57 61 57 40 34 30 20 18 16 18 20 48 47 46 51 56 57 47 39 32 28 23 23 23 22 17 16 20 26 67 78 88 84 79 33 24 24 23 23 28 47 68 74 67 43
40 35 39 53 62 63 54 35 24 20 18 16 17 19 25 38 41 35 47 48 58 48 34 29 30 28 26 24 21 17 18 21 38 68 82 86 85 66 28 29 28 27 26 25 24 23 25 26 30
38 41 45 56 62 50 42 30 28 25 18 16 18 22 37 42 43 42 40 46 54 51 35 32 36 37 32 27 21 18 20 25 36 54 66 68 48 34 40 37 36 36 34 34 34 36 39 43 48
42 49 61 60 55 44 36 30 27 27 21 18 19 22 36 42 46 42 41 42 53 46 38 36 46 47 42 32 25 19 21 29 31 42 38 32 36 43 43 40 38 40 45 48 48 52 56 56 58
52 51 72 66 55 39 34 26 24 22 20 19 20 21 42 42 44 36 50 52 58 52 45 42 50 54 50 39 28 19 21 29 39 37 41 46 54 48 43 42 39 40 48 52 60 64 61 64 63
58 62 68 58 54 46 37 26 25 24 22 19 18 25 52 54 54 46 54 67 75 73 58 63 56 60 55 49 32 23 23 30 42 59 67 75 78 70 56 50 46 40 49 60 59 56 59 62 59
47 61 62 52 46 46 31 24 21 23 24 19 18 50 60 50 57 63 65 69 81 80 78 79 79 63 58 52 47 30 24 30 40 62 66 72 75 71 64 54 47 40 45 53 54 56 59 58 55
50 73 78 59 53 43 30 33 26 22 21 20 21 27 26 43 60 62 64 72 79 84 78 79 84 75 62 55 53 43 27 27 40 58 67 69 75 75 70 60 49 41 42 52 55 59 60 60 62
58 80 69 50 43 41 33 34 33 28 24 21 23 27 47 54 57 60 61 65 76 80 82 76 77 73 67 62 60 45 34 28 39 50 64 66 66 78 75 59 45 41 42 55 59 62 66 67 65
57 72 54 49 44 41 40 36 38 34 31 26 28 37 47 57 62 58 61 59 59 65 72 75 77 79 73 62 66 52 40 29 30 42 49 62 57 58 64 60 52 45 39 50 59 62 62 66 52
60 51 45 44 39 42 38 35 42 39 32 29 35 32 52 59 61 62 60 60 61 64 66 70 76 80 81 80 69 62 50 38 29 31 39 46 45 50 53 60 54 44 46 56 57 60 65 66 33
54 49 44 41 41 42 40 41 41 43 37 30 34 35 33 31 31 54 61 63 64 60 62 65 74 79 82 77 83 73 73 56 39 31 33 34 38 47 54 59 64 63 67 67 60 62 68 52 29
47 44 43 43 45 46 47 45 40 37 34 33 32 31 33 32 31 34 50 59 62 65 62 63 68 71 72 74 81 84 79 79 56 44 40 42 46 54 56 58 78 77 71 74 66 71 71 32 25
52 55 54 50 48 49 44 50 56 38 34 34 31 28 25 28 30 32 31 34 34 36 58 66 65 68 69 66 77 82 89 78 76 74 75 75 72 79 51 54 78 86 88 81 72 73 52 28 20
59 62 72 51 46 44 48 57 44 36 39 40 36 34 33 24 26 28 29 31 32 34 35 60 68 68 69 67 74 81 82 79 85 84 82 82 88 90 62 56 74 87 93 75 78 73 31 26 25
67 78 77 66 48 47 57 60 45 36 40 39 36 34 32 31 28 26 26 30 29 31 33 34 67 63 61 63 71 76 83 72 85 88 84 87 90 89 80 74 84 94 90 80 80 55 31 31 32
74 81 66 62 44 44 48 62 50 41 40 38 36 33 32 31 30 30 30 26 28 30 30 32 34 60 65 58 57 65 78 78 84 90 83 86 89 90 86 90 93 92 87 85 80 35 35 38 37
60 60 64 58 46 48 49 49 45 37 36 34 33 30 28 28 30 32 31 30 30 29 27 26 28 32 56 63 58 61 70 74 75 88 84 87 90 88 88 91 93 95 84 83 70 36 40 42 40
65 69 72 58 47 45 52 52 42 39 37 35 32 31 29 26 26 28 28 29 31 30 29 27 26 26 30 51 54 57 54 63 60 72 83 87 88 88 86 89 93 88 81 83 62 39 43 44 44
61 65 64 64 56 48 56 41 40 37 34 32 32 30 30 30 25 22 26 27 27 29 28 28 29 28 27 38 51 60 62 61 66 67 76 87 86 85 89 86 89 86 81 82 52 41 45 46 46
68 53 55 58 63 79 57 79 64 47 38 32 28 29 29 29 29 26 22 24 24 24 24 25 27 28 33 32 40 51 61 61 62 61 74 79 85 85 85 81 86 86 81 78 42 42 46 47 48
63 52 56 58 71 71 70 83 65 52 43 35 30 21 21 21 22 20 21 23 22 22 21 22 23 26 29 36 39 44 56 58 54 55 62 64 69 81 81 84 92 90 82 64 42 42 47 48 50
54 56 67 75 76 92 69 73 60 41 32 25 20 18 17 17 18 21 22 22 21 21 22 22 22 24 25 32 39 42 53 54 56 58 58 68 71 74 82 89 98 93 84 63 45 48 49 49 50
58 67 85 83 97 82 63 77 68 42 34 27 26 20 19 19 18 18 20 20 23 26 27 26 25 25 24 25 37 42 47 51 52 54 54 57 66 73 82 85 96 93 83 51 46 50 51 50 50
66 65 80 70 96 86 61 77 48 36 30 23 24 24 25 26 21 19 19 18 20 21 23 24 24 23 24 25 29 37 47 50 54 52 52 55 61 64 80 96 95 89 79 47 50 52 52 51 52
72 84 62 81 76 94 76 58 37 30 28 34 30 28 30 31 32 31 21 26 32 33 33 29 26 24 27 28 29 35 42 52 51 50 56 63 66 76 96 94 92 80 66 50 53 52 53 53 54
60 61 86 92 98 91 76 67 48 35 32 37 35 31 34 40 40 38 38 46 45 40 35 29 27 26 23 32 32 34 42 57 59 58 64 67 82 99 99 90 91 84 59 52 53 58 54 52 56
76 85 78 78 88 98 95 73 44 34 34 38 41 38 44 51 53 49 41 40 49 38 30 27 24 21 21 30 38 41 48 68 62 67 69 75 89 100 95 92 92 71 66 72 60 56 53 53 56
65 73 74 90 77 94 92 81 40 41 35 39 37 42 53 58 62 62 49 44 38 44 35 30 26 24 23 34 44 50 52 60 66 72 74 89 94 99 94 94 87 71 66 70 77 68 54 55 58

GFSSGP_850_rhum_027.txt.gz
RH
39 36 35 38 47 60 58 48 39 32 25 20 20 20 23 26 30 40 52 51 48 51 45 36 35 46 45 44 47 52 52 65 81 80 82 86 75 69 50 22 20 20 22 57 84 83 81 78 73
41 37 36 40 57 62 54 44 35 30 23 19 19 20 31 46 46 44 50 48 56 50 41 28 30 35 36 39 39 40 38 51 88 85 82 86 73 70 22 20 20 21 25 62 80 81 78 71 50
43 38 40 54 66 62 48 39 27 24 22 20 19 21 25 35 42 41 40 44 56 51 35 24 23 29 26 28 29 27 23 26 66 85 88 88 74 61 22 24 23 22 24 32 51 60 52 30 32
43 40 42 60 64 53 42 33 31 30 22 19 21 28 39 42 43 41 42 44 52 49 35 23 22 26 29 27 21 19 22 27 48 91 90 81 67 26 26 28 29 29 29 29 29 31 34 39 45
47 49 67 66 56 50 40 34 30 31 26 21 21 25 32 38 42 44 44 45 50 53 41 28 26 34 38 31 19 19 23 25 39 64 69 54 26 28 30 32 34 35 37 39 43 48 52 55 58
48 54 75 70 53 44 37 30 27 26 24 22 22 30 37 37 39 38 45 50 62 53 45 34 34 40 41 35 20 20 26 26 27 34 30 25 30 34 34 34 36 42 46 50 60 62 63 65 63
63 71 74 58 50 46 39 30 30 27 25 22 20 35 44 38 39 38 51 59 70 59 44 41 41 47 46 43 24 21 30 30 29 30 33 42 34 32 34 34 36 43 49 62 59 66 62 62 56
52 59 63 60 53 42 32 27 24 24 25 21 20 55 54 32 41 46 61 68 75 79 62 42 43 47 48 45 34 23 28 34 39 48 59 69 58 45 42 38 38 39 51 87 73 61 62 58 55
52 75 81 54 50 41 34 34 30 27 25 22 22 25 29 38 46 53 65 80 82 81 78 70 72 68 48 45 43 28 25 35 45 59 66 71 72 59 58 51 44 39 46 57 57 62 63 61 62
61 84 72 53 47 42 38 39 38 33 30 24 23 24 29 55 53 50 51 62 75 81 74 78 83 80 73 55 49 38 28 34 46 54 61 66 70 70 64 66 55 46 43 53 58 59 61 63 66
63 74 56 52 46 45 42 40 36 38 39 28 27 51 60 64 62 55 47 42 35 48 67 63 74 81 76 64 54 46 36 30 40 51 59 61 65 76 77 71 55 52 46 51 57 60 59 61 61
62 56 50 48 42 43 41 38 42 38 35 32 33 44 64 65 67 62 57 50 50 54 53 60 67 73 75 74 64 55 44 34 30 46 53 58 58 61 68 64 64 60 49 55 58 60 60 63 57
59 53 49 46 42 45 43 43 44 43 33 32 36 34 35 47 65 70 66 60 61 64 66 63 64 66 71 74 73 70 57 46 34 32 46 52 54 53 58 60 63 57 49 59 63 62 63 66 46
51 50 47 43 44 44 48 48 43 41 34 31 34 33 33 33 33 34 42 66 64 64 64 65 63 66 70 70 74 74 75 68 52 36 34 44 45 45 60 63 65 62 68 74 71 64 68 69 34
51 57 54 53 49 51 47 53 61 41 36 36 34 33 30 29 29 31 33 44 68 66 66 65 62 66 71 73 76 79 77 68 68 61 40 35 38 44 65 70 68 71 78 79 80 70 73 63 29
64 62 73 52 50 47 46 58 46 37 39 39 34 31 28 28 26 24 26 32 34 39 50 50 63 65 68 72 75 80 81 77 76 69 57 48 54 66 80 74 59 73 85 88 82 76 78 42 26
69 84 77 64 49 50 58 66 46 40 40 41 36 32 29 32 29 28 25 25 30 31 32 33 35 51 69 68 68 69 76 78 84 80 71 75 80 86 90 88 67 76 88 93 83 81 76 32 29
80 75 71 66 45 51 54 62 50 42 44 45 40 38 36 34 33 29 28 29 26 26 30 31 31 32 47 70 67 67 68 82 81 82 74 80 86 88 90 89 76 78 92 95 87 84 69 32 35
62 66 67 58 49 50 54 53 47 39 38 40 36 36 35 32 30 31 30 30 32 31 26 29 30 30 30 55 67 68 65 68 86 79 74 78 88 88 90 88 89 92 91 93 89 84 53 36 40
69 73 74 62 52 49 56 56 45 40 37 35 34 31 30 30 26 26 29 29 30 32 31 28 29 30 29 30 49 62 64 62 67 66 68 68 78 83 89 86 89 90 91 96 86 82 44 40 42
69 71 67 66 58 51 60 53 43 36 34 30 30 32 31 32 29 22 20 22 27 29 30 30 30 29 29 29 32 58 64 65 63 68 78 71 84 80 86 85 88 88 87 93 81 82 43 42 44
74 54 57 60 64 78 60 81 64 44 44 40 32 27 25 24 23 23 24 26 21 21 27 26 28 28 27 29 33 42 46 59 62 60 59 63 76 76 87 85 80 90 89 92 81 80 43 43 46
64 53 57 61 72 67 68 81 65 44 39 31 29 22 21 22 22 20 20 21 22 22 22 24 24 25 25 26 27 34 41 58 57 60 61 63 65 65 70 77 78 85 82 84 85 76 42 44 47
55 58 67 78 75 90 65 72 58 39 31 32 31 23 23 20 18 19 21 23 20 19 20 21 21 21 22 23 26 28 40 50 56 59 60 59 60 62 65 68 75 81 86 92 89 72 44 48 49
57 66 80 71 90 76 66 78 58 44 38 34 35 27 32 32 30 30 26 22 26 26 21 22 21 21 22 23 25 26 31 46 51 53 63 61 58 60 60 64 73 77 91 94 92 65 45 49 51
64 63 76 54 86 83 67 79 48 38 33 30 31 33 32 32 32 33 35 36 29 26 35 23 18 20 24 24 26 29 27 30 43 47 53 62 58 53 55 60 68 84 98 98 94 68 48 52 52
73 84 62 82 80 93 74 58 38 33 36 35 33 34 35 35 39 44 42 43 39 34 37 40 37 30 27 25 23 24 27 29 33 45 51 55 62 63 59 60 66 96 99 99 94 64 54 53 55
61 64 84 92 70 84 69 73 53 36 35 39 38 40 39 42 52 60 56 53 55 42 47 43 40 34 30 26 23 22 24 32 31 35 54 55 57 60 62 61 80 100 99 95 85 61 64 60 56
76 87 82 79 84 89 95 63 51 37 36 40 46 40 44 56 69 72 68 67 66 56 42 44 47 38 28 26 24 26 27 34 37 39 42 69 70 66 64 74 94 99 98 88 67 69 56 59 76
66 74 77 85 77 96 94 80 46 45 40 42 40 44 56 70 71 70 71 63 66 68 61 39 51 46 42 33 28 29 42 45 49 56 58 72 84 88 76 89 100 97 79 71 77 68 80 71 68

GFSSGP_850_rhum_030.txt.gz
RH
40 38 34 35 49 62 58 46 41 37 28 22 21 23 24 25 36 44 48 57 45 37 29 43 32 48 88 62 97 88 83 90 89 86 85 84 71 64 43 20 19 25 42 100 99 99 77 81 72
42 39 35 39 56 58 52 46 39 33 25 22 20 30 32 41 46 44 51 43 49 47 29 31 26 24 42 49 60 92 84 91 87 85 85 81 66 51 18 18 19 22 71 99 77 81 82 71 47
43 40 39 55 69 62 47 40 37 29 26 22 20 22 26 36 41 40 42 42 45 51 33 27 24 26 34 38 42 44 79 84 90 84 85 81 62 32 21 20 20 25 41 69 71 71 64 34 34
44 40 43 61 66 54 41 33 31 34 24 22 23 34 41 41 42 39 42 43 46 53 40 26 22 23 28 27 26 25 30 53 97 88 89 79 58 23 24 24 24 23 23 27 33 29 30 38 43
45 46 67 67 60 51 45 37 32 32 27 23 23 25 34 42 42 41 41 46 53 50 45 32 24 24 27 27 23 19 21 34 91 93 88 70 36 26 28 29 30 30 32 34 38 44 51 55 58
53 52 73 71 60 44 40 32 29 27 27 25 23 29 33 34 42 39 40 46 59 54 44 33 27 25 28 25 19 19 23 37 47 76 66 36 25 27 28 32 35 39 42 48 54 56 58 58 60
62 74 74 60 51 45 38 29 31 30 27 24 21 31 34 30 35 42 48 52 59 62 47 34 30 29 34 28 20 20 22 26 36 39 33 26 28 31 33 33 39 42 46 58 62 82 62 59 57
50 64 71 63 53 47 32 29 25 25 26 24 22 33 33 27 33 43 56 59 68 65 56 39 33 33 34 31 24 20 23 28 34 33 29 32 39 40 37 38 38 46 56 74 85 61 58 54 52
54 76 80 55 53 41 34 35 32 31 30 26 23 23 30 32 39 45 58 69 76 74 65 50 40 38 37 36 34 22 24 33 38 41 53 65 57 50 50 46 41 43 66 68 59 60 56 56 57
63 82 73 50 44 41 41 39 37 36 36 29 23 35 33 40 44 44 49 56 71 73 74 63 52 58 61 47 39 34 24 32 41 53 64 71 72 65 56 59 50 44 56 60 60 59 58 61 60
65 72 58 53 45 45 46 46 39 39 38 32 31 42 64 60 55 56 49 49 40 60 70 70 72 76 76 70 58 42 33 25 34 45 60 66 69 71 73 70 63 52 43 52 59 64 62 62 62
66 58 52 47 48 47 44 40 42 40 35 33 33 34 51 75 69 66 56 51 48 48 60 63 72 75 76 74 70 56 43 33 26 34 44 56 63 72 73 74 68 58 48 47 58 64 62 61 62
62 56 53 49 48 48 46 45 45 42 36 34 33 33 35 41 68 71 68 68 68 60 56 59 67 71 78 75 72 70 59 49 36 28 35 44 53 62 67 72 72 71 64 52 58 62 63 65 66
57 53 50 48 46 45 49 49 46 42 36 34 34 33 31 32 34 40 66 69 65 60 55 58 64 68 74 74 76 74 73 67 56 42 32 41 47 55 60 63 65 68 61 56 66 68 64 66 68
55 56 55 55 50 51 49 57 64 42 38 36 35 35 33 31 29 30 31 34 46 66 65 62 61 67 68 70 72 72 71 74 74 69 48 36 46 53 58 61 65 61 60 69 74 72 67 71 68
67 62 76 54 56 50 48 57 46 37 39 39 36 33 32 29 28 27 25 26 28 37 66 68 64 63 68 66 70 74 77 76 77 71 68 58 41 43 52 55 70 71 67 76 79 83 72 76 60
72 90 82 64 52 50 60 68 49 44 46 46 41 36 34 32 30 27 23 23 23 26 36 48 58 64 56 67 63 62 67 69 72 79 78 77 62 44 45 61 78 76 66 78 85 87 78 80 52
77 76 74 72 48 58 62 65 49 38 38 45 37 37 39 37 33 28 27 32 30 28 27 32 35 34 35 35 53 66 66 68 69 75 83 82 75 63 68 85 91 81 69 83 89 92 83 82 44
68 71 70 60 50 52 60 59 51 42 41 40 35 32 31 31 31 31 32 30 31 31 31 27 27 32 32 32 33 54 69 66 68 65 72 79 83 81 85 90 93 86 79 80 90 92 88 83 42
71 76 76 66 54 52 59 60 47 41 42 36 35 32 31 30 30 29 28 27 27 29 30 33 30 28 31 31 31 34 44 62 58 62 61 64 79 82 76 80 87 87 91 90 87 90 90 82 41
71 78 71 69 59 54 65 57 48 37 35 32 29 29 30 29 29 28 30 28 25 23 25 29 32 32 32 32 31 34 42 54 68 66 64 60 70 78 82 86 86 82 87 81 80 89 88 82 46
76 55 58 59 64 77 61 74 60 47 43 36 27 26 26 23 23 24 24 23 24 25 26 22 27 28 29 31 33 33 34 34 42 48 55 60 60 65 75 81 76 78 80 79 82 89 88 81 52
68 55 59 63 72 66 65 78 55 40 31 29 30 32 37 37 35 34 31 27 25 26 26 25 23 26 27 27 27 27 29 33 45 49 57 57 62 61 62 72 73 80 78 80 84 90 90 79 51
56 59 67 75 75 83 63 69 47 35 33 35 36 35 36 33 32 31 32 30 25 24 25 23 24 23 23 24 24 25 25 27 34 52 62 58 62 62 64 63 68 69 73 83 81 90 94 82 57
57 67 86 68 80 74 71 74 52 43 42 37 37 36 35 34 34 35 36 37 34 29 25 29 27 24 25 23 22 23 24 25 30 37 43 49 64 61 65 63 61 63 68 74 90 96 93 89 57
65 63 79 54 76 75 70 80 46 41 33 31 32 36 34 39 44 49 53 52 51 43 35 31 30 35 36 34 32 31 27 27 28 40 58 48 51 54 61 64 62 60 63 69 94 98 95 87 63
73 84 62 85 84 88 70 57 33 38 40 37 36 36 42 43 49 57 58 59 57 57 50 42 46 44 42 36 33 31 32 30 27 29 33 38 52 53 57 64 69 67 65 73 92 97 94 85 75
61 64 81 89 68 70 61 69 51 37 35 42 45 44 44 49 56 65 67 64 70 65 58 50 44 45 44 35 34 33 31 29 27 33 33 35 45 54 54 64 65 78 94 81 99 95 94 82 78
74 87 81 78 83 82 78 48 50 43 37 42 47 40 45 55 70 72 70 72 69 63 68 62 52 47 45 38 37 34 28 26 27 31 37 44 54 68 75 65 68 80 98 100 99 92 86 73 71
66 75 74 83 77 96 94 73 44 46 47 43 40 42 53 71 76 74 73 75 71 70 73 71 68 66 62 50 44 38 32 29 29 41 45 52 69 85 96 97 98 100 100 98 91 83 77 79 74

GFSSGP_850_rhum_033.txt.gz
RH
38 37 35 34 39 46 48 39 39 36 29 23 24 25 25 26 37 37 43 50 39 38 32 79 95 89 95 94 91 92 86 88 94 90 91 80 76 72 62 35 22 40 92 99 98 98 79 78 64
40 38 35 37 45 44 39 40 38 34 27 27 22 31 31 37 43 41 50 55 48 40 36 33 64 62 75 97 91 91 84 95 88 84 83 78 67 53 18 16 17 33 93 97 97 80 75 63 31
42 40 37 48 52 46 37 34 33 30 26 23 22 24 26 39 46 44 43 42 48 39 31 26 37 39 29 61 92 89 86 90 90 83 83 72 57 20 18 18 20 22 70 76 68 74 65 31 30
44 41 42 50 54 49 32 32 34 32 27 22 23 26 39 46 47 44 46 47 46 47 34 26 22 27 28 38 49 45 79 89 95 90 86 70 44 22 22 20 21 32 56 65 60 48 28 36 35
46 42 59 62 55 46 42 38 34 32 29 23 24 23 32 46 46 42 44 45 49 50 39 28 24 22 22 23 34 35 37 88 99 94 83 68 33 25 26 25 24 23 26 28 31 37 47 52 53
50 48 63 61 54 44 40 35 34 29 27 24 23 26 32 41 46 40 43 48 57 55 47 31 27 25 22 21 22 21 24 40 97 88 83 54 28 30 32 33 33 34 38 45 51 58 57 57 58
59 60 59 59 51 47 37 30 31 29 27 24 22 25 26 38 42 41 44 52 59 63 54 40 30 28 28 23 19 19 23 35 95 93 84 34 30 33 34 39 43 46 51 61 67 76 60 56 52
49 53 65 57 48 45 32 29 25 27 25 25 23 26 26 38 41 42 48 54 60 62 55 42 35 32 32 28 21 19 22 27 38 78 57 28 32 35 37 38 46 53 63 79 90 63 58 52 50
53 62 66 57 49 40 35 34 33 30 30 28 24 25 30 38 44 45 49 51 59 64 60 49 39 37 37 37 31 21 22 24 28 41 36 32 37 38 39 42 43 53 84 92 77 62 58 56 58
59 67 63 46 41 39 39 38 36 35 37 30 27 40 33 36 53 47 47 40 49 59 62 58 47 42 43 41 40 34 23 25 26 32 38 50 49 42 46 48 45 47 82 66 59 59 59 60 61
66 61 55 51 38 40 44 46 39 38 38 33 32 42 55 53 89 66 55 61 54 60 65 67 55 46 52 57 52 43 36 25 29 32 44 60 70 70 64 57 54 47 42 50 55 57 57 58 60
67 60 52 48 48 49 49 43 42 40 34 34 35 34 37 68 89 92 77 74 71 63 66 72 70 65 71 75 73 66 50 40 29 31 36 50 62 69 72 69 62 56 46 42 50 55 56 55 58
62 61 52 48 49 49 46 45 43 42 36 35 34 34 33 37 60 74 77 82 86 66 59 63 69 71 74 70 76 78 68 54 43 33 39 47 54 62 68 72 72 65 52 48 47 53 56 58 59
59 53 52 50 49 47 50 49 47 40 33 33 35 34 33 32 33 41 59 71 70 68 66 67 65 68 71 72 74 72 76 71 62 50 38 40 48 56 60 69 72 73 66 60 52 54 62 60 61
56 62 55 54 51 49 47 51 60 39 39 36 32 32 33 34 32 31 33 34 54 64 65 66 65 70 70 70 72 72 75 76 72 70 61 46 40 48 56 62 64 65 66 64 55 63 67 63 65
66 61 74 55 57 49 42 48 43 41 44 43 39 38 37 30 29 29 29 29 28 30 36 46 62 66 67 65 66 70 73 73 74 73 76 76 54 42 51 57 58 61 62 66 66 74 75 68 70
73 81 80 62 58 54 55 64 49 47 44 42 38 38 38 35 30 25 25 27 26 26 26 29 35 56 65 58 61 68 66 63 64 72 76 76 75 61 46 49 58 58 70 74 75 79 82 76 76
88 79 77 64 51 60 65 68 53 42 41 40 36 34 36 35 33 30 27 28 27 27 28 27 28 41 63 66 66 62 61 62 63 62 64 75 73 78 78 51 53 59 77 84 79 87 88 85 81
67 72 70 63 53 54 60 60 51 44 44 42 37 34 32 32 32 32 31 31 31 33 32 31 29 28 37 42 47 42 38 46 58 59 62 62 68 75 80 67 52 65 86 87 73 89 92 90 84
69 74 74 64 54 52 58 55 45 42 44 41 40 37 34 34 31 28 26 25 25 27 29 29 31 32 31 33 34 35 34 35 37 52 55 58 58 60 73 72 68 81 93 88 79 88 87 89 86
76 77 75 69 58 54 60 55 45 38 36 30 28 30 28 29 29 29 29 27 27 26 24 25 28 30 34 34 32 34 36 38 38 41 51 55 54 54 59 64 77 91 90 83 84 85 85 86 88
82 59 61 60 64 72 59 61 48 44 32 32 40 41 40 39 40 38 35 32 27 27 26 25 24 27 31 33 34 35 35 38 34 33 33 42 58 60 60 62 69 65 79 83 80 78 78 82 88
75 57 61 63 69 63 63 63 41 35 32 33 37 40 38 40 41 42 41 36 33 28 26 27 27 26 27 30 30 30 30 31 33 35 40 42 46 62 64 60 61 71 67 78 81 77 81 84 89
56 58 65 70 69 76 60 61 39 33 34 34 36 38 42 42 46 48 48 43 36 32 28 25 30 28 27 28 29 32 33 29 29 30 32 34 39 57 64 67 63 68 69 68 73 80 86 88 90
57 70 88 68 80 74 70 70 45 39 40 38 35 36 44 46 49 53 53 50 46 42 36 31 26 30 32 26 26 28 28 29 45 37 34 42 40 41 44 58 62 65 66 66 68 76 93 93 93
66 68 79 61 57 58 70 73 40 42 37 33 34 36 45 49 53 58 61 59 54 52 50 47 41 31 31 38 36 33 28 28 29 28 30 35 42 54 59 52 56 67 69 69 66 71 94 98 98
70 81 58 83 82 78 56 51 34 36 39 38 35 38 40 48 56 62 65 63 63 66 62 55 50 46 40 40 42 38 35 35 33 30 33 40 51 53 55 62 58 59 66 70 71 74 93 100 99
61 64 78 83 72 60 49 55 38 38 34 39 43 43 42 51 60 69 69 70 71 70 62 62 64 59 53 46 48 41 35 33 31 31 31 32 36 46 58 76 76 67 69 74 86 83 99 100 97
73 80 77 71 75 66 56 36 43 40 37 41 43 40 45 56 72 72 73 74 78 75 72 68 70 71 70 70 61 52 43 35 30 28 28 29 32 41 65 74 85 88 91 99 100 100 99 74 95
65 72 65 72 74 88 82 53 41 44 45 43 42 42 51 71 76 73 77 82 84 85 80 73 68 66 67 66 63 56 47 41 34 30 33 42 46 46 62 87 99 100 100 100 100 100 100 99 84

GFSSGP_850_rhum_036.txt.gz
RH
37 35 34 34 29 25 25 22 22 25 24 20 22 20 18 20 22 27 43 53 63 76 90 52 98 99 93 79 90 85 81 85 87 90 96 92 84 77 70 44 23 87 80 95 97 91 71 70 51
41 37 37 33 30 31 22 20 22 23 22 24 23 21 29 24 44 58 64 54 64 87 90 84 69 45 91 92 91 85 87 92 93 94 83 76 69 61 23 18 35 91 95 97 94 85 61 46 23
43 40 34 31 32 31 23 20 16 22 23 21 19 23 22 32 53 62 52 54 84 89 89 91 44 77 100 97 90 92 93 97 90 83 79 65 54 19 16 18 30 82 90 96 94 62 50 27 25
49 42 38 35 34 26 21 22 22 22 23 20 21 19 34 44 59 68 44 50 86 89 88 53 57 98 98 97 98 96 94 97 96 84 74 54 30 18 17 18 21 32 55 75 60 48 27 34 38
50 39 37 40 33 25 24 22 25 23 21 19 21 19 26 47 48 46 52 55 88 89 89 56 55 54 54 63 72 97 92 92 97 87 71 46 22 21 20 19 23 36 52 50 34 30 40 43 47
44 37 40 44 35 27 26 26 25 22 20 18 20 19 27 38 49 48 50 74 88 92 92 93 68 60 42 50 48 51 80 94 96 97 73 47 24 25 26 26 25 26 29 33 43 48 52 55 56
43 41 40 34 36 33 29 26 25 20 19 16 21 18 28 54 45 45 49 86 80 93 92 75 54 43 39 39 32 30 41 71 96 98 83 40 24 29 32 33 36 40 46 51 73 68 59 56 52
45 38 40 36 39 38 28 28 24 21 17 23 23 18 21 62 45 46 51 54 84 94 94 88 93 65 40 39 34 25 27 45 98 98 96 38 31 31 34 41 44 44 59 67 86 62 57 52 49
53 44 44 41 40 31 28 25 28 28 21 23 24 28 42 37 47 53 58 61 82 85 93 92 86 77 72 93 42 34 32 38 84 91 94 56 81 43 37 40 44 50 62 82 64 55 54 53 55
40 44 36 29 30 30 27 24 26 28 28 25 26 35 31 32 49 60 68 65 69 68 70 82 89 80 67 59 74 42 43 41 59 71 58 88 92 93 91 43 42 53 81 83 60 55 54 55 58
40 36 30 37 33 30 28 28 32 26 28 23 24 36 58 44 56 75 76 66 61 66 63 58 57 71 65 54 69 79 79 69 88 93 89 88 94 90 91 87 52 49 65 70 57 57 57 56 58
46 35 32 35 43 39 32 30 30 29 21 30 36 35 39 76 90 97 91 81 72 68 64 66 66 54 44 60 59 80 77 66 77 88 88 94 96 94 96 96 98 96 84 86 56 58 55 55 54
46 45 41 39 48 45 42 36 30 34 34 37 38 34 36 38 59 83 78 75 60 63 70 68 70 67 59 63 80 81 79 64 56 45 58 92 95 95 97 100 99 98 96 84 49 52 55 56 56
47 47 41 43 43 46 44 40 42 34 35 34 35 33 31 34 36 41 67 80 87 84 75 62 64 70 71 70 72 76 83 80 70 70 55 43 70 74 91 98 98 93 91 64 54 52 54 58 58
53 50 46 46 42 39 43 43 44 35 31 31 28 27 31 33 35 36 38 44 52 69 85 93 67 64 64 66 70 73 75 73 77 75 68 56 54 71 88 95 79 89 87 72 63 55 53 60 61
51 47 61 37 41 43 40 34 32 36 34 31 30 30 32 32 30 33 36 38 37 37 45 65 78 57 62 63 64 63 69 75 76 75 75 73 64 51 57 92 92 89 86 66 67 61 62 68 64
49 44 43 44 44 36 39 32 28 32 38 33 31 30 32 36 34 31 28 27 28 33 35 32 37 43 39 48 63 63 57 62 72 76 71 70 75 76 62 78 93 96 89 64 69 67 70 74 74
49 42 45 38 44 49 48 37 36 39 40 36 32 29 28 31 33 33 36 35 31 28 27 29 28 29 33 69 55 66 60 53 61 67 63 70 73 70 73 70 66 93 82 66 69 73 74 80 82
42 43 44 42 44 45 41 42 37 36 34 33 31 27 27 29 33 36 32 32 32 32 32 30 29 28 30 75 65 54 66 55 54 49 62 65 62 67 72 75 75 66 57 61 64 79 77 85 87
45 45 46 53 46 44 42 44 35 32 33 35 34 33 31 31 31 31 26 24 24 27 29 30 32 31 30 34 62 48 56 61 60 46 44 58 58 58 62 67 74 80 59 57 62 84 81 83 88
53 51 58 49 49 44 44 38 37 34 31 28 32 30 30 31 35 40 42 36 28 26 25 25 28 28 30 31 33 62 71 60 52 41 36 37 50 56 59 55 64 67 72 59 62 84 80 76 83
62 56 55 54 53 46 45 31 35 31 28 33 34 36 38 41 44 49 48 42 35 30 28 26 25 24 27 30 33 66 85 62 38 35 34 34 36 56 61 57 67 63 62 69 69 89 80 77 82
51 50 51 52 55 55 48 46 31 25 30 33 32 38 41 45 50 53 52 44 40 35 30 26 27 25 25 26 31 62 84 84 81 82 53 35 33 38 52 53 56 64 63 65 73 84 82 80 80
47 50 52 52 55 77 49 47 28 26 25 30 31 36 44 45 50 56 60 53 47 42 39 35 30 29 30 30 29 32 65 84 85 92 93 78 62 38 40 51 55 55 65 66 61 69 88 83 80
55 60 85 81 89 64 52 51 28 26 27 26 28 33 43 48 50 58 66 64 50 46 44 43 41 37 32 38 36 32 31 51 88 94 93 90 72 38 35 40 51 57 60 63 70 70 74 88 84
71 62 64 62 50 41 53 44 28 29 30 30 31 34 41 46 52 65 70 71 69 59 57 53 50 48 45 36 35 38 38 37 35 57 80 93 91 91 40 53 64 65 64 61 66 68 72 78 93
86 82 46 60 57 56 33 34 28 30 30 30 31 38 42 48 59 69 71 73 75 76 71 64 58 56 55 51 44 45 42 39 37 39 43 34 58 74 76 52 70 88 95 96 81 69 69 72 83
55 48 68 74 71 53 31 29 25 34 33 31 32 38 44 52 66 71 71 77 83 84 73 72 66 64 65 64 59 50 49 45 39 37 36 36 41 59 58 60 55 69 90 100 100 100 97 96 95
60 62 57 51 54 43 29 23 23 27 27 31 32 40 47 62 71 73 74 79 88 85 79 76 70 65 63 68 66 62 57 51 45 39 35 35 38 39 44 54 68 79 77 89 99 100 99 100 100
53 53 43 50 68 62 55 28 28 27 29 33 37 43 52 72 74 75 76 85 84 77 82 73 70 70 68 69 68 65 59 54 47 42 38 39 41 45 47 55 93 99 100 100 100 100 100 100 100

GFSSGP_850_rhum_039.txt.gz
RH
36 44 40 34 30 24 24 18 14 18 17 16 18 16 14 17 22 33 70 76 67 80 85 57 95 88 76 69 79 81 76 84 88 92 95 91 85 75 66 38 35 78 83 96 93 80 61 44 31
54 50 37 29 31 32 23 16 18 17 18 20 19 18 16 16 34 62 71 72 71 78 86 85 88 98 84 83 87 82 80 90 92 92 91 75 64 56 19 20 90 92 92 97 90 75 53 25 22
39 49 34 29 30 30 24 17 14 18 19 18 17 19 18 29 44 52 74 73 74 75 79 86 59 83 85 90 89 85 90 92 96 93 77 59 47 18 17 22 90 92 94 89 92 66 33 23 33
54 40 34 34 30 25 20 16 13 18 19 18 18 17 27 50 49 63 78 74 74 73 76 74 35 82 94 98 91 91 93 96 96 87 68 44 23 17 18 17 36 75 89 89 77 44 29 31 45
56 38 36 35 29 21 18 18 17 18 18 17 18 17 27 64 66 73 75 72 72 71 79 73 57 100 97 98 94 93 94 96 97 88 68 44 20 18 17 21 24 34 56 52 39 28 38 41 49
47 37 40 37 30 21 18 19 18 18 18 16 17 16 34 66 70 77 77 74 73 73 84 85 75 94 97 100 98 94 91 94 96 97 74 40 20 20 19 19 28 37 36 29 31 42 45 48 49
51 40 43 33 28 24 20 20 19 17 17 16 16 16 31 56 80 81 78 76 78 78 80 85 48 73 61 77 91 71 75 90 95 97 91 44 22 23 24 25 25 27 32 41 53 51 50 47 44
46 43 46 35 30 28 20 22 21 19 17 17 18 17 21 56 61 52 85 80 81 83 79 90 75 61 46 41 41 47 48 75 98 98 95 67 29 28 29 31 34 38 46 59 72 53 49 45 44
46 57 59 42 31 26 24 24 23 21 18 18 16 22 48 65 42 48 54 66 82 84 82 79 79 85 86 86 40 37 29 52 94 96 99 36 47 34 34 39 43 41 52 82 74 53 49 46 47
47 50 43 28 24 27 25 26 20 24 19 16 20 30 56 70 34 58 62 67 85 86 83 79 76 79 80 84 81 44 84 82 94 99 97 86 89 72 69 54 47 49 67 81 65 53 52 52 52
39 40 31 26 28 28 26 25 20 24 20 18 18 22 47 66 75 79 84 86 88 98 91 86 85 81 81 84 89 85 85 92 94 93 96 94 84 90 84 79 42 53 70 75 64 52 52 54 55
41 32 26 24 32 33 28 24 23 24 19 20 23 32 34 55 65 74 88 83 87 90 87 72 92 90 87 86 87 84 83 86 88 89 87 85 85 91 95 90 92 76 88 96 75 65 61 53 54
43 29 29 31 39 36 28 24 22 22 24 30 33 35 32 32 46 63 76 80 87 94 78 73 65 82 96 92 88 87 87 86 86 85 86 83 88 94 95 92 96 93 88 88 90 77 60 55 54
41 35 35 32 40 39 34 27 27 26 25 28 29 29 28 29 31 36 59 72 76 80 94 73 72 68 90 60 76 94 91 92 91 85 86 84 85 91 95 92 97 96 93 90 86 76 61 53 50
43 39 38 33 36 35 39 34 33 29 27 28 25 25 26 25 25 30 34 45 59 64 76 87 91 66 62 68 64 72 96 94 91 90 91 83 83 88 89 88 97 98 98 93 88 79 64 53 49
49 43 50 38 38 36 39 37 26 30 29 28 23 23 21 22 24 23 29 34 36 40 47 66 81 94 96 89 84 62 70 94 94 92 92 92 89 80 83 88 88 98 97 99 95 84 64 54 53
47 47 45 38 35 36 41 35 24 27 27 25 24 22 22 22 24 23 22 27 33 35 37 38 49 69 87 95 96 68 64 67 87 98 96 95 96 92 86 84 88 90 97 98 97 87 68 60 60
43 46 32 34 41 37 39 38 24 27 26 26 23 22 21 22 23 25 24 25 28 31 32 34 35 39 57 75 87 87 61 61 62 79 96 97 96 95 95 90 90 92 93 99 98 86 68 64 63
24 35 28 26 36 41 39 31 26 26 28 27 24 23 22 21 21 28 33 34 34 35 36 36 38 37 39 50 67 83 54 32 48 56 59 99 100 100 97 94 90 91 92 88 93 86 69 70 70
35 32 34 33 34 40 28 33 28 27 26 25 23 24 24 24 25 28 31 36 34 30 33 37 38 40 36 35 43 62 60 34 33 43 55 58 69 84 99 84 82 85 84 93 94 82 72 70 75
35 37 35 40 44 38 40 37 33 25 30 29 28 27 25 25 25 33 37 42 46 40 27 27 30 36 39 39 40 44 70 88 80 52 47 48 64 77 99 94 96 93 89 84 86 84 72 63 74
40 34 41 50 47 36 36 22 30 31 27 27 28 28 30 34 37 42 45 50 52 43 30 28 28 27 26 31 40 45 56 77 89 91 85 72 62 56 94 92 97 98 92 93 73 71 73 69 71
45 44 46 49 50 50 44 42 28 27 30 30 28 33 36 39 44 46 53 57 55 49 34 31 29 29 29 26 27 33 42 60 78 88 86 85 90 58 50 91 100 93 82 88 83 80 69 68 72
43 47 49 49 51 74 44 36 28 26 24 28 30 32 36 38 44 49 55 59 57 61 47 40 37 38 34 29 30 32 41 62 72 78 79 79 86 94 84 72 99 100 95 76 68 88 83 74 75
46 52 76 77 88 60 41 48 26 20 19 23 26 29 36 41 43 50 58 62 63 64 53 52 54 52 52 50 46 52 46 47 65 75 80 84 86 91 89 81 97 100 99 100 96 100 99 83 83
57 52 69 63 59 49 44 45 27 20 23 24 25 31 36 40 45 56 63 64 66 70 70 69 69 68 70 70 63 60 62 61 58 50 59 83 84 83 84 85 70 91 99 99 99 100 100 100 98
87 85 43 49 38 44 34 28 29 25 26 25 27 34 38 42 50 60 64 65 69 72 74 75 75 75 76 78 72 74 72 74 68 58 62 73 83 89 89 90 94 73 88 99 99 98 98 100 100
88 51 73 70 76 45 33 24 22 31 28 27 30 34 40 45 57 63 64 67 74 78 81 82 82 81 78 70 77 78 80 75 68 54 52 61 70 64 97 96 100 98 100 99 99 98 100 99 100
82 94 62 50 50 54 29 24 19 26 29 31 30 37 42 52 62 65 67 70 78 84 86 88 88 73 68 66 66 74 83 84 74 54 48 43 38 37 46 75 96 98 100 100 98 99 100 100 100
48 47 46 54 65 48 51 35 21 24 26 29 34 40 46 62 66 67 68 70 82 84 80 92 94 87 83 77 76 85 88 93 98 66 53 55 55 56 58 60 67 77 97 99 97 100 100 100 99

GFSSGP_850_rhum_042.txt.gz
RH
37 35 46 38 48 40 40 25 15 18 16 16 17 15 20 19 46 73 63 62 65 61 41 36 51 74 76 68 85 79 87 86 88 93 93 76 83 71 55 28 68 73 90 92 82 57 42 27 24
38 54 43 37 49 48 36 21 20 17 19 19 18 18 17 42 50 63 71 68 80 78 54 53 54 65 64 74 85 77 89 87 94 91 90 72 59 43 16 80 90 87 93 94 85 53 24 19 25
39 53 45 46 47 45 36 21 18 20 18 18 17 17 18 43 50 62 72 70 77 82 74 65 95 91 71 81 84 82 89 88 96 87 77 53 30 14 16 89 87 90 90 84 83 44 22 29 38
42 49 41 49 42 34 28 18 14 19 18 18 18 21 40 54 58 64 69 72 74 78 83 66 69 82 89 93 89 88 91 94 96 94 69 38 16 15 15 52 75 89 90 85 65 29 27 38 44
53 52 51 47 42 29 22 18 15 19 17 17 17 23 55 64 69 70 72 72 72 74 79 74 55 80 97 95 87 87 95 94 96 87 61 30 17 17 17 18 36 62 62 58 37 32 36 42 44
60 50 62 55 39 28 21 18 16 17 17 16 17 25 58 67 72 72 70 70 69 72 78 69 46 98 98 97 97 93 92 94 95 98 69 30 19 18 18 22 25 35 46 36 29 40 42 45 45
69 72 68 53 39 29 23 19 19 18 17 17 16 21 59 74 77 75 72 71 70 75 78 56 37 66 96 98 99 98 87 92 95 97 78 42 21 21 20 20 28 30 28 31 39 42 42 40 41
62 78 68 48 46 38 21 19 19 18 17 17 17 32 69 83 61 76 74 76 75 78 81 70 42 40 36 40 55 84 77 88 96 97 80 53 25 25 25 26 27 30 35 38 45 42 41 40 40
66 83 86 69 54 38 20 23 21 20 19 17 17 34 60 76 44 60 76 80 80 82 79 79 69 59 42 38 43 45 49 63 95 98 96 49 24 26 32 34 37 34 37 43 50 43 43 43 46
60 83 75 64 44 38 25 23 23 22 22 19 18 31 55 57 43 41 60 72 80 83 80 78 82 83 80 82 53 34 29 34 68 93 88 49 31 35 32 34 39 43 46 53 55 43 44 45 48
51 61 51 46 38 37 29 26 25 24 28 19 17 27 53 65 42 43 45 57 80 82 82 78 75 78 79 84 81 55 36 39 52 79 75 70 63 89 68 50 44 39 41 48 54 44 44 47 42
50 46 41 35 34 35 32 26 24 22 23 20 22 26 40 58 64 64 52 71 58 62 83 83 84 81 80 79 84 70 70 69 66 75 87 72 70 87 85 74 56 38 39 48 47 50 50 44 48
51 38 32 32 37 36 32 30 26 24 24 26 28 29 31 34 49 59 69 76 80 86 72 72 84 88 84 82 79 86 85 82 78 79 78 87 76 85 87 79 88 69 64 76 88 68 60 48 50
39 40 35 29 38 38 33 28 25 24 25 27 30 29 30 30 31 40 63 70 78 82 83 64 60 69 77 81 84 86 87 87 84 80 80 84 82 86 86 77 84 91 90 89 89 81 68 54 47
40 45 40 35 39 38 37 40 35 25 25 26 27 28 27 26 25 28 32 46 68 71 76 71 57 58 73 96 77 83 91 89 91 85 84 83 80 87 89 88 83 87 84 89 91 85 75 62 51
46 46 58 40 38 36 41 48 33 27 28 29 27 26 24 24 23 24 26 31 36 51 58 73 75 73 68 76 70 74 80 90 95 93 91 86 81 76 83 89 85 88 89 87 95 91 83 71 54
59 63 57 47 36 39 44 44 31 26 30 30 28 27 23 22 21 22 23 22 28 34 39 44 55 75 83 82 82 69 60 78 84 94 91 91 90 85 82 82 89 83 88 79 96 97 91 78 61
70 64 45 47 43 43 48 49 34 26 26 25 24 23 21 22 22 22 24 23 23 27 31 35 36 40 57 78 84 89 85 61 59 76 82 96 79 84 88 87 86 87 86 88 90 95 97 84 66
41 45 45 38 38 45 47 44 38 30 26 28 27 25 22 22 20 20 24 27 30 30 32 32 33 34 36 38 60 79 80 58 57 44 59 65 91 94 82 77 78 88 88 87 86 93 98 85 75
34 38 42 31 40 42 40 41 33 29 28 28 28 25 23 21 21 26 29 30 29 28 30 30 32 34 36 36 38 50 63 72 62 53 44 44 63 84 88 76 66 67 87 93 93 90 87 86 77
36 42 38 41 42 40 43 46 35 30 27 27 28 29 29 27 26 26 34 41 42 38 32 30 32 34 35 38 40 41 43 51 84 75 48 32 38 62 71 94 86 68 75 86 94 85 87 88 80
44 32 33 44 56 61 41 40 34 33 35 29 28 27 26 28 32 38 43 47 53 49 34 30 28 28 28 30 39 41 42 42 50 78 78 69 60 50 54 80 90 100 87 77 77 86 80 96 88
42 45 49 51 59 60 50 57 33 37 36 34 31 30 33 35 39 44 51 53 56 53 42 36 34 34 34 28 29 28 31 36 42 62 77 88 86 76 65 74 88 99 99 99 77 86 87 77 86
44 52 52 50 56 92 58 49 44 41 33 34 33 34 36 39 43 48 54 58 59 56 49 46 45 45 47 49 40 36 35 32 35 50 64 76 85 85 86 83 92 98 98 99 97 100 99 99 90
50 61 92 94 95 87 46 53 40 26 27 31 35 34 36 41 43 48 57 61 63 61 56 54 56 54 57 57 54 52 56 56 49 46 71 74 69 81 85 84 90 89 88 94 96 93 98 99 98
62 58 84 72 90 74 45 66 40 25 25 27 28 32 35 39 44 54 61 63 64 66 68 66 65 67 70 69 64 62 61 64 63 61 53 57 75 80 84 87 89 91 95 96 94 92 92 95 98
72 88 46 68 39 78 58 37 30 28 29 26 28 31 36 41 47 58 62 63 64 70 73 76 76 77 76 70 66 70 69 68 67 64 61 60 62 66 73 82 92 92 98 99 97 93 88 91 96
83 61 78 91 88 63 46 39 40 37 34 29 31 35 39 43 52 61 63 65 67 76 79 77 79 81 76 72 68 69 75 82 82 79 64 55 50 61 59 56 65 90 90 97 98 97 96 96 97
92 96 78 61 73 87 58 39 26 33 31 31 34 35 41 46 59 63 66 67 73 80 80 81 87 80 75 71 71 75 87 90 97 81 61 53 50 47 44 44 55 75 97 98 99 99 100 100 100
70 74 72 90 77 67 70 54 22 30 33 32 34 39 43 55 64 66 68 68 72 79 81 83 91 90 82 81 80 83 90 97 99 99 72 58 56 57 55 55 58 72 97 100 100 99 97 99 98

GFSSGP_850_rhum_045.txt.gz
RH
35 34 44 47 51 58 55 38 20 20 21 19 18 19 27 39 56 69 66 63 63 49 30 38 64 68 71 70 72 79 82 80 80 90 77 73 79 59 31 59 73 91 90 81 61 31 22 22 21
36 38 47 42 60 61 53 32 20 25 20 16 15 16 36 62 57 64 65 75 66 50 43 40 49 62 71 78 74 83 86 86 92 87 82 62 50 22 84 84 76 94 93 84 64 22 18 22 23
39 45 52 57 63 64 51 28 24 21 18 18 19 18 41 55 68 66 70 80 76 58 49 42 49 52 59 81 72 85 87 89 88 88 67 41 17 21 83 88 90 91 85 79 48 22 27 34 37
45 49 46 60 61 46 40 33 23 21 18 18 19 52 51 60 60 66 72 79 80 68 54 56 94 58 69 71 76 90 90 95 95 77 46 20 13 15 73 76 85 90 84 73 34 26 35 40 43
55 53 67 61 55 44 32 22 20 22 19 18 18 46 69 69 52 66 74 78 77 71 64 56 86 72 89 89 84 95 94 95 96 79 39 17 14 13 19 56 65 75 71 44 27 31 37 39 42
68 69 85 72 54 38 29 21 16 20 18 17 32 55 70 74 67 72 74 74 74 74 78 74 67 88 100 98 88 94 92 92 95 85 50 19 16 16 16 19 32 37 44 29 32 36 38 39 40
67 85 82 71 62 48 33 21 18 19 19 18 18 64 78 76 72 72 73 72 75 76 77 76 66 86 98 99 99 94 95 92 95 72 61 28 19 18 18 22 25 30 27 29 36 38 37 36 37
67 76 73 71 67 62 40 22 18 18 18 17 26 63 87 78 75 73 72 71 73 75 74 64 49 69 88 87 93 88 92 90 92 87 61 36 21 20 20 21 22 24 28 34 37 38 36 37 37
86 92 86 72 66 55 40 45 21 20 20 24 45 50 59 74 76 75 75 75 76 78 76 74 44 45 46 43 44 44 61 78 94 78 32 41 26 24 25 25 27 29 32 39 39 38 38 38 40
90 86 76 53 50 56 61 41 28 22 22 31 51 61 61 58 77 77 78 80 81 80 80 79 64 59 41 38 35 35 38 42 54 49 45 36 24 26 28 30 29 32 32 39 42 38 39 39 40
71 73 59 50 46 59 68 47 39 24 26 23 53 33 39 42 51 71 80 83 85 84 82 80 75 74 64 43 51 41 29 26 32 45 49 56 30 34 30 30 34 35 34 36 42 38 38 38 40
60 54 54 52 54 82 73 51 40 26 26 24 22 31 41 40 47 44 63 78 82 85 82 81 80 80 77 65 65 62 46 35 34 40 51 60 57 50 63 59 51 43 38 41 49 46 43 40 37
62 48 48 47 49 56 66 62 38 27 27 26 39 52 53 51 53 56 52 53 74 82 82 80 80 81 81 74 71 63 58 55 56 52 58 66 72 64 81 80 69 58 48 37 46 51 51 47 45
50 52 46 39 40 38 38 39 36 26 25 25 25 29 30 33 38 54 65 62 72 76 71 78 78 80 81 82 78 74 74 76 78 76 69 74 75 74 79 80 75 71 71 62 60 65 70 55 46
45 56 48 52 43 41 36 39 42 28 27 27 27 26 26 27 30 32 45 62 65 64 62 58 62 65 71 72 85 78 83 88 90 87 84 79 79 79 79 85 82 78 78 76 79 88 88 82 65
52 52 67 50 44 40 34 50 39 28 28 27 28 28 27 26 24 24 25 30 45 65 70 69 71 72 67 66 67 83 84 87 88 88 92 88 78 75 76 84 85 83 82 91 88 83 92 90 78
60 76 66 52 42 43 44 53 37 30 30 28 28 29 28 26 24 23 22 24 27 35 41 52 66 70 73 78 80 72 74 91 91 86 90 87 85 86 82 74 71 74 80 89 95 86 83 93 88
83 68 58 59 48 45 52 54 41 32 29 31 30 29 27 26 24 22 23 24 23 25 34 36 37 41 46 64 74 81 78 76 83 86 82 80 84 90 90 85 84 79 77 79 86 91 85 90 93
59 59 53 50 42 51 52 54 43 38 29 29 26 26 25 23 22 21 22 24 24 24 26 32 34 36 43 69 79 79 74 69 62 69 72 74 76 78 88 88 86 90 84 77 80 88 89 88 95
56 60 57 41 43 49 55 55 46 40 37 28 27 26 26 25 24 27 28 28 27 28 27 29 32 33 34 36 38 42 49 60 68 63 63 65 65 71 75 80 91 87 91 87 84 85 90 89 90
54 47 47 48 46 42 45 50 44 37 32 28 27 27 28 26 27 28 28 29 29 28 26 26 26 28 29 30 34 36 39 43 46 53 59 60 63 59 60 71 76 91 92 96 91 82 72 73 84
59 37 39 55 59 67 45 69 37 36 35 35 31 29 29 28 28 40 42 39 38 30 29 27 26 26 28 31 35 38 39 41 42 43 46 50 61 61 63 64 71 77 76 85 93 98 89 79 74
48 46 55 57 64 62 54 66 52 38 45 38 33 28 28 36 37 42 42 41 46 39 40 36 35 35 32 30 30 30 30 33 39 42 45 55 71 79 72 72 67 72 76 77 86 86 100 90 84
50 56 59 62 71 91 66 65 54 50 38 37 35 36 37 40 44 45 47 53 58 58 55 50 47 47 48 45 44 38 34 33 33 32 34 41 53 66 80 78 74 76 85 87 85 81 92 100 97
55 62 95 94 96 90 54 67 52 36 34 35 43 37 36 38 41 51 57 60 60 60 58 59 58 59 59 55 55 57 55 52 52 50 47 41 65 78 84 86 88 90 87 88 93 87 82 87 98
76 61 87 87 98 84 50 74 50 30 28 32 33 34 38 42 46 50 56 60 60 62 64 64 64 66 67 67 64 64 64 67 62 61 58 58 53 64 70 78 70 73 84 84 92 100 94 92 96
92 96 60 70 56 83 65 48 34 32 38 35 37 39 39 40 51 55 60 62 62 64 68 70 71 72 71 66 62 61 65 69 70 67 64 60 57 56 56 65 74 75 78 82 84 84 89 89 88
78 66 81 94 100 70 64 49 50 41 38 37 40 36 39 46 50 57 62 64 63 67 73 76 76 72 68 68 67 66 69 80 85 77 73 65 60 57 54 56 62 61 61 74 82 83 89 89 90
87 95 79 73 85 89 63 50 32 36 35 35 39 36 42 46 56 62 64 65 65 68 72 76 76 70 68 68 69 70 76 89 91 94 81 63 53 49 48 47 46 47 58 81 79 74 88 95 93
75 82 74 91 80 76 82 57 29 36 34 30 34 39 44 50 59 63 65 66 67 68 72 74 74 74 73 73 79 79 81 90 97 96 88 74 61 55 53 53 50 47 50 62 96 98 100 100 93

GFSSGP_850_rhum_048.txt.gz
RH
38 36 36 39 53 63 62 47 24 22 22 19 20 40 54 52 54 50 66 65 65 62 36 56 76 71 77 74 70 74 78 78 77 78 69 62 64 40 48 72 89 88 78 63 21 17 23 31 40
39 41 42 43 64 67 60 39 31 25 20 19 18 35 50 69 67 69 74 69 62 58 36 53 82 75 71 73 79 78 78 81 78 72 51 44 38 52 72 77 92 92 84 55 18 17 19 22 32
41 38 45 59 69 66 54 31 26 22 20 18 19 40 52 68 65 69 61 65 66 44 38 68 79 86 79 71 82 80 84 85 74 49 33 23 20 82 86 89 94 89 72 47 20 26 27 27 28
45 46 47 67 68 52 42 39 26 23 19 18 29 65 62 65 62 63 67 69 72 50 50 76 88 70 76 71 76 82 88 86 68 52 23 13 24 82 82 94 87 73 65 37 25 34 38 40 37
45 52 73 68 62 50 41 33 26 23 20 19 27 65 75 69 69 64 74 77 76 60 59 70 74 61 77 70 79 87 86 91 65 68 24 13 13 22 47 61 67 62 54 31 29 34 37 40 44
54 60 90 86 65 46 38 31 26 22 20 30 61 71 77 75 77 74 79 82 77 62 64 67 79 72 89 74 89 92 89 93 76 69 33 16 14 14 23 33 35 40 36 27 31 33 35 37 39
59 72 76 78 67 56 41 40 24 22 20 20 49 81 79 74 76 76 79 78 75 71 68 66 68 92 99 96 89 96 93 90 76 59 36 19 17 16 16 18 23 29 27 28 32 34 34 34 35
52 67 68 73 70 74 46 48 39 20 19 31 44 86 86 75 76 77 77 77 78 80 81 79 70 72 89 96 99 98 92 92 80 50 28 23 20 18 20 23 27 27 26 31 33 32 33 34 34
58 88 81 71 70 63 57 62 41 29 25 28 46 61 64 73 75 76 77 82 84 82 77 69 69 52 42 50 67 87 91 84 80 62 33 19 18 21 21 22 23 26 32 36 36 36 35 36 37
79 80 70 53 48 58 68 66 56 44 35 63 66 67 72 75 76 76 79 79 80 78 77 76 51 44 39 42 42 46 72 75 67 49 49 35 24 22 22 24 26 31 34 43 44 41 40 40 42
88 73 54 53 50 66 85 72 59 48 34 45 58 72 75 68 69 77 78 78 76 79 79 79 65 55 42 33 37 40 41 45 50 54 50 50 29 24 24 27 29 29 31 35 48 45 43 42 44
80 61 55 60 58 84 74 69 70 55 36 26 23 29 47 51 54 65 77 82 84 85 82 79 79 75 70 58 51 51 44 33 33 38 44 48 52 32 32 33 35 36 34 36 39 45 43 43 44
63 57 55 66 73 76 73 84 75 73 43 40 28 50 46 46 40 51 75 82 86 85 84 80 78 79 75 73 63 58 56 45 43 42 42 50 55 52 45 52 59 61 51 40 36 43 48 47 42
63 52 57 66 69 70 78 80 81 65 42 44 55 63 56 59 58 60 56 69 86 88 85 79 74 72 71 72 75 65 59 60 62 66 65 63 59 59 59 61 63 71 69 64 59 49 54 62 58
56 66 59 53 50 46 52 72 90 56 46 34 38 31 32 33 35 45 55 64 61 64 71 83 80 75 69 71 71 72 70 68 71 77 80 79 72 67 67 67 69 74 81 75 69 68 62 61 70
55 58 72 55 48 41 39 56 56 51 45 30 30 29 28 26 27 31 34 40 46 63 68 68 69 76 79 75 72 72 75 70 69 77 81 82 84 80 77 75 70 76 85 87 82 77 82 77 76
63 83 68 60 47 46 42 50 37 36 37 33 29 29 28 27 26 25 25 26 30 36 47 55 67 77 78 79 76 75 75 76 76 79 81 82 88 85 82 81 76 77 84 87 84 82 88 88 83
78 77 58 63 54 50 50 55 43 36 35 32 29 30 29 29 27 27 26 25 26 29 35 42 52 58 58 75 85 83 84 80 78 85 87 85 83 84 87 87 85 84 84 82 83 87 92 93 89
64 60 61 53 48 50 52 54 47 38 39 35 31 31 29 28 24 23 24 25 24 24 24 36 39 39 39 44 64 79 82 81 76 77 82 84 81 85 86 85 88 91 86 84 86 87 89 92 90
61 65 62 46 44 50 55 53 49 44 45 38 32 31 28 26 26 26 26 27 26 26 26 32 35 35 36 39 45 68 76 69 66 70 77 76 76 78 80 79 80 84 90 88 86 83 88 89 85
63 66 61 51 50 45 48 53 50 46 43 39 36 29 26 26 27 28 30 29 29 30 29 29 29 30 33 34 36 40 42 47 53 51 47 58 68 72 74 74 75 77 81 84 84 87 88 84 78
68 46 43 55 63 77 44 77 44 42 42 43 36 32 29 28 28 29 29 28 29 30 28 26 25 24 27 30 32 33 36 39 41 43 44 44 43 44 49 64 76 72 74 79 81 83 84 94 95
57 44 57 59 68 64 56 63 51 40 48 40 38 33 30 29 29 33 37 37 35 32 29 27 28 28 28 29 28 29 30 31 32 35 39 42 43 45 53 68 74 77 73 62 72 83 90 91 96
53 58 66 72 74 86 68 66 65 46 40 40 38 33 30 36 42 43 46 45 41 40 41 39 40 41 38 36 35 35 35 35 34 33 32 30 31 36 46 52 70 67 79 87 86 84 84 88 88
54 65 93 89 94 84 66 72 44 42 38 38 40 34 36 43 47 49 51 53 50 51 51 50 50 49 48 47 48 51 51 50 46 44 42 39 40 37 42 65 74 72 79 88 88 88 93 92 93
66 65 88 88 97 83 59 79 49 40 32 30 31 36 41 42 45 48 51 56 57 56 56 56 58 57 56 55 56 58 58 57 58 59 60 59 56 53 49 54 74 80 81 90 91 85 88 88 91
85 95 63 74 66 88 70 59 41 36 40 42 41 40 38 40 45 53 56 58 59 59 59 61 63 65 65 63 60 58 60 65 66 65 68 69 67 64 62 59 60 64 72 78 76 70 82 86 90
85 68 85 92 96 72 64 66 54 45 51 44 46 45 41 44 51 58 60 61 62 62 62 66 70 70 67 63 61 64 64 67 72 74 74 71 65 61 60 58 55 55 59 61 62 65 81 87 92
95 99 94 74 80 90 80 61 41 41 45 45 44 42 42 48 54 59 62 63 65 66 68 72 73 73 71 68 66 67 72 77 82 88 77 77 68 58 55 54 52 50 49 48 48 54 61 66 78
81 84 71 90 88 82 83 63 36 36 37 38 40 38 43 48 55 59 62 64 65 66 68 69 73 75 74 73 71 74 78 82 87 92 78 78 77 69 64 61 58 55 52 52 53 56 64 73 96

GFSSGP_850_rhum_051.txt.gz
RH
38 36 42 40 54 66 64 50 35 26 23 20 21 32 41 56 52 48 59 50 57 36 45 60 57 55 61 72 72 82 83 80 78 72 57 58 47 44 65 87 80 71 58 18 16 28 41 48 75
39 42 50 43 65 70 60 44 36 27 22 35 42 44 58 66 67 70 68 61 59 40 44 92 61 57 75 69 69 82 90 83 73 56 37 36 30 57 72 87 86 80 52 17 16 16 21 29 40
40 44 45 61 73 68 54 35 36 25 22 21 33 47 60 69 65 65 68 66 70 56 42 69 73 75 74 72 77 79 88 77 58 33 24 18 64 74 74 90 85 81 43 20 22 22 20 27 35
48 48 49 70 69 55 45 43 37 30 21 22 41 69 69 70 62 59 63 66 65 58 44 81 70 71 72 75 82 84 78 72 63 35 19 15 73 83 81 85 80 49 36 24 31 33 31 28 32
48 50 73 72 65 55 45 37 36 32 25 22 41 78 77 70 69 66 68 73 64 43 50 75 89 78 76 71 84 76 81 62 48 38 16 14 31 53 70 68 63 44 31 26 30 33 35 36 40
62 60 83 83 71 59 51 44 39 26 23 49 61 76 79 71 73 76 75 80 67 44 54 82 80 69 79 70 80 82 80 63 42 35 18 14 18 31 47 45 47 42 31 28 30 34 36 38 42
77 75 84 80 72 62 48 49 44 41 24 29 56 87 83 85 86 82 82 82 78 62 51 52 67 66 81 71 84 91 88 75 44 30 17 16 16 20 37 36 37 36 29 30 32 34 36 38 39
65 62 63 68 63 67 54 53 50 52 28 38 55 86 82 83 83 91 86 79 77 69 65 58 64 90 98 90 92 99 91 80 66 42 24 16 16 18 18 25 27 32 28 33 36 36 38 39 40
71 81 74 62 59 54 53 65 59 48 47 52 61 64 63 78 80 92 88 83 82 85 84 81 68 70 75 75 98 100 92 89 78 62 46 24 19 18 20 22 26 28 27 35 38 40 40 40 39
89 86 68 51 44 44 50 69 66 59 53 56 71 69 75 77 79 84 85 84 84 84 82 79 81 74 64 56 76 87 91 86 73 61 57 38 28 22 22 22 23 24 27 31 36 38 38 40 42
85 83 56 51 48 49 72 67 68 64 58 44 49 80 76 76 77 78 81 79 76 78 78 78 74 66 53 48 52 61 71 77 69 61 53 55 43 28 23 24 26 28 30 33 39 40 38 38 40
92 65 54 51 53 59 69 63 72 68 62 54 52 73 69 62 70 74 78 79 79 80 76 79 67 57 49 44 46 47 48 50 49 45 47 48 47 32 22 24 27 29 32 34 35 41 45 40 40
69 65 56 59 67 69 68 72 81 79 57 49 46 52 58 58 63 72 73 78 80 79 78 79 76 74 73 66 54 57 54 53 43 37 38 41 45 48 45 36 44 50 55 48 44 38 42 48 48
68 62 66 72 76 70 80 82 84 59 57 48 49 56 62 58 65 76 77 71 71 78 80 81 79 72 68 69 70 67 67 63 55 53 50 43 53 57 57 54 53 57 59 61 62 61 48 49 56
67 75 82 81 78 80 67 83 91 56 53 53 47 64 58 57 54 49 53 64 72 75 78 77 78 76 74 70 70 71 72 72 65 65 73 73 72 71 70 68 65 64 67 74 80 76 70 67 67
63 78 82 77 70 62 84 87 78 68 66 56 52 39 36 35 41 48 55 60 62 71 71 74 75 78 78 77 76 75 75 72 70 67 74 79 81 84 80 73 69 71 76 80 86 87 86 78 81
68 91 77 68 59 58 67 56 57 60 52 53 54 43 31 28 29 30 31 37 43 44 61 71 78 82 79 79 81 83 83 80 76 76 74 78 80 78 80 77 70 77 83 83 85 89 92 85 83
81 83 70 68 60 55 66 49 44 55 60 52 45 46 33 30 28 27 27 27 29 36 39 50 66 77 82 87 91 90 89 86 85 80 76 78 84 86 85 84 85 87 92 92 90 88 88 88 85
69 67 71 55 53 54 56 52 47 41 43 43 40 36 33 30 30 28 27 27 26 27 29 33 40 49 72 81 73 85 82 84 86 82 80 82 86 89 90 93 93 92 90 90 94 97 94 92 92
64 69 65 50 50 55 57 58 49 43 42 37 34 33 32 31 29 27 25 24 26 26 26 26 28 41 45 48 45 51 59 67 71 81 85 85 87 89 90 89 85 80 86 85 86 90 94 91 93
66 71 65 60 52 48 53 59 54 47 45 43 38 35 33 33 28 26 25 27 28 28 28 30 33 35 36 37 37 39 43 53 63 64 64 66 73 80 86 84 86 87 86 88 81 86 89 91 89
72 51 54 58 64 78 50 84 55 47 48 46 39 38 35 33 31 28 27 28 31 31 31 30 30 29 29 29 30 33 36 39 41 42 42 43 46 46 50 51 53 58 65 72 74 75 74 84 88
59 49 50 59 70 62 57 70 57 39 46 45 39 37 33 34 32 29 29 31 32 32 31 30 29 29 29 29 30 32 33 34 34 35 36 37 40 42 43 44 45 49 62 66 71 72 65 80 86
55 61 66 75 73 91 67 66 61 48 38 32 34 30 30 32 32 32 36 36 35 35 36 34 32 32 34 34 36 40 43 41 38 36 35 35 34 34 36 36 38 42 52 71 74 83 89 86 85
54 64 94 93 94 92 68 68 46 42 40 37 35 29 30 34 32 40 42 42 42 42 44 46 44 44 44 44 46 48 50 49 48 46 46 47 46 46 45 45 48 55 68 67 70 92 92 92 90
66 61 88 86 95 82 69 83 52 42 36 33 31 30 33 37 42 44 47 48 48 50 52 52 50 49 50 51 52 52 52 53 53 53 54 58 59 58 55 53 54 58 70 80 90 96 98 88 79
85 90 60 79 72 90 74 62 44 40 41 37 38 38 37 48 51 51 52 54 55 56 57 56 54 53 56 58 59 58 55 54 56 61 64 66 65 63 62 60 58 58 60 67 75 86 92 92 89
79 72 83 92 93 81 66 68 55 41 43 48 53 50 49 51 52 55 58 58 57 59 59 59 59 62 63 64 64 61 60 61 65 69 73 73 73 68 60 56 55 56 57 56 60 67 77 79 83
94 98 89 77 84 82 88 66 50 40 41 52 51 47 46 46 49 54 57 59 61 62 64 63 65 66 66 68 68 65 67 71 76 83 84 80 75 76 65 61 59 57 55 54 54 55 59 66 73
83 86 87 90 93 89 86 74 35 42 41 45 46 44 40 42 46 54 56 58 61 65 66 66 67 69 72 74 72 71 73 78 83 87 88 82 78 78 74 69 64 60 58 56 55 55 54 55 65

GFSSGP_850_rhum_054.txt.gz
RH
40 35 38 41 50 67 60 46 41 34 24 21 20 25 36 55 49 45 60 37 36 29 48 59 56 52 55 60 68 74 82 87 76 61 48 48 42 56 84 72 61 50 16 14 29 43 48 78 81
43 39 46 43 65 67 57 47 39 34 25 50 44 53 58 68 67 64 63 50 34 28 51 59 58 54 76 64 75 82 82 86 59 45 40 31 51 65 84 80 77 52 16 14 14 23 33 46 53
46 51 44 62 76 67 47 40 43 35 27 30 41 54 64 72 66 58 59 53 55 29 46 53 57 74 70 66 70 85 83 77 61 41 29 30 60 69 86 80 80 39 19 21 19 19 22 28 33
60 51 50 66 69 54 45 45 40 38 24 23 35 65 74 75 70 61 57 64 66 34 59 81 66 83 68 67 70 84 81 62 49 34 23 71 67 70 86 70 60 34 23 29 30 28 27 30 34
58 49 68 74 65 56 49 45 48 37 29 24 51 72 77 75 71 62 53 63 67 46 62 92 76 79 70 75 81 86 70 57 50 30 17 74 81 85 70 66 52 33 26 30 34 35 34 36 41
62 56 77 82 70 59 53 50 43 49 30 39 63 79 76 74 74 68 66 66 68 53 59 81 76 74 72 82 87 78 75 58 41 22 15 48 74 58 56 49 43 36 28 29 34 36 38 40 44
76 77 82 79 71 61 51 47 55 57 46 29 70 83 81 82 81 79 77 74 62 56 62 70 91 83 77 82 86 81 80 72 53 27 15 15 21 47 50 42 41 36 28 31 34 36 37 40 41
73 74 78 71 68 63 56 53 56 58 50 43 64 76 85 79 86 88 85 79 66 62 66 66 72 66 81 72 88 99 97 82 66 41 21 16 15 15 19 32 36 32 28 32 35 37 38 38 41
69 90 74 68 60 61 62 59 58 52 53 62 80 97 86 74 87 91 88 86 82 77 69 67 64 66 79 80 88 99 100 90 83 64 37 21 18 18 18 20 26 31 26 32 34 34 34 35 35
86 83 77 52 44 44 66 60 62 55 57 44 48 77 100 91 84 89 88 85 84 83 85 82 68 72 84 79 96 98 95 87 82 71 54 31 24 21 21 23 26 28 27 33 36 36 36 36 37
90 83 62 51 45 48 69 65 68 67 63 58 68 54 74 100 77 74 80 83 80 84 87 83 85 83 82 72 74 74 65 86 80 69 55 50 42 29 22 24 24 26 28 32 36 39 40 38 37
89 75 63 54 47 53 68 64 62 68 58 57 59 54 44 99 72 59 67 76 80 82 79 80 80 80 78 72 66 67 67 68 69 59 54 52 49 45 28 25 28 30 32 34 36 38 44 46 41
82 72 64 60 57 57 63 69 71 60 43 55 58 48 53 75 62 58 70 75 79 79 76 74 71 56 59 57 54 56 55 50 48 48 46 44 47 51 54 40 35 34 38 50 51 48 41 40 47
68 66 62 67 69 68 68 75 74 51 50 57 56 46 52 72 60 58 72 80 77 76 77 74 70 68 69 67 61 53 58 61 62 57 43 51 46 53 58 61 52 53 60 65 66 66 66 60 51
70 68 86 87 80 84 68 80 90 51 58 63 61 51 49 69 70 58 63 72 74 70 70 70 72 74 73 70 70 69 69 69 65 59 58 65 62 68 70 70 67 65 68 71 74 77 77 74 74
84 81 88 86 82 74 61 79 60 61 73 72 64 51 48 50 66 65 66 70 73 78 73 72 75 77 79 77 75 74 74 73 70 69 68 71 75 77 77 73 70 75 78 79 79 80 83 85 86
78 94 86 94 81 89 69 76 60 68 73 76 57 51 42 42 38 57 63 60 62 61 63 70 76 77 81 84 84 83 85 85 82 81 81 77 78 80 78 75 75 82 84 87 89 88 88 86 86
89 89 80 82 85 85 79 56 59 71 63 51 51 42 42 42 34 32 32 39 57 50 55 68 76 76 80 84 88 90 89 89 87 83 82 84 85 86 88 87 87 89 92 90 88 90 92 95 95
76 70 78 61 60 69 88 73 50 76 70 54 42 51 42 40 36 36 30 28 28 32 43 48 60 68 76 77 79 83 81 81 82 82 83 83 82 86 91 94 95 95 95 93 91 94 95 93 94
69 74 73 54 57 68 64 70 52 50 64 59 41 38 40 39 37 34 30 28 27 27 27 31 41 49 55 64 77 87 77 77 80 82 84 87 88 86 90 92 94 96 93 92 87 87 90 92 90
68 75 68 68 60 51 62 65 58 47 45 44 44 45 41 39 32 31 30 28 26 26 28 27 28 31 39 57 65 70 65 58 60 72 84 89 92 91 91 90 88 88 92 86 84 84 86 88 80
74 59 57 66 69 86 54 91 62 52 49 49 45 40 38 34 33 34 30 28 25 28 30 31 32 33 34 36 36 37 37 37 39 42 50 59 58 56 57 56 55 59 61 64 67 74 77 78 80
62 54 55 62 73 65 60 76 65 48 59 45 39 40 37 33 34 33 31 30 29 30 31 31 31 31 30 30 29 29 29 30 32 35 36 37 38 38 40 42 43 44 46 47 50 59 77 78 83
60 62 67 73 74 92 72 76 68 53 43 37 34 36 33 30 32 33 31 35 34 33 33 32 31 31 32 32 32 33 35 35 35 34 34 34 33 33 33 33 34 34 35 38 43 59 86 89 89
55 68 97 94 96 92 70 77 53 42 37 34 31 26 25 27 34 35 33 37 40 39 38 37 38 39 40 41 42 44 45 45 45 45 45 45 46 47 47 46 44 43 42 46 54 59 64 80 90
63 63 88 86 97 82 70 85 62 41 37 35 31 28 30 29 28 35 34 37 41 43 45 46 48 48 49 49 51 52 52 52 51 50 50 52 55 57 56 58 59 58 55 56 66 85 82 83 93
80 77 56 80 76 90 76 66 45 40 39 38 35 33 32 33 32 37 46 50 51 51 53 54 54 54 56 57 58 59 58 57 55 54 57 61 64 64 63 60 60 63 63 63 66 74 87 80 87
73 70 81 91 89 88 72 69 58 41 40 38 41 43 39 41 47 57 60 58 56 55 56 57 58 59 60 61 61 63 63 60 58 60 66 70 70 69 69 64 58 58 59 61 62 64 69 71 88
90 96 85 77 82 86 83 69 50 43 37 40 42 42 44 51 59 61 61 61 61 59 58 58 61 61 62 62 62 65 67 65 66 71 76 77 76 71 74 67 61 60 59 57 58 59 63 69 76
79 86 81 92 87 92 88 65 41 40 44 41 44 47 48 54 57 58 58 60 61 62 62 63 62 62 63 65 68 70 71 72 76 81 84 83 83 79 76 74 69 66 64 62 61 60 60 60 63

GFSSGP_850_rhum_057.txt.gz
RH
47 38 41 41 41 48 44 39 40 33 25 27 24 29 31 46 38 31 53 32 34 34 47 58 55 57 62 64 69 68 73 79 74 59 50 41 50 80 62 60 43 15 14 31 40 39 63 76 72
46 41 52 42 50 49 42 44 39 35 30 35 42 55 54 56 61 57 51 32 29 30 45 51 52 56 61 61 69 79 83 83 53 41 35 49 62 83 76 74 47 17 15 15 26 31 48 57 54
47 53 48 53 59 48 37 43 43 40 35 34 37 58 67 73 67 61 47 37 28 28 44 52 55 56 66 65 75 80 83 75 51 34 32 54 66 80 79 73 39 21 22 19 18 21 28 33 35
47 61 49 52 61 49 41 45 46 40 28 27 32 60 76 77 73 64 47 40 38 35 46 63 60 80 75 70 81 82 78 57 46 26 49 60 66 82 79 49 34 23 26 27 25 24 27 31 36
59 55 61 66 56 52 47 48 48 46 33 30 53 62 80 80 78 73 52 40 40 49 56 77 74 82 70 75 83 84 71 50 37 25 80 90 72 99 59 41 33 24 27 29 29 29 30 34 40
65 60 66 66 60 56 52 52 46 54 41 39 64 78 82 77 76 72 67 61 42 51 70 80 89 83 72 78 89 87 74 41 32 20 43 98 99 97 40 39 34 27 26 31 32 32 34 37 40
67 73 70 65 60 58 51 53 57 55 44 45 73 72 82 83 81 75 73 70 59 54 90 82 82 80 79 82 95 80 76 51 39 23 15 26 40 77 49 43 37 28 26 30 33 36 37 39 39
71 65 71 68 62 58 54 57 59 50 52 63 86 89 86 96 93 86 84 80 72 66 79 83 77 79 80 86 92 96 85 72 57 34 20 17 17 17 27 34 37 32 27 31 34 34 34 34 34
77 86 75 70 61 59 61 55 61 51 55 57 68 81 96 94 98 93 85 78 71 72 83 90 90 85 83 78 89 99 100 89 76 53 29 20 19 19 18 22 26 29 28 34 36 36 34 35 35
76 88 71 52 48 62 67 59 61 56 48 52 53 52 69 100 100 95 84 78 77 83 87 91 88 76 80 83 95 98 98 87 78 66 54 32 22 21 22 23 25 28 27 31 36 37 37 37 36
91 76 58 54 50 48 61 64 65 59 56 59 64 54 49 90 99 93 87 79 74 74 72 76 77 74 79 79 90 99 96 66 74 68 61 55 45 31 23 23 24 26 27 32 36 42 44 41 39
83 84 63 56 52 58 59 57 62 61 52 52 51 54 49 57 98 85 81 71 78 81 85 89 86 85 88 88 84 85 75 60 62 66 63 57 53 50 36 25 27 28 31 34 36 39 43 48 50
81 76 74 67 56 56 54 68 60 59 49 52 52 46 48 53 76 78 69 65 76 80 80 79 82 85 92 88 80 71 66 58 56 56 53 50 48 50 49 45 29 30 32 39 53 54 55 47 46
78 69 70 66 62 63 61 67 71 51 50 52 49 44 48 51 70 72 67 63 72 81 82 79 75 64 72 68 59 55 54 53 55 60 58 44 48 46 50 57 58 48 54 63 68 71 70 70 67
74 74 84 82 74 75 65 72 69 62 57 54 51 45 45 48 50 69 69 63 61 67 82 80 77 76 70 69 69 62 59 63 65 65 63 57 64 54 61 68 71 72 71 70 72 74 77 78 81
79 78 86 83 83 82 60 62 54 66 57 52 53 49 44 45 44 53 67 66 62 70 83 84 81 78 76 73 71 69 70 71 70 71 72 70 72 78 77 76 74 78 80 81 80 79 78 79 82
85 90 84 95 81 79 73 71 54 54 56 48 44 48 48 47 42 39 60 65 67 67 77 80 84 83 83 82 82 82 81 81 82 80 79 79 77 78 81 81 80 84 85 86 85 85 88 88 88
92 92 82 90 89 84 78 61 66 74 59 46 49 49 51 50 42 36 37 56 68 68 69 70 78 79 82 84 85 86 87 84 82 79 78 80 81 81 80 81 85 90 92 90 91 94 95 94 94
70 79 75 66 81 83 82 72 58 76 77 63 41 51 54 50 38 37 33 31 32 60 61 53 58 65 73 75 76 78 76 77 80 80 82 84 86 88 88 88 88 90 94 93 92 95 91 86 88
67 76 78 58 76 76 82 82 65 64 73 55 50 44 50 48 36 38 37 36 30 29 34 38 40 48 55 59 61 64 67 72 76 76 80 83 85 88 91 93 88 90 92 92 92 95 94 91 87
71 70 74 67 70 58 70 70 64 57 63 63 54 49 44 38 35 36 36 33 32 29 28 27 30 35 45 52 56 60 66 75 80 68 66 74 79 82 85 92 92 91 91 87 86 93 93 91 89
75 61 61 71 72 87 59 79 66 54 55 54 57 50 50 42 40 42 39 32 31 29 28 28 29 32 35 38 44 57 63 60 53 49 46 47 55 70 82 82 76 70 66 62 64 69 76 88 89
66 58 62 67 71 67 64 77 65 54 58 50 46 45 44 42 39 38 34 30 31 30 31 33 33 34 35 35 35 35 34 33 32 32 33 34 37 40 41 41 42 42 43 45 47 49 51 60 85
61 62 66 72 70 81 68 75 67 54 46 44 44 41 39 36 35 35 34 32 31 33 35 35 34 33 32 32 31 30 30 30 31 33 34 36 37 37 36 36 36 36 36 35 35 36 39 46 75
57 66 93 87 88 83 70 76 55 46 36 35 32 28 28 35 35 33 36 34 31 32 36 38 36 36 34 34 34 35 36 36 37 39 40 40 42 45 46 47 48 48 46 44 43 42 45 55 56
61 60 83 86 91 81 70 79 52 47 39 35 33 32 32 30 28 28 37 36 33 32 37 40 40 40 39 39 40 42 45 46 46 46 47 46 46 47 48 50 51 52 54 55 55 54 58 85 86
72 74 57 78 78 79 68 60 44 40 34 31 30 30 29 27 29 31 31 39 40 44 44 46 45 43 42 45 48 50 52 54 54 53 51 52 54 55 55 55 54 53 54 57 61 62 71 92 100
68 64 78 86 87 83 68 63 48 36 32 34 33 30 30 33 30 36 38 48 54 55 54 51 49 50 52 52 53 55 55 57 59 59 59 62 64 63 62 60 61 58 56 56 59 64 66 73 91
81 89 84 72 74 78 76 57 47 43 34 37 38 36 38 42 40 44 54 65 64 59 55 54 55 56 58 58 58 58 58 59 62 64 66 69 70 69 67 65 67 63 60 59 61 62 65 68 71
74 79 74 83 84 88 81 70 40 40 39 40 37 43 42 47 56 62 67 66 63 61 58 58 58 61 62 62 62 65 67 69 69 72 76 78 78 77 74 73 73 71 69 68 65 65 65 66 67

GFSSGP_850_rhum_060.txt.gz
RH
56 41 38 42 29 25 23 22 25 24 20 21 24 19 22 30 22 30 56 37 61 65 92 80 80 74 81 79 79 80 80 77 70 61 47 54 78 53 61 35 14 18 41 42 43 55 66 73 65
52 40 46 46 29 29 22 21 24 23 25 28 37 36 29 28 62 62 65 34 46 68 91 92 77 75 80 78 76 75 80 69 43 34 45 58 81 72 70 34 17 15 20 31 36 52 57 55 42
57 43 41 33 26 26 20 26 26 28 30 33 32 48 46 50 76 79 79 42 80 84 88 90 67 82 81 68 74 83 75 53 32 33 50 69 79 80 67 34 21 21 19 20 26 31 34 31 32
67 56 45 34 27 22 22 31 34 27 24 29 30 39 69 82 82 88 61 82 88 89 91 56 60 79 69 72 80 81 78 51 31 38 54 69 82 83 47 33 23 26 25 23 22 25 27 30 35
67 46 36 35 26 24 30 36 37 28 24 28 37 43 62 94 82 91 84 65 87 88 91 74 73 88 71 78 84 74 62 46 25 72 85 69 91 98 45 36 26 27 28 26 26 27 30 34 35
54 40 38 37 32 37 37 41 37 30 27 38 42 46 70 88 81 92 82 90 91 90 94 98 73 91 75 79 88 77 63 38 22 51 97 86 97 98 47 41 32 26 29 29 29 30 32 34 36
47 42 38 31 31 43 41 48 35 31 30 44 60 46 80 99 99 100 99 89 94 94 98 100 86 84 77 81 90 83 66 50 28 20 60 86 98 98 49 46 39 28 28 30 31 32 31 33 36
46 39 46 37 39 39 46 53 56 34 47 70 80 78 72 94 100 100 99 99 91 98 100 100 97 96 83 85 97 86 80 65 40 25 19 22 27 25 33 42 41 34 29 30 32 33 32 33 35
57 65 61 50 37 45 51 46 59 56 51 56 60 62 67 91 99 99 97 98 95 100 97 100 99 100 100 91 97 99 98 85 63 36 22 19 23 21 21 28 29 29 28 32 34 34 34 35 36
66 73 54 37 34 46 55 43 50 45 45 52 49 52 66 98 100 99 100 98 96 100 100 99 99 100 100 99 95 98 98 95 84 62 42 27 20 20 22 22 24 29 30 31 35 35 36 37 38
63 69 43 38 49 48 50 54 57 41 43 47 51 52 54 85 100 98 100 98 96 92 98 98 96 98 100 100 98 98 98 99 90 72 58 48 36 26 23 24 26 29 30 31 35 39 42 42 41
73 50 45 42 51 50 46 54 52 50 45 58 57 49 52 63 89 98 100 100 98 99 98 99 98 97 98 100 98 98 98 95 95 74 69 63 56 51 41 27 26 28 29 34 36 45 43 44 48
81 54 55 45 53 50 49 50 48 48 46 59 54 48 50 51 66 92 99 96 97 99 98 98 97 95 97 96 100 100 98 90 94 76 67 60 55 52 52 47 30 30 32 35 43 52 62 60 52
61 63 62 58 62 51 50 45 60 40 49 54 56 52 50 44 52 74 85 91 83 90 98 97 94 97 97 94 97 98 96 97 93 64 51 51 48 49 50 57 60 49 44 50 62 77 74 71 71
52 62 62 74 64 59 54 56 55 38 44 52 50 48 47 44 46 50 77 74 70 74 77 87 87 95 96 96 84 92 81 80 78 68 62 54 50 58 51 59 67 70 66 64 66 70 72 75 78
52 54 72 61 65 59 68 56 40 41 53 47 43 44 48 38 42 45 54 65 61 66 64 75 85 85 82 86 72 75 74 66 67 70 70 64 63 71 72 73 75 76 76 76 77 79 82 80 87
58 49 52 61 54 58 57 45 42 50 54 45 42 36 38 42 46 45 42 60 63 60 65 74 80 84 87 86 85 81 77 75 75 75 74 74 73 72 76 80 80 81 82 85 84 85 85 93 99
54 45 42 51 66 58 62 56 43 52 50 36 35 34 35 40 45 44 43 46 62 60 62 67 76 82 80 85 86 84 82 81 78 76 76 78 80 81 83 81 81 86 89 88 89 89 95 96 96
35 43 48 43 59 65 63 61 53 45 58 47 38 34 34 40 41 41 41 35 45 62 62 65 66 66 71 68 73 76 72 76 79 80 80 84 85 87 87 87 89 89 87 88 95 98 98 94 97
44 44 46 52 60 60 56 60 50 44 50 54 43 34 35 38 39 40 40 40 36 31 43 57 55 62 68 67 73 74 75 76 82 81 84 86 87 88 87 87 86 87 88 84 85 92 95 94 93
46 46 55 49 70 58 57 58 52 47 46 48 48 38 32 36 39 41 40 39 34 33 30 29 44 54 55 58 56 61 62 61 67 69 79 73 69 72 77 78 81 84 92 91 96 97 97 99 98
64 44 51 64 55 51 48 36 34 36 44 45 44 45 41 46 48 46 42 39 36 34 30 30 28 31 42 49 52 56 63 62 56 69 70 68 58 55 55 60 70 86 93 88 79 71 72 89 95
55 48 47 51 41 45 51 47 27 35 36 34 36 38 43 44 46 43 38 37 36 32 29 30 29 29 34 44 48 48 50 47 42 39 38 36 34 34 34 37 41 43 43 43 42 43 45 50 58
48 50 49 47 45 64 40 45 32 31 30 26 30 34 38 38 40 36 36 36 36 34 31 30 30 32 36 39 38 35 33 32 31 30 30 30 30 31 33 34 35 36 36 35 35 34 34 35 39
45 47 72 70 78 57 52 54 30 31 29 27 26 27 31 34 36 38 40 36 35 34 32 30 31 34 35 34 33 32 31 31 31 32 33 36 39 41 41 42 43 44 45 46 47 46 46 45 48
54 40 53 60 55 45 54 52 31 29 32 30 31 29 29 32 30 31 39 46 36 35 33 35 35 36 37 36 35 35 36 36 37 39 42 44 46 48 48 49 50 51 51 52 55 57 58 61 76
59 65 42 57 55 56 38 41 31 26 28 25 24 25 25 29 32 32 28 30 46 37 36 37 42 42 41 40 40 40 40 44 46 47 47 48 49 51 51 51 52 52 52 52 54 61 63 68 99
52 45 60 70 75 56 42 40 25 28 27 24 23 26 29 32 33 31 27 28 39 50 46 48 50 50 47 45 44 44 46 49 52 53 53 54 54 56 58 57 54 54 55 55 55 59 64 76 98
63 63 60 49 54 56 43 29 26 27 26 27 27 32 38 42 48 40 42 45 52 56 61 60 57 55 54 52 52 54 53 54 55 59 63 64 64 63 64 63 62 63 63 61 60 60 64 70 78
54 53 48 57 70 60 55 42 27 27 29 31 32 36 42 46 62 50 73 69 60 63 61 60 58 56 55 56 59 59 58 58 60 64 67 72 75 74 73 73 69 69 70 68 66 63 63 64 66

GFSSGP_850_rhum_063.txt.gz
RH
59 66 50 46 38 23 24 22 16 23 19 16 19 19 25 30 24 48 60 58 69 81 86 67 70 74 78 79 82 83 80 81 74 59 76 77 49 58 28 14 27 56 62 83 93 63 63 58 38
82 62 53 33 37 25 20 16 21 18 18 22 24 25 23 36 53 71 65 63 66 79 93 95 71 74 77 80 81 77 77 64 43 46 70 81 66 65 27 17 16 29 32 36 53 56 49 37 30
85 58 37 28 28 26 18 14 18 19 24 27 21 31 34 50 63 62 67 68 64 77 88 92 74 72 75 77 74 78 66 42 34 47 68 85 78 65 29 22 20 18 24 30 37 36 33 31 34
68 49 41 34 29 21 15 17 16 20 20 26 24 27 62 82 68 70 74 66 66 74 80 81 79 79 75 65 73 75 70 39 31 49 69 85 80 59 34 25 26 23 21 24 27 30 32 33 32
80 42 35 35 28 19 15 22 24 18 17 24 27 33 58 96 90 82 76 66 67 70 89 73 86 88 75 73 74 68 42 29 32 53 66 86 89 67 36 25 27 27 26 26 28 31 34 34 34
55 42 41 36 28 19 19 30 26 18 18 29 31 34 77 97 99 90 83 69 69 71 94 91 78 86 76 85 82 63 42 24 53 79 80 97 96 92 36 28 25 28 29 29 30 32 35 34 34
51 44 48 31 27 25 29 36 29 19 19 34 44 33 86 93 99 96 84 70 70 72 87 98 83 90 78 90 93 74 44 26 31 85 86 92 97 96 41 36 28 26 29 30 30 31 32 32 32
53 38 44 34 30 31 29 42 43 29 28 59 59 49 71 85 99 89 82 70 72 74 86 95 100 94 79 86 95 86 66 39 23 38 60 75 59 32 34 36 33 28 28 30 30 31 31 31 32
56 77 58 42 32 32 37 40 51 46 42 49 51 53 62 86 98 95 97 86 82 79 91 95 100 99 97 99 96 96 89 68 44 26 25 30 71 32 25 29 30 30 26 29 30 31 31 32 34
75 83 63 36 27 36 40 34 44 42 44 43 45 56 97 92 99 100 100 93 90 91 96 89 91 95 94 99 95 95 97 83 77 55 26 62 76 81 75 24 26 27 29 27 32 34 35 36 48
63 63 49 36 42 40 43 41 42 38 43 41 44 47 64 99 98 96 90 96 89 90 90 92 92 90 94 99 96 94 97 98 97 94 89 74 48 26 22 29 23 26 30 27 32 34 40 63 43
76 48 42 46 46 43 42 44 42 38 42 48 47 47 48 79 98 96 94 92 83 79 90 91 93 95 89 93 91 91 96 98 93 94 94 90 72 46 58 56 62 60 72 67 88 86 85 71 44
69 57 42 48 50 43 46 45 40 42 43 50 51 48 45 54 75 91 95 94 91 86 85 85 95 97 94 92 92 90 94 88 86 92 96 94 92 58 59 70 60 68 72 75 79 82 82 84 82
59 77 58 53 58 48 48 46 45 38 40 44 47 45 45 46 52 77 92 94 97 94 89 91 94 96 88 94 93 94 81 82 83 87 93 95 94 91 79 87 76 70 61 73 78 86 91 92 91
50 76 78 52 65 41 48 56 56 41 33 42 43 41 45 44 46 50 72 91 96 97 99 98 98 98 95 97 95 91 83 83 83 86 91 96 96 93 91 89 89 87 84 77 84 89 92 94 94
51 62 96 56 57 50 50 52 43 44 40 36 38 39 36 42 42 46 46 77 91 92 95 98 99 98 95 96 98 92 86 85 86 86 90 97 95 74 92 94 95 96 96 96 96 96 96 95 94
56 58 91 78 49 47 51 48 37 51 45 43 38 37 34 35 41 44 46 44 79 89 94 69 83 82 90 92 92 93 94 93 88 88 92 96 92 82 75 96 97 97 97 98 98 98 96 94 94
50 42 40 65 55 51 54 46 41 41 40 39 36 35 33 31 34 40 44 39 60 84 92 84 74 80 81 91 98 96 97 96 95 92 93 95 96 90 87 95 97 98 98 98 97 98 98 98 98
28 31 27 34 43 54 62 60 51 35 41 41 33 30 30 30 31 41 43 42 41 68 87 92 69 72 79 79 84 98 95 96 97 97 98 92 94 98 94 96 100 97 100 99 98 97 99 98 96
27 33 35 31 52 50 49 54 40 35 37 38 37 34 29 28 30 42 42 39 38 39 68 90 90 71 72 76 74 85 92 96 98 99 96 82 86 88 90 90 95 100 99 100 100 97 100 100 99
30 34 41 46 44 49 42 42 40 37 38 36 40 39 33 28 30 35 43 37 35 37 35 53 80 78 88 75 92 99 95 88 77 84 79 77 80 80 80 83 86 91 100 100 100 100 98 98 98
42 29 30 37 54 54 41 40 34 31 34 39 38 38 38 35 35 41 42 37 36 36 33 32 29 37 49 54 68 69 69 70 80 93 85 57 66 75 73 64 58 53 57 65 80 88 92 99 98
40 32 39 48 48 34 47 44 24 21 29 31 33 35 36 37 36 42 46 43 36 37 35 32 31 30 28 30 46 58 67 80 76 60 62 54 42 38 35 34 33 33 36 38 41 42 43 43 50
40 46 46 44 38 60 38 35 24 24 24 19 20 24 28 32 37 40 44 43 42 35 34 32 30 31 31 30 34 47 57 60 52 42 36 34 32 30 30 29 30 30 32 34 36 37 37 37 39
37 45 64 62 70 57 36 34 25 24 23 22 22 24 25 27 30 33 36 40 44 37 35 34 33 32 32 36 39 42 41 38 34 32 31 32 34 35 33 32 35 36 38 40 43 46 47 47 51
40 34 47 54 51 41 41 45 27 21 21 25 24 24 25 25 26 28 32 37 43 45 40 37 35 32 32 33 36 37 36 34 33 33 34 35 36 40 39 41 42 44 44 45 46 48 53 56 91
52 61 38 47 37 40 36 28 25 24 23 22 21 22 22 22 25 28 33 26 40 45 37 34 36 34 33 36 38 38 39 38 38 37 39 43 44 46 47 49 49 48 47 47 50 53 65 99 78
48 37 50 59 65 42 36 29 23 23 24 22 23 27 30 33 33 33 35 39 32 51 52 58 49 46 42 39 43 44 42 40 42 46 50 51 53 53 54 56 57 57 55 53 56 57 58 72 88
56 58 49 43 48 53 34 26 21 22 24 25 26 31 34 37 39 42 48 52 53 65 66 70 72 69 53 50 49 46 45 48 51 52 53 55 57 60 63 63 63 63 62 64 64 60 62 69 93
45 44 41 51 63 45 48 38 21 22 24 26 29 32 32 35 48 54 54 60 71 71 79 74 68 56 52 50 48 48 49 50 52 54 55 56 62 64 70 70 70 69 69 71 72 70 70 71 74

GFSSGP_850_rhum_066.txt.gz
RH
43 47 55 55 62 47 40 28 22 35 25 21 20 23 33 54 58 72 54 62 56 37 44 55 63 71 75 76 80 78 73 65 52 89 67 46 51 17 14 29 40 62 92 96 77 53 45 29 30
54 74 53 52 51 48 32 21 23 28 20 18 24 25 32 63 62 57 60 64 60 35 49 66 70 78 76 77 76 72 62 42 46 85 66 60 48 19 15 21 30 35 79 71 49 40 30 30 30
76 73 46 51 49 45 32 19 22 19 21 23 21 36 52 76 61 61 62 68 80 52 54 74 80 85 85 76 70 62 40 35 46 75 81 70 47 24 20 17 22 26 36 37 33 29 30 30 29
79 68 52 47 40 31 26 16 18 22 22 24 23 60 66 84 74 74 63 69 81 79 85 73 80 85 83 72 67 50 35 33 49 72 79 72 48 27 24 22 20 21 23 25 26 29 31 30 29
76 56 56 52 42 26 19 20 20 23 20 22 27 46 75 72 79 75 63 66 76 85 91 74 78 86 76 77 69 53 30 31 48 67 80 78 46 30 25 25 23 22 22 24 26 29 30 31 31
73 57 54 52 41 27 20 25 24 23 17 25 26 31 91 71 76 74 64 65 71 78 85 73 82 87 75 83 71 46 28 30 52 65 86 80 53 35 26 24 25 24 24 24 27 30 30 30 30
79 60 65 46 37 30 31 30 28 25 19 34 42 48 94 66 69 72 67 66 70 81 84 73 82 84 82 88 73 50 26 43 58 71 95 90 80 38 33 27 26 26 26 26 26 28 30 30 32
71 67 56 56 40 31 35 36 41 36 46 46 55 66 89 78 45 70 70 70 70 82 81 87 84 78 84 93 87 62 37 31 81 78 87 83 50 31 35 30 27 25 27 28 28 29 30 30 31
69 80 67 56 45 35 39 44 45 40 46 48 51 60 77 74 55 71 74 69 77 80 82 86 86 89 84 92 96 84 62 31 38 62 63 62 48 26 26 29 26 27 25 27 28 29 30 31 32
79 82 67 45 38 44 38 39 45 43 46 47 62 92 85 93 80 90 77 70 84 78 84 84 85 91 88 96 93 91 84 63 37 27 24 49 85 64 28 26 25 26 27 25 30 31 32 32 32
72 73 61 49 46 36 38 38 40 44 48 43 47 67 95 96 90 83 82 84 77 77 75 87 85 89 87 85 97 91 75 85 93 74 40 66 70 71 44 31 24 24 27 28 29 33 38 36 39
86 60 49 54 50 44 42 40 40 41 47 45 47 48 76 93 90 100 97 80 68 80 93 81 83 85 81 85 88 86 84 96 97 97 90 81 57 39 34 49 42 33 32 33 47 48 73 67 44
84 56 52 51 61 48 41 42 43 47 48 46 47 46 51 79 91 88 87 92 91 82 79 75 81 82 80 83 85 87 86 82 91 92 87 93 85 66 56 58 59 52 58 60 68 65 66 77 79
67 62 51 67 72 73 46 45 44 41 42 45 47 44 45 52 74 86 93 87 80 85 90 90 81 82 84 86 86 85 78 81 85 90 92 84 96 84 61 84 68 56 52 48 54 63 86 84 85
57 75 76 74 80 56 46 51 54 40 39 40 45 44 44 45 49 70 80 89 86 80 78 82 83 86 87 90 86 84 83 81 82 84 88 89 84 90 83 75 88 72 66 62 67 74 79 81 79
59 70 90 64 78 79 53 71 48 41 40 45 42 42 40 41 44 48 61 88 86 89 92 89 87 90 91 87 82 80 80 82 84 85 88 91 84 78 80 76 70 82 90 86 80 78 81 84 87
63 89 83 77 70 84 74 62 45 42 48 49 45 39 38 36 40 43 47 57 88 91 92 95 93 95 91 81 87 87 91 87 78 83 88 93 83 77 70 77 85 88 90 90 91 87 93 96 96
65 79 81 77 73 91 80 57 51 48 53 51 43 40 38 37 36 40 45 43 65 83 91 87 89 84 90 87 90 89 91 82 82 90 90 90 85 86 84 82 89 97 96 97 97 95 92 91 91
48 53 92 79 71 88 75 59 44 45 52 51 43 40 39 39 33 36 44 43 51 78 89 89 74 73 81 83 83 91 86 97 92 90 93 94 96 95 94 88 98 98 98 98 99 98 95 94 92
39 44 48 66 62 67 58 63 53 46 47 38 39 38 34 35 33 37 40 40 40 52 83 92 86 72 75 77 81 85 90 91 91 95 98 98 91 93 96 95 94 98 98 96 96 98 91 90 90
33 35 48 76 68 85 59 64 54 46 44 36 37 38 36 33 31 35 37 39 40 42 54 82 94 81 72 76 80 86 92 93 93 92 97 97 100 98 88 80 89 98 99 95 97 98 97 92 86
43 31 44 54 62 75 50 59 51 41 40 40 38 37 39 40 36 40 43 42 39 40 43 50 88 97 80 73 75 71 62 81 85 88 88 85 60 66 72 79 79 70 60 56 54 59 76 94 95
39 31 43 51 54 46 57 61 37 34 40 44 41 37 36 37 37 36 41 43 39 37 35 34 34 50 84 71 62 54 69 84 90 96 94 84 68 66 51 42 36 34 32 31 31 33 36 41 45
40 45 50 52 57 82 49 53 41 35 32 29 38 37 36 35 36 34 40 42 40 39 38 35 33 31 32 44 75 54 54 69 73 79 80 70 48 34 32 30 30 29 30 31 33 35 37 39 43
48 55 86 87 88 76 42 48 38 29 24 25 27 27 27 31 32 33 39 40 43 42 38 37 35 32 29 30 33 48 45 43 46 57 48 38 34 33 32 30 32 33 36 40 43 46 48 51 52
59 48 77 63 81 65 40 52 37 28 23 24 24 23 25 26 26 28 33 39 40 40 39 37 35 34 33 31 32 39 35 39 42 37 35 36 36 37 34 35 38 42 44 46 47 48 49 54 59
52 70 43 60 37 73 54 35 28 29 28 24 22 25 28 26 24 25 28 28 37 45 42 41 38 37 36 33 36 38 36 33 37 35 34 34 36 38 41 43 46 48 50 51 50 50 51 55 63
61 44 62 84 69 50 43 37 39 36 29 29 34 33 35 36 37 37 31 32 29 42 47 47 46 44 44 46 42 43 33 34 35 34 36 38 40 43 46 48 50 52 53 53 52 52 53 58 70
62 82 55 53 69 84 57 44 27 30 31 35 35 32 33 36 40 39 43 42 38 40 53 55 60 59 58 54 52 53 54 41 38 40 42 43 44 48 50 52 55 58 59 58 59 56 60 62 75
63 48 48 76 73 64 68 54 22 32 31 26 31 32 33 35 36 43 42 44 46 53 62 66 72 70 65 58 54 52 47 44 43 45 47 48 54 53 57 58 62 65 64 66 67 67 70 70 70

GFSSGP_850_rhum_069.txt.gz
RH
43 50 59 55 66 68 62 38 25 42 42 34 23 32 70 73 70 68 75 68 68 57 50 56 62 69 76 76 74 70 57 70 87 54 40 31 13 21 20 41 78 96 81 55 35 27 27 29 52
41 75 65 56 66 68 51 32 29 30 28 28 29 39 59 70 61 71 80 77 53 42 50 61 69 73 76 77 69 62 48 71 81 50 49 25 15 19 29 30 49 62 42 30 28 26 28 26 59
46 80 56 72 64 64 50 25 26 25 22 25 32 35 58 73 63 68 75 82 46 45 55 70 76 77 80 76 61 40 39 59 81 68 51 28 20 16 19 20 25 29 28 26 25 27 27 26 56
57 73 61 65 61 47 35 26 21 29 23 23 31 55 64 82 66 81 82 76 55 53 64 77 80 82 79 72 52 32 40 50 79 77 49 29 22 20 17 20 23 25 26 25 27 26 26 26 29
71 67 86 77 64 35 31 24 24 24 25 24 36 69 64 80 74 75 84 80 67 57 77 79 85 84 79 72 54 35 39 49 71 80 50 29 22 22 20 19 20 22 24 25 27 27 27 28 28
75 64 77 83 62 41 31 21 22 24 22 24 41 63 74 60 55 69 87 78 78 78 76 80 84 82 78 78 51 32 35 47 65 81 61 35 25 22 22 21 21 23 24 26 27 27 28 30 31
92 88 80 55 52 43 35 29 36 37 26 41 38 89 82 69 42 64 76 80 78 86 87 77 86 78 78 78 50 30 33 47 60 86 87 42 30 27 25 25 24 24 24 26 27 28 28 30 32
76 80 73 71 54 47 34 31 34 40 54 52 52 93 95 71 58 64 74 79 81 82 85 72 85 74 81 75 54 29 45 55 57 88 86 37 33 29 26 25 25 26 26 26 27 27 29 30 31
84 89 78 68 62 51 39 43 38 43 50 54 60 69 57 63 52 67 76 77 81 81 81 73 86 74 84 77 66 41 32 77 73 88 82 58 41 30 28 27 26 25 26 27 28 28 29 30 31
92 84 72 50 54 56 44 40 40 49 52 87 81 77 73 62 57 68 80 80 87 86 76 77 86 83 86 82 72 63 36 32 63 67 57 44 54 40 31 28 27 26 26 27 29 30 31 31 32
82 79 65 56 54 51 50 43 42 51 55 53 89 78 83 53 49 58 41 47 78 82 82 77 80 84 87 86 74 68 56 39 31 26 25 62 60 57 40 32 23 24 25 26 26 30 34 38 36
96 69 55 60 53 58 50 41 43 50 49 54 56 66 88 76 54 58 67 77 76 80 76 75 81 86 86 85 86 86 72 58 48 64 46 53 54 54 34 31 35 29 29 30 32 36 39 42 46
83 74 62 54 56 64 59 45 52 51 47 47 62 61 86 86 79 71 79 73 70 78 78 75 82 79 83 82 84 82 84 73 71 86 83 70 68 49 42 44 42 37 31 32 37 40 49 48 64
68 70 67 65 67 83 81 56 49 52 46 43 45 59 70 86 85 84 83 76 77 78 72 80 81 74 76 80 81 84 85 74 90 89 91 84 66 62 56 54 56 48 44 46 46 51 62 76 78
64 83 77 79 73 75 85 75 57 51 47 47 44 46 47 59 82 86 79 73 75 72 71 79 82 78 77 80 81 82 81 81 84 86 91 89 79 66 61 58 59 60 57 58 56 62 72 78 81
70 72 92 86 88 83 78 80 61 47 43 46 45 44 44 46 56 68 79 82 84 90 81 83 83 81 79 82 85 78 82 78 77 82 86 88 82 72 63 58 64 69 71 74 76 74 72 75 80
80 85 83 90 84 83 89 83 56 48 45 43 45 44 43 42 44 46 51 71 83 84 85 81 81 81 82 88 88 80 79 82 82 83 86 88 87 79 68 63 70 75 81 86 86 86 88 93 94
83 86 74 89 84 81 83 84 64 46 47 42 40 42 41 40 43 42 40 49 66 75 78 84 85 84 85 86 85 83 78 82 84 83 86 87 88 83 76 78 80 87 94 95 97 98 94 90 89
56 64 84 68 72 75 87 83 67 56 51 51 44 39 37 37 37 42 44 40 50 69 73 78 89 88 90 89 85 81 83 84 86 79 85 92 93 92 89 88 90 96 98 97 96 95 92 88 85
57 84 86 77 75 70 81 82 73 58 57 54 50 48 45 39 34 39 43 44 46 47 60 64 67 72 77 85 83 81 82 80 83 82 91 87 94 97 98 98 95 98 98 98 97 98 90 87 88
63 71 79 76 74 75 81 90 88 59 49 45 46 44 40 38 36 36 42 43 41 47 47 59 57 64 65 73 81 84 85 88 91 93 92 91 95 94 97 100 100 100 99 96 96 98 99 94 89
62 43 55 73 89 100 83 91 71 54 53 51 42 40 40 40 37 35 37 38 41 40 40 60 64 59 64 70 68 72 80 79 72 79 86 95 96 82 84 86 79 90 98 94 79 75 76 90 69
51 48 63 76 87 65 75 71 48 53 60 54 47 38 39 38 40 38 40 37 40 40 40 44 64 65 57 63 69 70 65 67 65 68 84 86 77 69 66 73 92 88 58 39 33 32 33 36 40
55 56 62 66 65 85 63 61 52 55 50 48 45 39 38 37 37 36 38 42 43 41 40 39 41 74 67 62 62 62 63 60 56 67 74 71 68 79 80 52 37 32 30 30 31 33 36 39 42
53 63 95 88 84 76 45 54 53 33 33 35 47 40 41 39 37 36 39 42 42 42 40 39 37 38 46 47 54 57 53 52 57 67 82 79 77 70 40 32 31 31 31 32 35 39 43 46 49
54 52 79 82 92 70 46 53 38 31 30 25 25 26 26 26 27 33 38 43 43 40 40 40 38 37 35 33 38 44 44 48 49 54 69 68 48 37 30 31 31 34 34 38 42 43 44 46 48
57 74 46 61 53 81 59 42 32 32 32 35 35 32 34 29 26 25 27 30 38 44 44 42 41 38 36 35 33 34 43 47 58 44 43 34 34 32 34 32 34 37 38 44 46 48 48 48 48
58 48 63 83 65 59 62 46 45 38 41 43 44 39 36 34 33 31 27 26 31 32 39 46 46 44 41 41 43 47 37 43 49 48 43 33 33 36 37 37 41 42 44 49 51 52 50 50 51
70 73 61 64 77 83 60 50 32 38 43 48 41 35 36 36 36 36 35 32 34 33 34 42 48 50 48 47 47 54 48 51 49 48 53 46 39 37 40 40 46 49 52 54 56 58 57 55 55
66 62 58 78 73 74 76 56 38 38 41 37 35 36 38 38 37 37 39 41 40 42 43 53 57 56 57 58 57 58 57 54 52 50 51 47 44 40 43 49 54 56 56 58 63 67 64 63 62

GFSSGP_850_rhum_072.txt.gz
RH
75 54 64 58 68 70 66 46 32 39 51 34 31 51 68 70 67 70 81 68 70 56 68 68 68 70 75 75 67 58 71 86 65 34 18 12 17 62 90 94 94 82 59 27 22 25 38 59 63
74 58 78 62 80 76 57 36 31 36 34 31 39 58 68 69 72 84 92 84 75 56 67 70 66 73 76 71 65 58 90 73 41 38 15 15 18 30 64 94 89 58 30 22 24 27 44 51 60
71 69 70 74 82 73 47 32 27 24 33 38 37 55 69 75 80 86 85 94 73 57 78 67 71 75 71 69 56 56 88 69 46 32 18 15 20 18 30 48 38 25 22 23 24 26 45 58 68
70 72 70 72 81 54 38 26 23 26 31 37 32 79 68 92 93 92 82 87 67 57 81 74 75 76 74 66 42 46 81 68 49 33 21 18 16 18 19 20 22 21 23 24 25 25 35 46 56
80 83 91 88 78 44 38 30 24 28 28 31 32 78 61 77 96 91 86 72 58 64 76 81 82 80 73 59 38 46 70 83 60 37 23 21 18 18 19 20 20 21 23 24 26 26 27 30 36
88 76 91 82 69 51 37 27 23 26 24 36 38 71 87 55 65 99 90 76 58 68 81 85 87 82 75 52 39 45 58 92 82 45 26 22 22 20 20 20 22 24 25 27 28 29 30 30 30
94 94 81 71 63 50 40 28 28 27 28 40 50 77 88 67 56 86 83 89 68 75 82 88 87 80 80 60 35 40 53 81 92 72 44 27 25 24 22 22 23 25 26 28 29 29 30 31 31
86 94 77 74 61 52 34 34 33 36 54 55 61 94 97 56 60 58 90 89 85 75 76 82 87 79 85 60 35 32 46 65 92 82 46 32 28 26 27 26 26 26 26 27 27 28 29 30 32
87 93 80 72 61 49 36 44 46 45 54 60 64 75 63 61 62 61 75 85 91 94 86 72 85 77 83 63 36 32 48 53 69 70 44 33 32 30 26 25 26 27 28 28 29 30 30 30 31
96 90 79 54 57 55 52 48 44 54 72 93 86 65 56 59 69 57 51 63 87 92 91 80 78 75 83 67 43 34 52 51 57 72 55 34 28 30 31 30 29 27 28 28 29 30 31 31 32
76 86 63 51 52 56 62 52 47 56 60 77 83 80 54 60 62 49 62 44 52 93 88 78 76 74 84 73 64 42 32 70 65 69 53 33 38 31 30 27 24 26 27 27 29 30 32 35 37
91 69 62 60 52 54 71 60 57 54 50 44 65 75 57 67 77 67 72 64 45 54 73 85 81 74 83 88 77 69 48 30 36 34 27 38 45 38 35 27 27 24 26 28 30 38 43 49 48
88 76 69 58 59 69 65 70 64 54 58 55 60 79 67 79 82 73 67 60 54 53 60 70 86 78 75 84 79 79 82 60 46 42 33 42 45 45 34 31 34 34 32 34 35 39 41 43 54
73 73 73 69 62 68 76 74 64 54 55 63 59 72 82 61 76 72 61 60 76 62 70 46 81 83 80 82 81 83 81 79 68 68 77 73 66 59 52 46 44 43 38 39 41 43 48 59 67
68 83 79 77 72 72 82 84 70 52 47 51 57 54 75 71 70 64 71 72 72 75 72 73 73 85 78 73 79 80 81 80 77 85 89 89 86 73 62 54 50 55 55 54 55 53 58 68 73
75 77 87 72 74 78 84 85 69 59 50 49 54 53 49 69 76 84 71 72 75 75 74 71 63 60 84 74 75 78 80 81 81 83 87 90 88 80 70 63 57 67 73 74 74 70 72 75 79
87 85 84 89 76 95 73 86 67 62 55 52 49 49 49 51 68 69 71 78 77 76 74 74 77 81 85 81 77 77 81 81 78 77 82 84 87 86 80 71 66 72 75 82 87 91 91 88 90
80 89 75 94 93 87 87 86 84 68 63 54 46 47 47 48 50 44 46 64 74 78 79 78 74 79 82 82 78 84 82 76 81 79 80 86 87 88 88 78 73 80 84 91 94 94 95 91 88
84 79 77 89 84 81 89 80 80 75 64 57 49 41 44 43 42 46 44 48 54 71 77 77 77 81 81 78 80 86 84 80 80 82 84 85 88 88 91 83 81 82 90 94 92 95 92 89 89
85 74 88 72 86 80 89 83 80 84 71 60 49 45 39 39 39 39 44 44 51 49 60 74 71 77 77 80 83 83 85 87 81 78 84 85 84 89 95 92 89 90 92 96 95 96 95 95 86
93 73 87 90 79 81 80 87 85 71 63 60 53 50 46 42 35 36 36 45 44 53 47 52 54 59 74 79 80 85 86 84 88 87 86 84 84 90 93 94 96 98 99 98 98 99 96 92 92
98 69 68 88 94 96 73 91 83 65 63 58 52 47 45 45 43 38 37 39 44 45 52 51 55 61 63 65 70 79 77 76 80 76 76 84 88 88 92 95 99 98 100 100 99 99 98 87 82
56 62 64 76 98 97 96 86 56 60 67 58 52 45 42 43 41 39 36 36 36 42 46 52 55 57 62 68 67 70 77 72 73 69 67 74 79 69 78 74 82 80 74 83 85 71 47 42 37
55 73 77 74 85 98 79 82 51 61 56 50 49 41 37 39 41 40 37 39 42 43 44 45 54 53 55 64 71 68 70 68 76 74 70 63 64 61 59 60 55 61 62 48 33 30 31 33 34
61 75 98 98 97 86 60 65 49 36 36 49 50 39 36 41 41 39 38 36 44 44 41 40 41 41 43 53 68 68 72 75 68 76 60 58 58 57 53 58 61 49 32 30 30 32 31 36 39
63 54 81 88 92 74 50 61 39 33 34 38 40 38 39 38 38 39 40 40 40 43 43 43 42 40 39 41 50 63 64 65 61 56 56 56 52 46 50 59 43 32 35 33 31 33 36 41 43
61 77 49 66 64 72 56 41 34 37 45 44 41 34 35 31 29 29 34 43 44 44 44 44 43 42 40 38 37 38 52 54 57 59 63 64 63 71 65 39 43 34 34 35 35 39 44 46 48
56 48 63 82 73 66 65 48 49 44 51 49 49 42 36 34 32 32 32 30 28 28 29 35 46 45 44 43 40 39 37 45 53 46 45 44 51 49 48 47 42 36 36 39 45 47 48 50 52
68 65 66 68 77 74 66 52 36 44 48 51 47 40 37 37 36 35 36 35 31 31 33 30 38 50 48 47 46 43 42 47 56 60 56 54 57 51 44 55 55 50 46 48 50 51 53 56 58
68 66 63 74 69 80 72 52 43 40 48 44 45 41 40 38 38 38 38 40 38 36 37 36 35 44 53 56 55 53 54 57 61 62 62 59 53 52 51 55 55 51 50 53 55 59 61 61 65

GFSSGP_850_rhum_075.txt.gz
RH
83 76 63 76 72 76 48 48 39 44 64 48 39 50 65 73 66 60 89 85 68 72 78 73 69 70 70 69 60 49 84 85 36 22 39 76 90 94 92 85 78 57 25 19 25 32 43 49 50
79 73 67 72 79 84 70 39 31 34 45 39 52 64 68 80 87 100 99 88 67 74 79 73 71 71 74 65 56 60 88 57 30 14 13 50 81 93 93 82 71 36 20 22 28 38 44 48 46
84 74 74 84 90 79 49 41 31 40 37 51 50 52 79 98 99 99 91 90 72 80 76 73 73 77 73 62 62 87 69 39 28 14 16 16 62 90 97 67 47 21 21 22 28 37 46 42 39
76 74 76 84 82 63 41 30 26 49 48 42 41 60 80 90 99 90 88 90 79 84 78 72 74 76 73 62 64 90 76 42 25 17 19 20 27 55 56 31 22 21 22 21 29 35 41 42 37
81 79 95 92 80 63 43 31 27 38 46 43 34 45 74 88 91 98 97 90 77 87 81 78 77 75 70 61 59 82 65 43 32 21 17 19 18 20 20 21 22 22 22 23 25 29 33 32 32
85 69 95 88 77 58 48 33 30 28 29 36 38 46 51 78 70 98 100 91 75 85 80 80 79 77 72 52 48 80 72 53 35 24 20 18 20 22 21 22 23 24 24 25 26 27 28 29 30
95 89 89 74 70 60 50 36 32 27 29 36 33 72 74 56 66 58 90 86 68 75 83 84 86 79 72 44 45 74 87 72 49 29 23 20 20 21 21 23 25 26 27 29 30 31 31 32 33
89 89 80 83 74 64 42 34 34 30 38 50 41 82 98 54 46 58 88 86 72 71 81 87 90 80 72 58 41 56 92 86 77 45 28 25 22 22 23 24 26 28 29 29 30 31 33 33 34
87 96 83 80 71 58 37 42 39 44 55 58 47 54 53 47 46 50 74 98 87 82 80 84 87 80 76 53 36 49 78 92 84 64 33 28 26 25 25 25 25 26 27 28 30 31 32 33 34
87 86 67 67 64 51 50 48 46 59 82 86 76 76 62 48 40 46 54 56 97 86 84 77 81 73 78 59 34 45 57 79 86 61 39 34 31 28 27 27 28 28 28 30 31 32 32 33 35
80 85 56 58 62 58 62 57 49 59 77 68 73 88 63 72 73 66 49 52 91 90 97 86 85 79 69 63 37 49 59 66 76 69 47 39 33 33 34 34 31 30 29 30 31 32 33 35 37
90 69 70 56 54 58 68 63 57 59 51 47 50 54 76 98 71 60 86 64 64 55 86 95 93 87 75 72 54 37 62 67 69 84 73 44 39 36 35 36 30 29 30 31 32 34 38 46 46
83 80 65 68 56 60 66 72 75 63 55 52 69 87 76 63 64 59 63 67 68 52 39 41 73 91 82 75 72 62 41 53 72 72 52 33 47 51 43 36 34 34 30 35 39 50 52 55 56
72 74 74 66 71 60 63 81 72 60 72 59 72 64 93 96 77 68 64 58 63 54 46 45 46 63 89 65 79 74 76 69 42 40 31 28 44 53 47 38 42 46 42 43 48 52 55 58 69
83 92 73 73 83 72 67 74 76 63 67 62 63 57 68 78 66 62 65 64 61 51 48 51 65 60 74 75 69 77 83 80 77 68 63 71 75 72 63 61 52 53 51 50 52 52 55 60 71
92 86 83 64 81 73 69 73 76 67 70 72 71 66 64 62 61 59 73 70 57 52 54 58 63 63 54 71 69 61 81 76 80 71 76 83 81 87 83 75 60 60 63 62 61 66 66 71 75
85 99 83 81 76 85 85 82 85 80 72 66 64 64 64 70 72 70 70 62 58 61 70 70 62 70 57 53 75 74 78 72 72 80 79 84 86 90 90 84 72 68 69 74 79 84 87 86 85
84 90 74 79 82 77 90 78 85 94 76 66 57 56 52 55 64 62 60 59 72 76 71 70 76 74 83 78 67 73 85 82 78 79 80 81 82 87 91 90 83 75 75 79 86 88 86 90 88
69 82 77 88 82 86 88 73 72 89 92 75 63 54 48 48 49 55 66 64 69 79 81 81 78 76 81 84 78 82 84 85 82 80 77 80 82 86 89 90 88 78 81 83 86 89 91 89 88
72 89 84 86 87 88 86 87 82 87 86 74 68 59 49 44 43 44 46 49 58 68 72 75 78 83 73 74 73 81 82 72 77 78 77 78 83 87 87 89 94 88 86 91 92 90 89 91 91
90 82 90 85 86 77 89 95 88 84 90 72 64 60 54 47 41 40 40 41 44 55 58 67 70 73 75 76 81 84 80 80 83 88 90 78 81 86 85 84 89 94 96 94 94 96 95 92 90
86 74 78 88 95 100 84 95 90 73 82 72 64 60 52 49 42 39 37 37 36 41 46 54 59 60 60 66 74 72 55 67 71 78 88 84 85 86 80 88 93 96 98 98 99 97 98 99 88
73 68 86 84 97 99 94 84 58 66 74 76 64 55 50 45 44 44 42 38 36 35 38 46 50 58 64 68 74 70 68 68 69 79 82 84 85 85 87 86 84 86 81 74 66 62 81 82 69
75 77 83 88 100 98 100 81 52 67 57 54 52 46 44 42 41 43 41 38 36 35 37 42 54 47 53 60 62 63 71 72 72 75 81 85 84 88 88 82 69 59 59 62 61 56 49 40 34
79 90 99 98 98 94 75 88 61 38 40 47 50 40 39 40 40 44 42 39 38 39 40 45 53 55 58 58 58 64 61 66 68 75 77 72 70 71 84 71 60 53 51 56 46 32 32 34 36
70 60 93 92 92 78 58 79 46 41 44 46 45 43 42 41 39 43 41 40 42 47 47 44 42 41 41 44 49 58 61 64 70 70 72 72 70 63 71 68 63 64 61 52 34 35 38 38 40
64 77 50 68 63 84 63 44 36 42 50 48 47 39 37 34 37 40 42 42 44 46 47 46 45 45 43 43 41 39 44 55 62 68 69 68 61 63 67 59 65 69 51 44 48 40 42 42 43
56 50 63 83 85 68 64 52 53 46 50 52 53 48 42 38 35 34 31 30 30 30 32 35 39 46 47 47 45 43 41 40 48 59 66 67 62 54 52 52 51 47 52 50 43 45 47 48 49
67 63 69 70 76 80 68 52 36 44 49 52 53 46 43 41 41 39 38 36 35 33 31 33 32 29 41 53 51 47 44 42 42 46 62 73 76 60 56 56 54 53 52 44 47 52 53 54 56
72 68 63 74 68 82 73 56 48 44 51 50 49 45 42 41 42 41 41 42 40 38 36 34 38 39 37 46 55 54 52 51 48 51 59 64 67 64 62 59 51 48 48 48 52 55 59 58 58

GFSSGP_850_rhum_078.txt.gz
RH
81 77 73 66 84 80 77 54 44 49 61 52 49 60 67 77 67 65 95 100 80 74 74 76 67 68 67 67 45 68 89 45 50 73 80 79 83 80 76 74 65 34 19 16 26 40 34 43 46
71 80 74 74 90 83 71 44 37 34 51 53 52 62 66 73 98 92 99 90 83 74 75 78 72 72 69 62 43 79 89 45 24 60 82 87 90 89 82 75 48 19 17 23 32 31 32 34 37
84 81 71 87 86 74 59 44 36 35 42 48 60 57 60 74 94 93 92 87 85 77 80 77 74 69 68 50 55 89 79 32 20 27 74 90 92 92 80 68 30 18 21 28 29 30 30 31 31
83 76 75 94 86 70 51 35 34 44 49 45 49 55 62 62 77 92 99 78 79 81 80 78 74 75 67 53 69 83 42 35 15 12 44 85 94 97 70 51 20 21 24 32 33 32 34 36 35
93 82 87 90 83 70 54 40 31 45 53 50 47 68 71 80 80 89 100 79 72 81 78 78 80 77 68 55 85 84 48 29 17 20 15 58 77 70 49 23 20 21 24 32 36 36 37 37 38
89 89 89 87 78 68 58 39 38 34 38 45 43 53 62 75 68 78 99 93 71 78 80 81 84 72 64 54 84 79 51 34 20 18 19 20 37 30 20 20 22 22 24 30 34 37 39 40 39
91 96 83 79 76 76 61 43 46 34 32 44 40 44 76 73 67 71 94 98 81 79 80 83 84 74 66 46 83 77 66 45 25 19 20 18 17 18 20 21 22 24 25 27 29 31 33 33 36
88 88 82 79 82 76 51 45 37 36 32 35 42 74 91 66 62 58 73 93 89 78 81 82 86 78 68 41 61 86 78 67 36 25 21 22 21 20 22 25 26 28 29 30 30 31 33 35 35
86 92 83 69 76 67 46 46 39 42 42 50 45 43 47 71 73 64 59 93 93 82 85 84 87 79 70 49 48 87 81 82 62 37 28 24 24 24 25 27 29 30 32 33 34 35 35 36 37
89 95 70 53 55 63 52 51 42 47 68 73 68 79 51 60 80 56 71 84 75 97 88 87 86 78 71 55 41 67 89 87 85 62 35 30 29 28 28 29 29 31 32 33 33 34 35 36 37
84 88 61 56 54 60 67 61 56 56 79 69 59 79 57 51 66 59 58 60 60 80 96 89 88 83 76 61 38 47 81 91 96 72 43 36 33 30 30 30 30 30 31 32 32 34 34 37 40
92 72 70 66 57 58 64 64 70 70 54 55 52 50 57 47 49 42 40 42 50 83 97 98 97 90 80 81 47 33 51 78 96 81 56 47 41 39 35 34 34 32 30 30 33 35 37 41 50
90 77 76 68 64 69 54 59 71 71 50 54 58 77 58 47 48 46 36 45 54 73 83 71 92 99 88 85 65 37 50 54 65 83 80 61 49 44 42 43 36 32 31 32 32 36 46 53 54
74 76 72 72 70 65 67 58 81 59 70 60 56 63 62 60 68 80 52 53 73 60 68 60 60 83 85 78 80 62 40 42 65 68 80 68 45 55 56 48 39 41 39 42 41 48 49 54 56
70 86 82 69 65 78 63 76 83 77 76 71 61 63 65 87 96 96 62 58 40 40 65 64 49 50 59 68 65 74 74 67 53 41 42 38 33 53 66 60 50 52 53 50 52 53 54 57 62
89 76 96 73 65 77 76 74 64 85 73 74 72 61 60 92 97 75 67 65 63 53 55 60 59 47 51 61 70 72 73 72 76 75 74 60 62 76 81 77 71 64 63 59 58 61 62 65 72
87 96 92 78 64 71 80 88 86 77 71 75 74 76 65 59 64 65 66 67 64 60 59 60 56 54 50 70 56 58 67 67 68 80 76 70 72 79 86 87 82 78 70 70 74 76 80 82 84
86 97 99 78 79 76 86 88 94 91 75 85 72 68 65 70 66 64 68 69 74 64 61 59 56 59 67 62 71 75 61 59 68 67 79 78 78 84 87 92 93 87 80 76 77 83 91 87 91
98 80 84 75 84 83 85 89 83 92 86 87 78 68 59 57 73 64 66 60 71 66 66 67 70 69 78 70 64 71 73 64 69 75 72 83 81 76 80 87 96 96 88 79 82 89 88 86 88
100 81 96 92 76 82 82 88 86 85 80 85 86 77 63 56 51 57 68 62 66 65 66 72 74 79 86 86 82 63 66 66 71 83 89 90 86 77 84 86 88 94 94 90 94 90 87 89 90
92 82 93 87 86 83 82 84 91 80 83 77 79 79 65 59 50 46 45 52 62 66 71 76 75 79 71 78 84 86 80 74 72 83 80 85 81 83 79 80 84 85 90 90 91 92 90 89 90
88 87 83 87 92 98 83 98 93 82 88 82 76 76 66 54 51 44 41 40 39 40 52 62 70 73 75 74 77 96 86 85 83 76 78 72 71 78 82 84 82 82 83 90 85 85 83 84 88
92 78 82 87 97 97 99 100 72 77 86 82 79 66 63 51 49 46 43 40 38 37 37 43 54 63 65 64 66 74 76 77 72 80 76 71 71 75 85 87 86 86 90 85 81 75 77 75 66
82 82 85 94 94 94 100 92 60 88 73 66 66 68 56 51 48 43 44 42 38 38 35 37 42 52 60 60 62 66 64 66 71 74 70 69 70 62 70 76 93 95 95 78 78 72 66 56 51
78 77 98 96 97 98 95 99 68 45 39 49 54 57 50 45 43 43 44 41 39 38 37 37 42 45 58 58 57 59 65 66 66 70 69 75 68 71 70 69 67 78 70 74 75 62 56 65 42
80 85 92 93 93 93 65 83 54 44 52 52 42 49 48 45 43 43 45 43 42 44 46 48 46 46 49 55 52 58 64 61 63 62 66 68 70 79 80 84 76 66 65 74 72 61 50 43 42
68 84 57 73 64 90 68 47 40 47 54 53 54 48 46 46 46 46 46 46 47 47 49 49 47 45 44 44 43 43 42 42 57 61 67 64 70 77 75 72 66 64 62 56 56 62 44 45 45
51 52 65 83 85 78 64 56 55 50 59 57 61 59 51 44 42 40 37 35 33 33 34 37 40 42 42 44 46 45 44 42 41 44 55 61 66 66 70 69 70 65 60 63 59 54 56 44 44
65 65 71 70 76 74 69 52 40 46 51 63 62 55 51 48 47 45 44 40 37 34 30 28 28 29 29 28 38 51 49 47 45 43 41 49 65 64 66 73 79 81 75 58 57 55 46 46 48
76 71 60 74 70 81 72 55 55 50 55 55 56 56 53 50 48 46 46 44 42 42 41 39 35 33 37 36 36 50 56 54 51 50 48 50 64 78 80 74 64 63 59 57 51 50 49 50 52

GFSSGP_850_rhum_081.txt.gz
RH
81 84 80 64 66 75 72 59 46 46 39 44 53 57 62 79 61 53 91 99 84 79 78 81 76 66 64 56 42 47 59 70 78 57 59 62 72 85 83 69 55 27 17 22 34 35 42 38 33
79 80 79 73 76 74 62 48 39 39 47 49 55 54 54 63 84 91 93 98 88 76 79 77 76 69 63 55 50 86 37 64 81 75 73 74 85 83 73 66 31 16 19 38 34 35 39 37 34
85 79 75 84 75 65 52 43 36 30 51 54 65 61 58 74 82 86 88 92 89 79 79 77 75 71 62 48 60 91 54 30 70 83 86 85 86 77 75 46 16 18 27 31 31 35 40 40 36
87 85 78 89 76 58 47 35 34 33 38 55 60 64 59 51 61 85 87 87 88 79 78 78 77 72 61 43 80 89 56 25 37 79 92 94 92 78 62 28 18 23 32 33 35 39 40 42 41
95 86 84 90 77 61 52 46 44 36 34 52 54 60 68 64 58 60 87 86 84 77 78 81 77 75 57 51 81 79 35 23 15 64 90 92 91 70 50 19 20 25 31 32 36 38 39 41 38
92 94 91 85 72 62 53 52 51 40 40 48 51 63 55 59 60 60 98 85 81 78 81 82 82 76 56 72 81 75 40 19 16 24 83 97 92 58 32 20 21 26 32 32 34 36 37 39 38
84 84 76 66 67 64 59 56 56 43 35 35 44 51 62 62 52 41 68 99 85 81 81 82 88 79 58 67 85 77 42 25 19 20 52 88 63 48 22 22 23 27 34 39 43 43 41 39 39
85 84 78 75 67 63 51 56 52 52 41 35 39 65 90 55 72 63 68 95 98 90 81 84 87 77 64 55 88 73 54 33 22 23 28 42 36 24 23 25 25 27 34 36 36 35 35 36 39
80 90 79 68 70 56 52 51 50 50 46 41 44 42 52 68 72 71 78 84 100 99 92 88 85 80 68 44 85 79 74 54 30 24 24 24 26 25 27 29 29 29 29 32 33 34 35 36 36
84 89 69 52 50 55 54 54 49 52 48 49 54 59 60 59 66 46 67 77 83 94 97 93 88 82 71 41 62 85 84 75 50 30 26 28 27 27 30 30 32 34 34 34 35 35 36 37 38
81 82 59 57 58 60 63 64 53 54 55 42 49 55 66 65 64 53 70 71 56 65 71 90 92 90 77 54 44 84 95 88 84 52 31 29 28 29 30 32 32 34 34 34 34 36 36 35 38
85 70 72 67 64 67 65 60 61 73 47 39 42 59 68 74 73 51 60 60 56 52 63 86 97 98 89 74 42 49 88 97 81 76 43 34 31 30 31 31 32 33 34 34 35 36 36 38 40
85 69 67 71 73 69 64 65 62 62 62 57 51 55 72 78 72 67 63 68 58 53 56 79 94 99 94 92 64 37 54 81 95 80 52 46 43 38 35 34 35 34 34 33 34 36 37 42 51
71 73 68 66 63 68 69 62 71 58 67 66 58 47 79 76 66 63 60 53 54 43 51 66 87 80 76 84 81 43 39 52 70 75 61 50 48 46 43 44 44 38 35 32 34 38 50 54 55
76 79 66 63 74 61 69 70 70 63 62 71 59 48 64 84 76 53 50 46 46 42 44 48 69 60 82 78 84 68 44 55 63 60 68 77 68 46 53 55 50 40 47 43 44 45 53 56 58
76 81 86 51 62 59 69 72 52 70 69 77 73 80 68 73 73 61 53 52 65 60 60 79 60 57 64 61 67 74 70 58 51 53 62 66 52 38 50 63 61 56 58 57 53 54 57 59 64
79 84 83 65 62 56 72 70 56 75 72 81 80 80 82 74 92 80 66 59 62 50 56 67 58 68 58 62 58 66 77 71 75 77 71 72 62 46 71 83 82 85 72 66 65 63 65 71 78
76 92 77 74 63 66 68 75 92 92 79 81 82 76 76 83 97 99 91 68 67 56 60 58 58 64 67 71 61 56 69 64 67 72 74 76 82 79 84 87 92 93 88 77 79 80 84 90 88
99 99 80 66 59 70 73 79 78 84 96 96 91 81 69 72 84 77 97 76 76 70 61 68 63 67 75 78 82 86 77 57 56 64 64 70 72 81 90 88 86 90 91 84 82 86 91 91 84
97 93 90 88 54 68 75 75 86 85 84 95 93 79 73 64 69 85 82 98 83 80 81 72 67 77 84 78 82 90 81 70 65 65 64 69 78 79 82 87 82 84 92 95 89 90 91 84 87
100 96 85 96 80 80 77 83 83 69 71 86 80 77 71 64 59 59 69 83 85 81 90 86 77 69 81 75 66 82 78 69 82 68 68 76 86 88 81 86 84 83 81 82 90 89 86 89 83
91 75 70 78 84 100 84 94 86 77 70 75 71 68 62 67 60 55 52 52 70 71 73 62 74 75 83 85 62 70 81 85 80 86 88 92 82 84 93 85 81 85 89 95 86 89 87 84 84
94 78 83 84 90 86 90 82 77 77 84 78 73 67 56 56 62 53 51 48 46 45 45 55 67 72 77 80 81 85 89 84 81 90 79 80 87 87 82 80 76 86 87 98 100 94 87 78 70
82 75 82 87 86 94 95 78 68 80 72 63 69 68 64 64 61 53 49 49 44 41 40 39 45 53 66 70 74 75 75 74 81 86 77 83 68 87 92 78 73 70 82 87 96 82 75 70 77
86 72 94 92 93 95 98 96 67 47 41 48 60 67 66 70 65 54 50 48 44 42 40 38 39 45 49 65 66 60 66 66 73 73 73 76 75 69 75 75 74 77 74 72 74 68 74 67 65
85 93 83 89 90 93 83 89 56 50 56 56 44 54 64 62 69 62 54 48 46 45 44 44 45 47 50 52 61 59 57 65 65 64 65 69 72 68 72 78 82 70 84 82 75 73 75 76 71
87 91 60 74 70 80 68 54 44 49 58 56 59 57 57 59 70 54 49 46 46 46 47 48 48 47 46 45 44 44 43 43 43 48 61 68 67 69 72 78 80 76 81 74 74 79 74 63 56
69 55 64 82 82 95 73 55 60 57 63 59 61 68 61 58 56 49 44 41 39 37 35 34 35 37 40 42 44 44 45 44 43 42 41 44 57 63 68 73 70 75 80 78 78 72 67 61 54
66 65 66 67 76 80 75 55 49 49 58 66 66 68 66 58 53 50 45 42 40 38 35 34 32 30 29 28 26 28 38 48 48 46 45 43 44 58 69 74 73 75 78 81 77 75 63 58 53
80 68 56 68 70 75 67 55 58 51 57 62 70 66 63 57 52 47 45 42 37 36 35 34 36 37 36 36 36 34 34 46 53 52 49 47 46 52 74 84 85 84 89 86 76 63 58 52 50

GFSSGP_850_rhum_084.txt.gz
RH
85 91 91 72 43 39 38 31 28 26 29 29 31 33 34 44 36 45 93 99 99 94 100 81 80 66 63 61 44 41 71 64 50 59 63 66 64 74 92 77 60 31 18 69 92 92 48 35 33
99 94 84 63 50 40 35 26 33 24 26 34 42 50 45 60 68 85 96 91 100 100 100 98 81 68 64 54 42 50 64 77 48 66 62 74 78 87 78 66 36 23 79 82 46 45 39 32 29
93 93 65 55 49 40 32 28 28 23 33 42 39 52 45 57 80 81 83 86 100 100 99 100 80 70 62 47 62 37 68 81 68 66 72 77 84 78 70 41 18 38 82 41 37 38 36 31 28
78 85 70 66 46 33 28 23 25 22 24 29 46 39 62 61 48 62 78 99 98 100 99 87 78 72 63 44 81 66 34 73 79 81 78 86 86 73 59 19 19 46 37 32 37 39 36 35 34
83 70 53 56 44 31 28 27 24 24 22 23 36 42 48 55 66 50 59 90 99 97 100 80 80 76 63 44 86 83 34 37 81 92 92 88 89 74 36 18 25 35 36 36 42 42 43 43 38
65 61 49 48 38 31 31 33 29 30 27 27 26 34 43 73 63 54 61 78 99 94 99 99 86 76 55 63 88 83 32 22 64 94 98 97 90 69 26 22 31 39 40 43 45 43 42 41 37
60 57 49 36 30 31 32 33 34 35 31 26 31 28 36 86 92 75 67 60 98 99 100 100 87 85 57 60 83 63 35 18 25 89 99 94 86 58 25 25 35 42 41 42 46 43 42 40 39
66 55 50 37 32 30 26 34 37 38 37 30 32 36 31 56 96 81 68 58 70 99 100 100 96 92 94 80 87 77 39 22 17 66 98 100 95 57 24 24 31 40 40 43 43 39 37 37 37
68 67 52 39 34 30 24 26 34 38 39 34 34 35 34 64 91 80 78 83 76 98 99 99 93 99 95 94 90 76 49 31 25 24 90 87 75 38 24 29 27 39 43 43 40 35 35 36 37
64 60 44 29 28 30 32 29 32 36 39 38 38 43 61 70 66 91 80 73 65 62 84 100 94 94 97 95 90 82 66 48 59 75 47 81 74 90 85 30 30 32 34 33 34 34 35 36 38
52 62 38 38 43 45 46 40 38 40 42 36 36 38 55 74 75 97 72 54 54 53 75 96 100 95 81 56 88 84 82 91 81 66 89 94 91 40 35 33 34 35 36 37 36 37 39 38 39
55 41 40 40 49 54 50 50 52 43 38 37 59 41 58 73 72 86 88 61 51 66 60 84 96 95 92 94 68 85 85 86 77 41 31 36 60 42 53 68 51 46 38 41 38 44 38 36 39
54 38 35 37 48 52 50 50 51 50 45 51 64 54 54 60 68 74 90 56 50 60 53 69 85 93 93 87 89 94 84 84 94 68 37 31 30 30 32 34 34 35 34 35 36 37 38 38 41
40 51 51 49 45 47 49 47 46 45 45 52 66 64 50 49 65 96 92 79 66 69 70 65 65 99 79 92 70 60 95 90 89 73 56 39 35 33 32 32 33 34 35 35 35 36 38 50 57
59 60 44 44 46 48 41 47 49 42 47 58 60 64 59 43 62 95 80 65 66 56 58 64 59 83 76 88 89 64 42 93 87 90 79 54 51 47 44 44 48 49 45 41 38 38 46 62 57
52 47 72 32 33 45 48 41 25 32 40 50 54 65 63 61 68 65 80 88 62 61 71 62 60 59 74 78 83 78 43 45 60 79 76 77 73 72 58 66 67 62 49 50 48 52 55 64 75
60 58 50 47 36 39 50 40 26 34 39 50 57 64 71 76 70 76 77 84 61 51 73 54 60 76 78 78 69 76 67 52 59 62 68 68 81 85 63 46 61 72 61 61 60 58 61 81 76
64 83 57 49 36 44 46 41 29 47 53 55 61 66 74 81 79 82 86 68 76 74 46 62 70 76 75 78 63 71 82 84 78 76 74 63 60 63 58 46 80 87 82 75 68 64 61 75 84
72 86 88 62 39 45 47 40 36 75 69 64 66 77 73 85 86 90 100 75 97 70 62 69 74 69 67 68 72 74 78 73 71 78 75 80 80 82 82 75 89 95 93 86 76 75 81 83 94
97 89 71 57 51 51 44 42 39 61 68 67 71 73 75 70 94 100 96 83 99 88 70 90 70 77 85 82 81 91 87 84 81 79 78 79 78 83 86 85 97 98 95 94 89 85 91 94 91
97 97 79 82 60 54 49 55 68 61 61 68 70 83 91 77 86 100 92 94 86 95 92 87 81 84 83 76 69 64 77 88 84 82 87 80 82 82 80 87 85 88 98 99 100 95 91 87 82
98 87 92 95 96 79 54 70 63 51 59 57 59 76 84 89 78 78 86 78 69 83 90 94 98 99 94 93 76 76 67 55 70 74 81 89 98 89 91 91 92 86 95 99 99 93 90 93 89
76 64 94 96 86 70 65 64 60 63 62 60 56 77 82 96 77 78 78 87 88 80 75 76 74 82 91 82 90 92 88 86 84 84 74 84 86 78 89 93 90 81 90 98 98 100 91 97 100
60 67 93 74 68 91 81 79 62 59 59 50 55 68 74 82 78 72 74 76 79 79 85 80 81 88 83 85 91 98 100 91 88 93 83 78 76 83 77 82 90 93 93 94 88 81 91 98 85
77 77 89 87 76 83 89 70 61 44 42 41 36 52 65 89 72 74 79 73 70 70 57 49 50 59 76 80 87 84 81 79 75 74 82 81 73 81 72 70 74 85 89 90 91 88 81 76 71
77 76 77 72 83 92 73 74 53 46 47 46 42 61 74 86 83 75 68 67 66 60 54 52 51 53 56 64 67 70 75 70 69 76 78 74 75 79 76 80 85 87 89 74 75 73 71 76 80
73 80 49 64 60 61 64 59 42 44 49 49 59 64 76 88 93 77 65 51 52 48 47 48 50 52 53 53 54 58 57 61 68 69 74 73 72 74 72 74 81 86 87 83 83 80 78 74 79
82 53 66 66 73 81 51 50 55 53 58 58 55 63 76 76 71 82 69 52 47 43 42 38 36 36 38 40 44 49 49 48 46 46 45 48 58 65 67 68 76 80 78 78 78 73 77 84 91
59 54 51 52 54 50 47 50 43 50 54 59 58 65 68 70 67 64 54 50 48 44 41 41 39 38 34 34 37 37 37 44 50 49 48 46 44 47 64 72 74 79 84 82 77 77 86 86 71
67 60 48 49 52 49 40 47 43 46 50 53 58 64 76 78 69 62 61 60 47 43 41 38 36 36 38 39 36 37 39 43 49 54 52 50 47 47 50 70 80 83 82 82 83 87 77 73 64

GFSSGP_850_rhum_087.txt.gz
RH
64 71 68 63 46 36 37 28 18 17 16 17 21 24 25 24 33 49 80 79 74 76 90 92 81 73 63 59 54 38 41 38 45 56 68 66 62 77 88 83 67 32 60 91 86 82 49 37 46
74 64 63 50 46 40 32 21 21 17 19 19 20 28 33 32 49 75 80 87 81 80 83 99 83 75 62 60 47 41 68 41 52 54 59 63 68 73 90 77 46 25 93 94 94 48 30 31 37
82 62 52 41 46 46 30 20 18 18 20 25 27 33 33 34 57 64 84 90 88 87 94 98 83 73 63 58 41 55 69 42 66 70 69 71 78 86 87 64 49 88 99 94 58 37 33 31 28
62 61 58 48 36 30 28 18 16 18 19 24 28 29 35 57 62 76 77 86 85 95 98 90 84 72 67 55 42 58 74 62 64 72 78 78 87 93 71 39 55 100 82 41 46 38 33 31 27
60 48 44 41 41 30 21 19 17 21 19 19 20 28 33 65 82 82 90 50 86 93 97 90 83 72 68 54 69 37 72 78 70 74 75 87 88 78 52 32 96 98 41 44 43 40 37 36 31
51 44 44 40 31 26 22 20 22 18 19 19 19 20 29 68 69 91 89 78 61 92 91 98 84 79 72 53 76 70 34 75 79 81 88 89 90 74 28 21 87 70 41 45 45 40 40 38 36
50 40 40 32 26 22 22 21 22 21 20 20 20 21 22 70 78 98 96 86 58 70 99 98 86 86 77 56 83 89 55 31 87 93 98 94 91 56 20 27 70 41 42 44 46 45 40 36 35
48 40 40 34 32 27 17 19 21 22 23 22 23 22 24 31 80 82 92 72 64 49 92 97 96 94 82 74 92 85 43 30 64 95 100 99 98 60 24 32 60 44 45 46 46 44 41 38 36
53 55 45 36 31 24 18 17 19 22 25 26 25 26 27 49 80 92 87 87 70 63 64 81 98 96 91 92 86 85 54 26 26 97 100 100 99 56 25 39 71 55 50 49 45 40 39 39 37
51 51 39 25 21 21 19 20 19 18 22 26 30 30 32 54 71 94 94 92 72 70 62 54 91 100 97 90 92 94 54 33 31 86 100 98 97 93 82 35 42 46 52 48 44 38 36 37 39
41 51 33 27 25 32 33 34 33 24 27 23 26 27 31 46 83 82 82 89 58 61 48 48 59 87 100 95 90 98 90 73 84 81 98 99 94 91 92 39 32 44 50 44 37 36 36 38 66
41 33 32 31 31 33 39 38 37 34 31 27 35 48 48 38 68 78 84 78 84 51 50 54 52 74 97 95 91 97 98 85 84 86 88 94 92 92 95 40 33 36 36 53 40 48 57 60 60
37 36 31 26 26 30 35 38 39 37 37 36 33 45 52 44 51 64 75 82 77 52 46 58 53 50 94 95 90 93 89 94 91 89 91 93 96 71 88 86 81 84 72 80 77 74 69 61 62
31 32 35 38 36 33 33 34 33 34 36 37 40 40 48 49 46 58 70 81 81 52 47 44 49 51 71 98 91 87 89 89 94 94 83 88 90 73 88 85 84 82 79 66 61 63 67 63 65
36 44 40 33 30 35 37 42 38 29 30 33 33 38 50 55 46 44 68 80 78 59 55 54 55 67 82 92 91 86 93 87 87 94 94 80 81 70 76 77 66 42 46 65 70 66 65 71 73
45 40 47 28 23 25 34 47 27 23 21 28 34 38 45 55 54 43 57 56 81 84 70 58 60 56 70 78 79 88 73 94 89 93 99 90 85 69 49 66 70 86 86 55 67 54 57 83 84
56 68 43 33 24 26 31 41 26 21 18 21 29 32 39 54 63 57 59 58 62 79 92 80 66 65 68 65 78 90 88 80 97 92 97 99 94 73 62 63 65 87 92 81 75 81 80 83 80
50 56 49 44 31 27 36 37 29 22 19 25 26 31 40 53 64 70 75 77 70 82 87 92 89 76 66 62 70 97 99 89 88 92 95 92 88 90 97 77 66 92 94 91 88 86 87 82 78
58 59 55 42 35 52 44 33 27 22 44 33 33 36 43 55 85 64 75 90 95 85 86 90 98 81 71 76 71 95 98 88 85 76 72 78 84 85 92 92 79 91 95 99 91 89 84 84 78
65 77 70 53 42 46 62 34 28 24 44 52 49 59 64 59 90 99 70 79 99 100 94 91 94 81 76 82 68 94 88 87 89 92 85 88 90 87 89 90 88 97 97 97 98 94 88 86 87
78 94 79 86 54 55 47 43 32 25 44 57 55 61 72 70 75 99 99 80 90 96 100 91 99 89 88 94 85 100 86 86 88 90 85 77 76 82 85 84 83 93 89 94 95 98 94 91 91
97 67 90 96 85 71 43 54 32 36 46 50 49 53 70 82 85 96 100 85 68 85 91 100 99 100 98 100 98 99 92 91 87 84 80 83 80 84 80 84 86 79 87 91 98 94 99 99 94
83 84 84 78 72 89 54 61 38 38 46 45 43 50 66 77 94 93 100 87 78 84 90 87 94 91 93 96 99 99 96 92 83 98 90 75 71 68 67 90 95 85 90 96 85 97 92 100 95
77 98 96 81 94 93 77 83 63 55 51 46 48 50 76 83 89 87 94 100 100 83 97 85 94 89 90 94 85 92 84 88 91 100 92 75 71 58 62 87 91 94 76 72 90 87 84 79 88
78 98 93 97 98 71 63 96 60 47 43 39 36 58 94 74 81 99 94 86 90 99 98 94 90 88 94 100 97 91 83 80 69 65 71 49 82 52 54 86 82 72 82 66 89 80 86 94 92
74 77 96 84 79 82 81 99 93 49 38 42 44 88 100 92 95 97 94 89 94 94 80 68 67 82 82 84 86 95 94 91 88 83 80 78 67 66 74 78 82 81 84 74 90 86 90 98 89
76 98 72 95 67 81 92 73 53 72 50 63 69 90 96 100 100 82 85 84 83 75 70 75 73 73 72 71 72 69 76 85 88 82 86 82 82 84 85 85 80 76 81 88 86 83 91 94 83
84 63 70 66 84 74 52 57 71 84 73 66 77 77 86 98 92 82 72 63 64 69 68 62 56 52 52 55 56 54 63 68 72 83 94 89 90 85 76 72 74 82 87 86 87 90 91 98 95
64 53 47 47 46 70 45 62 44 56 76 68 68 82 93 92 93 89 89 86 67 56 59 58 46 44 41 40 42 42 47 55 54 52 53 56 65 69 71 72 72 78 80 86 91 96 97 90 83
56 47 40 48 45 40 39 62 43 48 63 57 65 77 78 78 86 76 63 61 60 59 64 48 43 40 38 41 43 42 43 44 50 55 57 55 53 53 55 74 85 82 85 93 96 96 84 77 73

GFSSGP_850_rhum_090.txt.gz
RH
40 57 65 67 69 58 54 45 30 29 22 14 14 18 25 29 52 71 62 71 74 79 77 75 71 68 61 55 53 47 39 43 60 68 71 63 58 77 81 85 67 27 73 85 86 89 54 49 52
44 67 60 54 67 65 44 28 30 25 19 16 18 19 24 37 61 63 56 55 73 74 79 82 81 71 65 58 54 40 35 37 48 59 65 65 65 82 86 77 50 64 81 80 74 59 38 48 47
68 63 54 61 65 70 46 28 23 18 17 18 22 22 26 46 58 77 62 67 74 80 76 81 86 77 66 58 51 37 64 50 60 59 63 65 71 94 85 71 39 77 86 84 36 30 33 36 34
57 58 57 58 52 42 42 31 26 20 17 20 20 28 31 42 55 74 64 79 77 84 84 76 85 81 65 60 45 41 66 40 60 63 67 67 80 100 85 60 45 99 99 93 34 31 29 27 26
60 55 62 60 53 40 28 26 25 23 19 19 21 26 28 52 59 75 55 84 80 81 77 82 87 82 68 59 40 47 70 45 66 76 79 78 80 100 84 55 88 96 58 37 36 30 29 27 26
58 50 66 60 45 30 29 25 24 21 18 19 19 20 32 53 48 51 83 86 85 80 80 81 87 84 71 62 49 43 69 71 58 74 84 80 86 98 75 36 96 49 39 51 53 34 33 30 29
68 57 56 47 41 31 24 21 23 22 22 22 18 21 30 66 61 47 44 78 82 82 73 73 97 81 79 69 61 60 37 80 74 73 83 90 90 81 67 84 97 49 46 62 43 41 38 36 33
51 53 58 47 40 35 22 20 18 20 22 21 20 23 23 51 62 52 76 66 62 71 72 56 90 90 80 67 55 93 66 31 82 84 89 96 86 74 35 98 98 43 44 50 46 44 38 35 34
50 66 66 49 41 33 23 21 18 16 18 21 21 23 23 41 69 71 96 87 72 74 67 60 51 86 95 87 69 99 82 33 50 95 97 100 100 57 30 99 98 48 46 48 47 44 40 38 36
55 68 58 36 28 28 22 22 25 27 20 20 22 24 26 46 60 59 73 94 93 73 66 61 54 68 98 98 88 90 77 41 28 87 100 100 97 59 28 80 100 71 50 50 45 42 39 38 38
43 63 46 36 30 30 32 32 33 34 40 32 22 23 24 26 38 57 53 57 68 72 66 50 49 52 64 97 100 95 88 47 24 57 100 98 97 72 36 46 98 64 50 49 44 40 36 37 38
45 37 35 33 31 31 33 34 40 35 36 35 34 38 41 43 47 61 65 54 79 76 70 65 69 72 58 72 91 82 96 51 34 37 93 98 99 83 54 47 40 40 46 47 45 37 38 40 60
37 35 32 33 32 29 26 30 35 37 36 36 35 37 41 42 46 48 49 69 75 75 61 70 58 58 53 86 82 98 92 78 69 70 76 78 94 88 69 60 35 39 47 41 43 45 56 62 55
32 34 34 34 36 38 36 33 30 31 34 34 34 35 37 41 42 48 53 81 62 76 59 65 65 70 68 72 54 91 96 88 85 86 86 89 88 90 73 68 46 48 59 62 80 66 70 63 56
37 47 42 39 37 38 34 44 42 33 32 31 28 32 32 36 42 51 53 64 67 67 65 75 70 80 84 68 68 63 92 94 91 72 87 92 92 75 84 90 87 81 79 70 63 56 63 63 64
54 51 63 39 34 31 33 47 33 31 32 31 28 27 32 34 45 51 52 57 48 55 62 65 87 83 70 64 64 58 57 88 92 97 65 77 82 71 72 79 68 58 52 48 59 60 61 62 66
65 78 60 45 30 31 33 40 30 27 27 26 26 22 27 33 42 52 59 58 53 48 52 68 90 89 86 72 77 78 66 61 82 88 98 69 85 77 60 55 53 56 66 64 59 54 52 54 62
69 65 58 53 38 37 43 37 30 27 26 26 22 20 24 31 40 56 58 72 66 62 52 49 69 97 85 87 80 71 80 78 68 84 86 95 86 92 81 78 74 83 90 88 76 70 72 75 80
71 77 69 55 40 42 51 48 45 33 27 28 31 22 24 29 48 57 60 70 71 75 68 70 67 94 93 86 85 61 70 87 86 77 82 89 93 90 92 91 81 78 92 90 82 79 75 80 79
62 74 80 61 51 52 56 62 46 40 30 27 44 37 53 57 58 60 60 71 86 75 72 90 72 78 89 84 79 70 64 79 76 71 75 75 75 87 92 97 88 74 80 90 90 95 91 84 82
82 86 87 86 71 65 70 81 58 43 27 41 54 55 61 64 69 74 97 80 85 76 70 82 98 96 93 87 89 80 70 87 85 71 70 73 79 86 85 86 85 87 83 92 95 97 98 93 88
97 68 84 95 98 92 56 88 53 36 31 47 52 56 62 72 77 85 97 84 93 85 74 72 99 100 94 92 93 92 87 87 92 92 81 90 82 81 76 78 78 84 87 89 94 82 85 94 92
97 85 94 90 95 91 79 87 42 40 59 48 53 55 64 84 85 94 99 99 95 83 74 64 74 100 100 97 97 99 100 96 99 97 96 95 91 85 70 60 61 65 77 77 81 81 74 78 86
89 96 79 76 94 97 87 88 55 48 42 50 45 49 78 97 89 90 100 100 100 91 79 80 84 99 100 95 100 98 100 97 98 96 98 98 83 79 72 66 63 58 52 66 79 80 77 80 85
83 100 98 97 97 98 99 97 100 60 48 46 52 76 94 100 87 92 96 100 100 99 89 81 87 100 100 82 84 96 96 92 94 98 84 79 84 83 72 74 62 56 83 92 85 79 90 71 67
82 92 99 96 96 96 94 99 100 84 44 41 72 100 99 100 99 91 89 95 96 88 91 94 96 88 93 99 91 95 98 88 89 80 76 66 88 84 68 71 75 77 68 67 98 84 86 85 64
82 99 92 100 96 99 100 100 88 81 87 94 97 100 100 100 100 100 95 94 99 97 96 82 81 85 88 86 87 85 83 86 83 77 85 92 90 91 79 74 70 63 66 73 88 86 90 87 76
89 73 82 93 97 94 96 92 100 96 96 88 89 98 100 100 97 98 99 87 91 86 80 75 74 74 75 71 70 80 87 90 80 86 84 80 82 78 77 76 83 83 83 88 93 85 81 83 84
76 65 62 51 61 96 70 97 94 96 95 94 93 99 100 100 100 99 90 74 71 74 62 58 54 55 53 51 52 55 60 62 64 67 74 83 87 76 80 76 81 82 83 84 85 97 83 78 83
57 53 45 76 67 63 77 97 79 74 81 88 92 98 98 94 91 85 82 80 71 60 55 52 48 44 41 41 42 42 40 40 44 49 55 56 55 58 65 68 65 73 79 85 95 86 91 99 100

GFSSGP_850_rhum_093.txt.gz
RH
21 58 68 67 83 87 87 72 48 44 33 22 19 19 26 43 50 58 74 76 70 78 76 62 59 57 50 49 47 47 55 64 67 69 66 58 59 78 81 82 39 77 86 81 89 79 67 53 55
27 59 68 69 87 94 81 47 43 37 27 22 21 22 24 71 66 61 73 72 68 74 74 74 64 64 58 54 52 48 45 50 62 68 69 59 58 81 87 76 43 77 87 82 81 56 39 45 40
49 68 66 78 89 92 71 42 33 26 24 23 21 23 32 75 65 62 66 71 71 78 74 71 71 68 65 57 53 44 35 38 56 62 69 59 61 82 86 65 61 76 79 76 60 34 40 44 37
57 59 59 82 84 62 60 48 39 34 27 23 21 25 49 63 63 61 60 72 67 77 75 77 78 70 66 58 54 36 42 50 56 56 65 61 69 84 82 57 68 86 74 50 37 31 37 35 33
68 63 80 82 76 57 47 40 37 34 29 23 21 24 36 66 55 60 60 80 73 81 79 76 82 78 64 58 50 37 53 46 65 59 65 64 77 90 99 54 70 94 95 28 27 29 30 28 28
63 61 87 89 68 48 40 32 33 29 25 23 22 22 36 65 60 55 65 61 70 72 75 88 87 81 66 61 47 45 62 44 60 57 70 76 82 94 100 76 92 90 41 29 30 28 28 26 27
74 84 80 68 58 46 36 26 27 28 26 23 21 23 42 50 50 60 65 66 73 76 77 88 89 88 71 63 52 48 69 74 61 73 80 84 87 97 98 95 97 73 34 45 32 32 29 28 30
58 61 69 67 64 53 32 27 24 22 22 18 20 26 29 41 58 58 63 61 72 80 76 81 91 85 73 72 60 69 41 81 68 70 80 94 94 100 79 92 95 50 82 77 36 36 36 34 33
55 78 85 68 56 47 32 30 25 27 32 28 23 22 32 43 63 63 60 61 65 75 80 75 79 77 66 68 67 79 82 47 76 79 85 93 99 97 82 98 99 92 92 49 38 39 37 35 35
60 85 72 52 46 43 34 36 36 36 37 35 34 31 43 40 51 62 59 63 65 68 79 81 77 71 57 60 59 71 100 82 36 85 90 99 100 90 79 99 96 97 57 47 44 41 39 39 38
46 74 56 51 47 42 38 34 32 42 45 38 38 36 36 45 56 52 43 55 52 62 67 66 73 74 63 55 58 72 99 94 50 60 95 100 100 97 48 98 96 68 48 49 46 42 39 39 40
48 38 38 38 35 35 38 31 30 31 37 38 37 35 35 36 41 51 54 52 55 61 68 55 66 72 73 69 68 74 82 83 90 42 88 100 100 85 38 90 97 52 46 51 47 42 39 37 43
41 40 37 36 35 35 36 39 37 34 28 30 33 34 33 35 37 42 48 58 52 61 66 69 70 73 69 63 63 62 70 79 85 62 87 99 94 86 43 48 83 46 47 50 47 44 37 40 46
39 40 39 37 38 36 40 40 41 36 32 29 30 31 29 29 33 34 42 54 55 55 61 65 67 70 73 76 71 67 70 66 97 58 61 92 91 93 70 60 55 46 48 50 46 40 48 53 54
50 59 55 47 41 44 38 47 44 36 36 34 31 31 30 27 31 32 40 51 55 50 43 71 66 67 66 69 76 78 84 77 94 92 83 75 88 100 91 68 52 35 44 47 50 57 56 62 58
64 61 76 48 45 42 46 58 37 29 31 34 32 30 28 26 28 31 44 52 57 53 49 63 65 57 60 74 82 75 73 75 89 89 90 90 80 97 98 78 59 47 56 72 63 60 54 58 62
75 86 74 61 42 44 48 48 36 30 30 34 34 32 29 29 22 31 47 50 57 61 57 58 57 55 61 60 73 83 76 76 85 64 61 93 91 93 88 85 87 84 78 68 60 50 52 56 56
75 81 68 71 50 49 54 51 41 35 31 31 29 28 26 26 22 26 37 44 47 63 60 60 55 59 59 68 72 82 95 80 77 80 72 80 86 82 83 90 84 76 67 56 59 57 56 51 50
82 87 90 72 59 59 59 56 50 46 44 44 32 27 27 28 20 24 48 47 54 66 66 64 63 57 59 69 75 85 91 91 81 73 84 87 85 88 82 75 71 70 73 74 73 70 62 60 71
77 88 86 69 57 65 78 76 64 58 50 44 36 26 33 31 28 42 59 47 60 66 69 68 72 82 72 75 74 87 90 84 88 84 80 78 89 88 90 84 87 89 92 93 88 81 77 78 80
85 92 86 87 77 79 91 88 70 55 53 49 42 34 48 50 53 58 55 53 56 64 68 64 69 72 71 64 70 88 90 85 85 88 85 78 68 84 83 82 88 90 83 87 91 89 89 87 86
97 69 74 99 100 96 74 94 65 59 57 45 39 44 50 52 57 56 55 60 80 72 71 80 76 72 68 61 85 82 90 87 81 81 97 79 76 89 87 84 84 90 82 76 79 89 89 86 77
88 80 97 100 90 90 76 97 75 44 47 39 58 55 48 56 72 81 92 95 99 98 95 85 79 88 93 78 84 89 87 98 93 94 99 80 82 74 70 69 87 78 79 79 76 67 75 73 78
71 98 100 91 92 99 79 84 76 62 55 47 52 56 88 82 82 84 99 95 98 99 98 97 100 100 100 100 92 100 99 98 96 97 94 100 93 99 92 91 79 71 74 68 72 74 75 57 64
80 100 98 97 97 93 95 91 88 90 88 67 58 84 100 93 93 99 99 100 100 100 100 94 98 100 100 100 98 92 96 99 99 98 94 98 99 95 83 81 79 72 71 81 77 60 69 81 81
89 99 99 96 97 98 100 98 100 89 94 98 98 100 100 99 100 100 100 100 100 100 98 92 89 88 91 98 94 91 84 98 99 95 95 97 91 87 74 87 88 73 68 76 80 83 80 89 94
80 99 88 100 100 97 98 100 96 85 88 96 98 100 100 100 100 100 99 100 100 94 94 91 88 84 88 94 95 82 73 85 81 85 80 96 84 78 93 92 89 72 74 82 84 79 81 86 95
88 79 89 94 97 96 97 97 100 100 100 94 95 99 100 100 100 100 99 97 92 95 89 84 79 84 86 86 88 88 96 89 76 81 86 91 90 92 93 82 84 77 82 88 87 84 83 81 76
79 87 80 70 76 92 89 98 98 100 99 96 97 100 100 100 100 99 96 87 84 80 71 60 62 64 66 68 69 73 74 78 83 86 89 92 98 100 92 91 88 87 86 82 79 79 89 84 78
58 70 55 78 71 76 82 98 91 95 93 92 98 100 100 98 97 97 92 84 67 62 54 55 47 52 54 56 56 53 53 50 51 55 58 60 62 64 64 67 71 80 84 87 82 86 83 92 96

GFSSGP_850_rhum_096.txt.gz
RH
25 54 60 67 81 90 92 80 59 53 38 27 25 25 26 31 44 57 67 70 72 68 59 51 44 42 41 42 51 53 63 66 65 65 61 57 71 73 86 73 31 66 79 85 88 89 79 62 55
42 66 67 65 90 96 89 67 63 51 35 28 26 23 26 52 68 71 71 71 75 71 66 55 53 48 45 44 45 50 54 61 66 66 64 58 69 75 82 65 44 78 79 89 86 81 48 48 41
54 69 59 84 92 95 80 50 49 36 33 31 28 23 33 70 66 72 64 73 80 79 74 65 60 57 52 51 48 48 46 48 56 64 64 59 64 82 86 54 70 78 82 84 71 45 40 42 34
66 63 62 88 90 72 65 57 47 44 36 30 26 29 60 59 57 58 52 70 79 80 77 77 65 65 62 55 51 48 40 40 48 56 70 65 64 83 88 53 74 78 83 82 53 33 42 37 36
61 63 84 90 86 67 56 47 42 42 37 30 26 26 44 64 63 56 49 59 64 79 76 80 75 67 66 57 52 40 35 38 43 61 67 68 60 85 97 61 80 80 71 73 44 38 38 36 32
65 66 90 92 73 57 48 39 34 32 28 25 24 25 39 59 71 65 63 64 62 68 74 79 86 79 66 57 52 36 45 61 49 60 57 64 64 87 93 70 86 92 76 47 35 34 30 30 30
78 86 86 77 69 54 40 32 29 28 28 24 21 26 28 52 55 63 66 67 66 83 84 88 88 84 69 58 50 40 56 64 43 69 62 69 74 91 95 71 84 100 63 31 30 29 28 28 32
61 70 77 73 72 66 42 35 31 31 32 28 25 34 37 48 55 60 64 71 74 74 81 85 92 85 74 60 52 46 53 81 60 64 73 81 83 96 91 82 94 94 50 33 30 30 27 28 33
56 79 90 73 63 57 39 42 37 35 36 36 35 36 41 58 55 63 64 64 67 71 76 80 87 87 79 68 57 51 42 61 72 63 78 90 92 97 98 94 71 84 60 79 36 34 33 33 34
63 89 79 57 52 54 48 44 36 34 36 37 37 34 36 48 57 59 58 57 57 65 64 71 79 80 79 74 68 52 52 40 46 80 72 80 98 100 99 89 61 91 87 95 44 39 38 38 37
51 78 62 55 48 46 42 37 34 33 42 35 39 35 36 35 40 54 60 65 55 59 65 65 71 71 78 74 70 63 61 67 64 44 87 86 94 100 99 93 96 98 100 73 49 45 39 38 38
48 44 40 40 37 40 44 38 38 35 32 29 28 29 31 35 35 37 45 60 58 56 66 66 68 66 68 74 71 69 62 68 72 70 55 92 98 100 98 84 92 97 65 49 46 47 44 41 40
42 39 38 37 34 34 35 41 43 40 37 33 30 28 29 31 31 32 35 46 64 59 58 66 69 70 73 69 69 76 71 65 66 55 65 69 95 99 100 82 88 79 63 52 49 48 44 41 40
47 54 50 46 45 42 44 40 39 37 36 36 34 31 28 28 29 26 33 38 54 54 59 56 58 66 73 74 69 72 67 70 72 66 58 71 90 95 100 94 99 92 59 58 51 47 43 38 39
56 61 60 48 46 48 39 48 44 32 30 31 32 32 30 27 21 20 23 32 53 52 55 58 61 61 64 70 73 68 74 66 65 66 68 73 75 92 80 84 89 84 54 60 58 53 44 46 50
68 63 78 51 45 44 49 57 39 33 34 34 31 24 22 22 24 26 17 29 57 49 54 53 53 46 58 62 64 65 73 72 76 81 75 67 68 78 86 74 52 55 50 59 61 52 51 55 54
75 79 78 68 48 52 58 65 45 38 36 37 34 28 26 26 29 27 23 23 50 53 57 58 53 52 43 67 67 70 66 73 80 80 75 59 64 66 74 93 95 75 53 53 58 60 58 56 55
70 80 77 74 56 57 67 68 51 43 42 39 34 32 29 27 26 26 24 21 32 56 46 62 56 58 60 64 70 77 72 73 76 81 67 56 46 77 69 74 85 84 56 81 72 60 64 56 53
77 89 93 73 59 68 72 68 60 50 49 48 47 42 40 34 27 24 26 23 27 54 47 57 65 57 63 72 75 80 77 81 83 78 92 69 70 67 76 78 87 88 90 76 69 72 62 53 60
83 91 87 73 62 73 83 85 71 64 60 52 50 46 41 34 29 24 30 26 55 48 57 61 68 64 63 69 72 82 85 87 94 90 90 90 83 80 87 88 82 93 92 89 80 66 60 61 63
87 95 87 87 70 74 86 81 75 60 61 59 54 48 44 37 34 42 40 45 59 55 69 64 73 70 68 66 83 82 90 92 86 87 98 97 98 84 82 82 82 94 86 71 70 77 80 70 72
95 72 76 85 98 95 78 92 66 59 64 61 56 49 36 49 60 53 56 61 63 63 70 69 72 74 77 82 80 78 76 82 71 86 89 100 98 95 86 91 90 77 74 76 78 80 76 73 80
85 76 83 97 100 99 82 97 76 54 54 61 42 38 64 59 53 59 64 81 94 96 90 80 78 79 85 96 95 86 88 66 68 86 92 92 99 96 94 93 89 86 87 74 65 72 64 68 69
62 80 97 100 99 100 83 88 76 95 91 92 58 69 85 93 63 77 95 98 100 90 96 87 97 86 92 99 100 99 94 88 76 97 97 93 90 100 91 83 99 99 90 82 88 81 79 85 78
80 99 97 94 97 94 98 87 81 90 92 95 83 100 100 100 98 100 96 98 99 97 99 99 92 92 95 99 99 100 100 97 96 94 97 99 91 92 97 96 98 91 88 85 98 91 82 78 76
89 98 99 96 97 98 99 96 98 87 83 92 100 100 100 100 100 100 100 100 100 100 100 100 88 95 98 99 100 99 100 84 87 91 100 100 98 100 100 100 100 100 98 92 91 85 81 77 69
84 99 91 100 100 97 97 97 97 80 86 94 99 100 100 100 100 100 100 99 100 100 100 100 96 94 93 96 95 89 99 100 100 100 100 97 99 100 99 91 91 96 99 98 94 92 84 83 83
86 80 93 95 96 96 98 97 99 98 99 92 96 99 100 100 100 98 100 99 100 100 98 97 97 94 93 91 91 93 93 95 96 96 98 93 96 98 87 94 96 99 99 99 98 91 92 91 80
80 89 87 81 77 95 93 98 100 100 100 98 97 100 100 100 100 100 96 98 99 94 85 88 84 78 76 77 77 79 86 92 97 98 97 96 98 99 100 98 99 89 85 87 90 89 90 89 90
62 70 69 83 71 83 85 98 95 96 95 96 99 100 100 100 97 98 95 93 90 86 79 53 47 47 47 49 47 50 56 60 62 64 66 67 69 69 68 70 70 75 90 94 89 87 84 90 90

GFSSGP_850_rhum_099.txt.gz
RH
21 47 61 65 75 89 93 77 64 62 42 34 31 29 31 24 28 52 62 67 68 68 59 56 56 56 57 56 58 56 58 73 63 56 61 62 75 72 82 67 34 62 87 87 90 84 81 85 42
50 62 69 59 84 85 67 75 70 58 43 34 29 26 28 34 56 55 63 68 72 60 55 51 50 52 55 54 53 59 62 63 63 63 57 57 73 77 89 64 40 80 82 85 87 87 62 60 30
66 70 57 82 91 85 63 59 54 44 40 37 32 26 28 62 61 52 57 71 80 72 60 52 46 47 45 48 52 53 55 62 65 66 63 58 65 76 86 54 61 76 84 88 86 75 48 37 31
71 62 63 85 93 78 64 57 52 50 37 33 30 32 24 61 64 55 48 57 74 76 71 58 53 50 47 46 46 45 46 50 60 63 64 68 69 75 81 58 73 87 82 84 69 45 40 32 33
63 62 86 91 86 72 61 52 41 43 39 31 26 29 24 47 61 60 59 53 70 79 78 70 62 60 56 54 50 47 44 41 44 58 68 67 70 78 96 67 79 89 84 81 50 41 35 32 35
63 66 82 86 78 61 52 42 35 33 31 27 29 27 23 46 68 61 66 72 79 79 80 80 70 66 65 61 54 49 36 33 35 51 56 70 67 75 88 73 80 83 80 79 45 43 36 34 34
77 83 83 82 76 59 46 35 33 33 36 29 30 30 31 55 74 67 63 70 70 80 81 84 82 78 73 65 56 44 37 48 53 55 61 66 72 78 90 80 81 85 84 69 47 41 35 32 32
64 76 82 77 78 66 45 38 33 36 38 34 36 46 46 44 72 69 68 65 70 77 85 83 86 92 82 69 58 42 48 75 41 59 67 66 74 81 95 82 80 82 95 58 41 36 30 30 34
58 84 90 74 68 59 47 52 42 37 37 32 35 38 37 38 46 75 71 70 67 70 70 76 85 89 87 69 60 46 55 72 53 64 64 66 72 81 98 82 73 78 67 34 35 32 28 29 34
67 88 78 62 55 58 53 45 40 37 34 35 36 32 31 36 40 52 64 72 70 64 60 70 76 88 88 77 64 51 49 45 74 58 68 81 81 85 97 92 87 77 51 34 35 33 29 30 34
62 81 66 57 50 45 45 42 37 37 42 36 33 30 30 31 37 36 46 59 70 70 65 65 67 72 82 82 76 67 60 54 46 72 65 78 94 95 100 97 98 79 71 83 58 40 37 35 36
49 45 47 42 41 40 44 39 38 37 37 35 33 34 32 30 32 34 34 42 57 64 61 70 69 72 74 82 76 72 68 68 74 43 58 78 84 97 100 100 95 74 80 92 84 45 42 40 38
44 46 47 44 42 40 37 43 44 40 36 34 35 37 35 32 29 32 32 34 37 66 62 58 67 71 75 80 75 76 73 68 71 72 55 56 59 88 97 100 97 87 84 99 83 54 46 40 40
57 58 56 46 44 46 48 41 40 35 34 34 32 31 28 29 29 28 29 29 35 57 66 64 65 66 73 69 71 72 76 74 69 71 67 61 56 56 71 99 100 97 79 92 90 69 53 43 42
59 65 62 51 47 48 40 52 53 26 31 31 29 27 31 26 22 25 24 23 25 41 59 57 62 64 64 67 70 70 70 71 66 67 62 60 62 65 61 61 100 98 100 89 82 81 62 51 43
71 63 72 44 47 45 46 54 42 34 38 38 37 34 34 31 26 22 17 18 21 29 53 56 56 59 67 65 64 75 70 66 69 68 69 67 69 77 73 78 83 99 78 95 75 68 62 53 43
71 73 74 67 52 54 56 64 52 41 41 43 40 33 36 34 31 27 23 25 16 23 55 56 56 57 62 67 60 59 61 66 63 68 71 72 81 77 64 83 65 60 54 76 88 75 63 54 48
61 80 78 81 58 57 65 64 49 49 54 51 45 38 35 37 35 28 26 25 24 20 54 58 60 62 64 65 63 57 46 51 64 67 75 75 82 73 70 55 72 64 60 67 78 81 66 56 57
67 86 93 75 61 72 75 71 62 56 58 57 53 48 42 33 33 32 31 25 25 23 51 54 47 58 63 69 69 65 58 58 60 71 76 73 76 68 85 70 72 77 68 51 67 58 66 71 71
87 96 89 75 65 68 72 77 68 63 62 63 60 56 49 40 32 30 29 27 28 22 46 54 41 53 67 67 60 59 63 66 70 77 81 78 79 80 80 72 80 69 74 78 67 49 66 69 77
90 96 87 87 69 68 81 88 65 50 52 56 64 59 53 47 36 30 33 36 33 38 57 56 64 72 75 70 71 71 74 76 83 83 80 87 82 83 89 87 83 78 77 77 76 71 70 70 75
94 74 75 83 96 99 72 94 70 59 59 72 65 60 55 44 41 44 65 54 63 56 52 68 72 71 74 75 73 80 78 79 73 78 78 79 77 88 90 93 95 84 72 86 83 72 78 82 73
81 73 85 86 99 99 87 98 76 77 85 79 87 46 51 71 66 59 80 94 81 77 77 75 83 79 75 78 83 92 89 85 80 92 88 86 81 78 80 97 93 100 86 90 92 89 91 82 78
65 85 90 94 97 96 90 83 78 88 97 88 81 99 100 99 95 63 72 98 99 97 91 88 91 88 82 82 84 90 97 99 97 93 92 94 96 87 86 82 100 100 92 91 95 91 83 88 79
82 97 96 90 92 89 95 95 83 87 88 94 96 100 100 96 75 98 98 97 95 99 100 94 84 92 94 96 94 96 98 98 100 95 100 98 86 85 95 89 97 99 88 92 86 91 84 80 81
90 96 99 97 100 95 96 94 91 80 82 93 100 100 100 100 100 100 100 99 99 99 99 100 99 99 98 99 99 99 99 100 98 99 98 87 100 100 100 89 86 96 93 99 93 92 89 85 95
83 98 90 100 92 98 93 96 94 80 86 90 98 100 100 100 100 100 100 99 100 100 100 100 100 99 97 100 99 96 100 100 100 99 100 100 100 99 100 100 100 100 100 99 100 91 86 79 76
81 84 96 98 96 94 95 98 98 98 100 93 95 100 100 100 99 100 98 98 100 99 100 100 100 99 100 97 91 97 96 97 100 100 92 97 100 98 97 100 100 98 100 98 99 100 98 93 99
81 84 87 90 86 97 96 98 99 100 100 99 96 100 100 100 100 100 97 98 91 88 88 85 82 75 78 73 75 68 73 82 87 85 93 92 95 96 100 97 92 96 93 98 95 99 93 99 96
65 72 75 90 74 84 84 97 91 96 96 97 98 100 99 100 100 99 96 96 99 97 87 83 72 59 50 50 45 41 43 49 58 46 52 57 58 64 66 72 76 82 89 100 100 95 93 96 96

GFSSGP_850_rhum_102.txt.gz
RH
29 56 68 61 61 80 79 66 69 58 48 38 37 34 32 28 27 41 54 61 64 70 66 62 62 66 68 68 67 68 66 63 59 55 59 60 62 61 66 64 35 37 58 84 64 76 90 75 27
34 56 70 53 80 47 36 72 69 59 46 40 33 30 30 31 32 29 57 59 61 67 58 54 56 61 70 70 63 62 61 68 66 56 63 90 71 65 78 66 39 71 85 87 79 78 77 58 26
59 69 55 77 86 56 42 59 54 48 40 40 33 27 28 54 72 70 73 68 63 61 56 53 53 55 62 70 63 59 62 69 65 60 57 66 74 70 82 67 54 79 86 89 82 76 58 38 30
72 61 65 78 88 76 62 58 55 44 34 31 30 32 24 88 87 86 83 79 72 68 61 54 50 51 54 52 55 55 59 64 66 65 65 68 71 76 86 64 65 74 86 86 82 69 39 31 34
65 58 85 86 83 75 67 58 43 39 37 30 30 29 27 66 69 82 86 78 79 73 72 62 52 48 47 48 48 49 50 54 64 68 67 66 72 71 81 70 64 78 82 88 77 53 33 30 36
62 61 69 70 79 66 57 47 40 34 34 30 34 34 38 52 68 76 70 78 77 83 79 72 59 57 54 52 52 50 48 47 53 62 62 67 67 68 82 78 70 86 88 84 69 44 35 31 35
74 69 72 80 78 64 50 38 37 38 38 33 36 35 33 53 64 76 70 77 78 83 84 81 72 67 64 63 62 57 52 42 38 56 59 63 72 72 83 85 74 85 83 78 67 42 35 32 32
62 72 86 79 78 66 51 45 38 39 39 35 32 44 42 39 48 68 75 75 80 77 80 83 83 79 74 73 70 61 47 44 46 54 62 66 78 77 84 91 83 85 83 74 70 43 37 35 32
58 81 85 70 75 59 52 55 45 40 39 36 34 38 37 33 38 54 71 78 78 75 76 83 81 86 89 82 72 60 45 50 72 55 58 69 68 75 86 96 83 81 77 72 64 45 37 32 32
69 76 70 64 59 60 55 48 42 40 38 37 34 35 34 30 33 42 46 62 81 78 74 76 79 85 93 91 75 61 46 46 62 50 62 67 65 74 80 96 87 84 80 57 52 44 34 30 30
69 77 68 60 54 46 46 44 39 39 45 35 37 35 32 31 29 33 39 39 49 73 72 73 70 72 79 88 85 66 51 50 46 60 61 64 69 78 82 98 91 84 88 72 65 38 32 30 30
47 49 51 44 41 44 45 39 40 38 38 30 29 33 34 30 30 30 33 36 36 52 68 67 70 71 72 78 83 80 69 65 60 48 65 64 72 78 81 100 96 92 95 71 72 40 35 30 33
47 54 50 45 44 45 42 47 46 42 30 28 28 32 34 34 30 28 30 30 32 35 60 64 61 72 74 76 82 87 81 72 70 77 57 50 69 74 80 92 99 97 99 70 82 75 51 40 37
60 60 58 44 44 44 51 45 40 32 23 28 26 26 26 28 26 22 26 29 30 29 35 72 63 65 72 77 84 88 82 75 68 74 70 62 61 63 67 80 86 96 98 77 85 92 76 53 43
61 57 56 46 50 46 43 49 59 23 28 28 25 27 29 30 31 29 19 24 27 27 24 41 68 70 76 75 77 73 66 75 64 62 65 65 60 61 65 62 74 87 89 94 95 97 94 72 58
69 60 53 36 51 46 40 46 37 29 29 32 35 31 30 30 30 33 25 18 21 23 23 26 57 62 70 70 70 69 79 74 70 73 68 66 67 67 69 72 65 81 100 98 100 95 83 74 62
68 59 67 64 51 53 52 56 48 41 42 45 43 44 46 46 40 31 29 24 18 19 20 24 52 62 64 67 69 70 74 79 66 70 71 71 74 71 72 79 79 80 93 100 99 85 91 78 65
56 69 75 78 58 57 68 66 52 49 51 52 54 56 56 52 44 32 32 27 28 21 18 21 53 62 62 71 71 65 62 66 68 66 64 66 59 64 78 85 86 90 80 82 80 73 78 78 72
65 80 89 77 63 75 77 73 64 56 59 64 66 63 61 54 50 40 32 32 32 28 22 17 53 61 68 68 70 67 62 55 58 63 70 66 62 65 76 85 86 83 88 73 77 74 73 72 60
82 94 92 78 67 70 74 76 66 62 66 57 58 64 62 61 56 47 32 32 31 28 23 18 52 55 66 71 68 70 68 69 69 71 72 71 70 70 74 78 83 78 83 77 60 56 60 64 62
93 97 89 88 67 67 79 89 69 51 51 63 72 56 62 63 56 45 34 33 36 28 25 29 51 51 58 75 77 75 73 66 66 71 71 70 72 75 80 82 81 88 86 85 84 70 65 65 57
100 75 77 79 92 96 81 94 72 66 82 77 72 69 58 61 57 48 41 43 44 33 25 41 52 53 59 71 84 78 72 66 67 72 72 73 79 83 82 84 84 80 89 85 86 80 72 76 65
79 69 81 84 98 98 87 97 79 78 78 85 84 99 100 92 61 71 83 96 77 49 56 59 59 64 65 75 82 79 77 75 74 76 81 78 77 76 84 88 97 98 94 92 87 85 82 80 73
66 86 88 90 87 97 82 92 78 94 93 84 86 95 99 94 95 100 98 95 100 83 63 59 60 68 72 89 90 90 90 89 84 82 88 86 82 81 80 83 92 99 97 98 90 90 89 78 77
82 99 97 89 94 86 95 96 81 88 82 89 93 97 99 100 99 98 96 96 94 99 95 79 83 85 89 91 87 91 95 92 91 91 93 99 94 96 83 86 91 99 99 91 100 100 95 82 82
86 90 99 98 98 93 94 95 95 85 81 89 98 100 100 100 100 100 100 99 98 99 99 100 99 99 98 98 99 97 90 92 91 100 100 100 98 98 97 96 97 99 100 100 97 99 89 88 98
85 95 84 92 83 99 92 96 91 83 88 89 94 99 99 100 100 100 100 100 100 100 100 100 100 100 100 100 96 99 100 100 100 99 100 100 100 99 98 100 100 98 100 99 99 100 95 88 90
84 81 90 85 99 94 90 97 98 97 100 96 96 99 100 100 100 100 100 100 100 100 100 100 100 98 96 90 86 91 97 98 97 97 97 99 100 100 100 100 100 93 100 100 97 100 100 100 92
82 81 80 88 94 98 97 96 97 99 99 100 97 99 100 100 100 100 100 100 95 95 88 81 76 82 76 74 67 57 58 63 85 76 60 54 56 59 62 78 95 99 100 97 97 94 90 100 100
67 72 76 94 79 87 91 90 84 92 94 98 99 100 100 100 98 100 99 100 100 100 99 96 88 73 70 64 62 61 54 46 44 63 66 45 40 41 41 47 59 59 72 82 94 98 98 99 94

GFSSGP_850_rhum_105.txt.gz
RH
54 63 66 54 41 51 48 44 66 54 48 41 41 36 32 32 28 35 48 68 75 81 72 82 63 62 65 69 72 68 68 66 63 61 60 62 63 61 57 59 31 24 35 74 75 89 82 50 24
52 64 65 45 47 27 24 62 61 56 48 41 36 32 32 29 54 67 74 91 80 83 81 76 64 59 61 66 72 67 68 65 60 60 60 60 59 60 66 55 36 40 74 81 77 78 75 28 25
54 69 50 53 63 31 29 57 53 48 40 37 32 27 30 75 71 82 85 87 87 80 80 71 65 60 64 68 68 63 60 62 67 61 56 79 70 65 73 61 51 76 88 92 77 68 60 26 28
70 58 60 55 51 58 49 54 53 39 33 29 28 28 49 59 58 70 81 80 87 82 74 73 63 57 66 72 69 62 58 63 68 62 60 73 73 72 79 71 64 85 87 92 78 72 45 28 32
62 50 68 69 66 66 62 60 50 36 34 32 32 28 29 52 60 82 79 84 93 78 72 70 64 61 58 60 62 61 61 63 64 65 70 72 75 78 80 81 69 77 87 86 85 72 35 28 35
58 52 52 48 62 62 56 50 43 34 36 32 34 38 37 46 60 75 83 78 83 91 80 72 62 56 60 61 58 58 60 62 61 65 66 68 71 74 79 81 69 72 84 89 84 67 35 29 35
64 50 51 64 65 62 50 42 40 40 40 34 36 36 32 43 50 59 80 81 80 84 91 88 77 58 55 56 56 55 54 56 59 58 61 60 67 72 76 83 79 78 87 84 80 49 37 31 36
55 64 80 75 68 52 53 48 40 40 39 37 34 41 39 36 38 48 66 78 74 77 78 90 86 83 70 62 63 64 60 54 47 56 60 58 66 74 76 85 84 83 87 84 79 45 39 33 35
52 55 62 62 71 51 54 51 46 42 40 38 35 35 33 32 32 34 59 76 78 80 79 76 82 88 87 77 73 73 67 54 41 41 55 65 68 77 76 76 88 85 88 82 77 63 42 36 38
60 52 50 60 60 59 57 52 44 39 40 36 29 19 20 28 31 29 38 49 62 79 84 83 78 86 87 90 88 80 70 53 47 65 62 58 70 66 75 72 88 84 88 85 76 70 48 42 38
69 56 66 61 58 46 46 45 40 41 41 29 28 25 25 18 14 22 28 35 37 46 64 80 80 78 77 85 93 93 76 61 51 59 56 51 65 63 71 77 93 94 91 87 74 69 50 42 34
46 53 53 47 43 45 47 40 41 39 30 22 24 23 24 22 14 12 17 28 36 39 43 60 76 76 75 69 71 80 80 61 55 56 67 66 67 64 71 74 88 95 89 85 82 62 46 38 33
48 55 49 44 45 46 46 51 45 37 21 17 19 23 25 24 19 15 11 13 30 35 37 37 64 72 74 72 72 74 85 74 75 70 59 59 71 73 76 78 80 96 95 92 93 80 45 37 34
60 59 55 45 44 45 52 48 42 20 19 21 23 23 23 23 24 25 19 12 9 27 32 32 35 67 71 78 76 78 89 90 83 78 78 69 62 63 67 75 82 88 96 99 99 85 61 48 37
60 45 47 41 48 48 45 51 55 22 26 27 28 33 35 33 32 31 28 25 18 10 26 30 26 40 69 72 80 87 90 73 77 73 72 68 68 70 65 63 63 68 92 99 100 89 80 90 57
60 50 36 38 50 48 40 44 35 33 39 44 46 48 47 44 42 41 42 36 28 18 14 27 27 26 60 74 78 83 82 73 58 59 77 72 71 70 67 68 68 68 71 91 99 95 97 100 81
56 40 56 53 51 53 49 53 43 38 47 53 53 50 45 38 37 43 39 41 29 23 18 19 25 23 53 64 79 78 82 77 78 79 76 74 74 73 73 74 73 73 78 83 96 92 95 99 86
44 58 65 69 54 59 65 65 54 52 57 58 58 46 49 57 40 45 46 42 33 28 24 20 22 23 46 62 75 75 71 73 76 76 83 78 76 74 75 72 73 82 86 91 89 93 96 100 86
64 75 80 71 60 71 73 70 61 58 62 61 50 55 62 58 52 52 52 47 33 35 34 30 21 22 50 66 67 75 72 69 67 68 73 72 65 68 72 71 76 80 88 91 89 83 82 85 83
80 91 89 70 67 68 69 72 61 64 64 54 63 72 79 56 54 56 59 49 33 31 32 31 28 28 47 66 60 62 66 65 66 66 67 65 67 66 73 76 84 87 87 91 92 86 80 96 86
89 96 84 78 68 68 79 81 64 50 58 69 78 88 96 100 97 63 43 45 36 31 29 29 28 48 56 73 64 71 75 73 64 64 68 72 74 78 84 84 86 84 80 85 81 83 79 78 77
98 76 76 80 90 91 71 88 70 56 67 72 74 86 94 98 99 79 63 66 48 33 34 29 27 28 54 69 58 61 78 78 71 68 66 69 70 74 80 88 94 94 89 93 92 88 85 89 88
70 69 76 78 96 97 88 96 68 70 76 74 72 87 84 92 98 67 74 98 99 70 58 50 55 39 57 56 57 74 88 83 76 74 77 79 76 77 82 84 79 86 91 89 89 94 94 90 95
72 86 87 86 89 92 82 88 74 87 94 83 83 88 96 98 92 91 97 95 98 80 69 96 94 58 64 72 79 97 99 98 91 86 84 81 84 87 85 82 84 86 80 87 88 87 96 97 99
81 96 91 85 91 83 87 94 80 85 87 83 91 98 99 99 100 100 100 100 99 69 70 69 64 61 70 75 89 99 98 97 96 93 95 99 95 94 94 95 92 89 85 94 91 96 100 100 100
82 88 96 95 97 90 91 97 78 89 95 98 97 99 99 99 99 100 100 100 100 100 98 99 99 98 99 98 98 99 95 95 95 100 99 100 100 98 100 99 100 100 100 99 98 100 99 100 99
87 86 84 98 87 94 85 82 86 77 84 97 99 100 100 100 99 100 100 100 100 100 100 100 100 100 100 100 100 100 100 100 100 99 100 100 99 99 100 100 99 100 97 99 100 100 97 94 98
86 80 83 90 92 96 82 91 92 95 98 96 97 99 99 100 98 100 100 100 100 99 100 96 91 87 76 68 66 62 59 70 83 84 74 71 73 68 74 64 76 99 99 100 100 100 100 100 100
95 90 88 82 89 96 96 80 88 99 98 98 97 100 100 99 99 100 100 100 100 97 87 84 83 79 76 79 76 61 58 52 49 71 78 73 55 58 47 50 48 58 61 70 95 100 100 94 98
68 72 74 86 80 85 90 84 83 90 94 98 99 100 100 99 100 100 100 100 99 100 97 92 86 77 80 78 72 72 56 45 38 39 46 47 54 31 29 36 39 39 40 49 54 58 71 92 99

GFSSGP_850_rhum_108.txt.gz
RH
57 57 57 48 26 24 17 26 37 36 34 34 34 29 25 25 23 29 80 88 97 98 99 94 85 76 73 73 66 62 58 59 60 64 74 78 71 68 59 58 30 38 73 77 72 63 64 58 40
61 61 56 38 24 16 18 34 37 39 36 35 32 30 27 27 64 65 86 80 97 93 97 99 78 72 73 72 76 69 65 63 62 56 59 87 64 63 57 58 30 34 69 72 81 78 60 23 25
60 64 39 27 20 16 21 34 34 35 34 30 27 26 30 48 49 58 74 82 99 94 96 97 85 72 72 68 69 70 66 67 63 61 59 63 68 65 65 59 36 38 86 81 75 79 52 23 27
67 54 39 28 20 30 31 36 36 29 29 27 26 24 53 49 50 57 67 82 98 95 97 92 79 74 74 72 72 73 69 61 63 67 63 71 80 70 72 64 54 71 91 91 78 72 53 26 28
60 43 30 28 28 35 36 43 41 28 27 26 27 24 28 44 50 66 85 89 94 93 93 94 80 78 74 72 77 76 70 64 66 72 73 71 76 77 76 84 67 86 90 93 83 78 53 30 32
42 36 22 20 26 34 36 40 36 29 29 27 26 28 30 43 50 61 83 81 83 86 96 94 78 73 76 75 76 74 69 67 70 71 68 70 73 74 80 85 75 78 84 92 87 78 45 31 38
32 23 21 24 26 30 34 36 30 30 29 26 33 27 29 39 42 47 62 82 84 85 89 97 96 84 64 65 64 64 66 66 66 69 70 70 74 74 77 78 79 74 77 89 86 72 49 32 40
42 25 31 31 25 29 41 39 37 35 30 36 33 26 28 35 30 37 42 65 82 84 83 86 94 92 97 87 57 57 56 56 56 62 64 67 71 75 77 76 80 80 80 86 85 76 46 33 40
40 21 26 34 34 34 44 37 42 39 34 30 29 31 30 29 27 28 33 55 70 82 83 82 88 88 97 98 88 63 64 64 60 54 49 61 69 91 86 80 83 85 86 91 88 79 47 38 37
34 23 24 34 36 37 42 40 35 29 23 22 21 22 24 24 25 27 28 31 53 62 73 81 84 81 88 94 89 78 79 76 68 55 50 57 97 95 95 94 83 90 87 92 89 79 70 45 41
47 30 39 46 50 46 38 29 34 27 19 17 15 15 20 24 24 25 22 27 28 47 58 61 74 83 82 85 89 94 92 81 68 84 93 96 99 99 94 95 82 88 94 93 93 85 80 53 80
35 47 44 43 44 41 34 34 28 27 19 18 20 24 27 27 26 27 24 22 23 25 45 50 57 74 80 84 80 82 94 90 72 60 85 68 94 95 98 98 91 85 92 95 96 99 94 87 66
32 37 41 41 45 41 38 36 31 25 22 22 24 28 30 30 30 29 30 20 12 11 25 43 43 56 73 78 77 78 78 86 80 64 65 81 74 86 92 79 84 86 87 93 97 99 100 89 54
42 43 37 42 37 40 38 30 39 21 28 29 30 32 33 35 35 36 35 34 28 19 11 24 37 43 57 70 77 75 78 80 86 78 80 75 73 75 74 77 79 81 86 91 92 93 94 90 67
43 28 29 33 37 35 41 32 38 27 31 34 38 41 42 41 39 40 40 39 37 35 27 10 20 32 42 59 68 75 79 86 88 88 77 88 87 69 68 66 72 67 68 83 91 94 98 99 87
29 27 17 28 39 44 39 25 24 26 35 38 43 39 37 37 38 39 40 40 37 38 38 29 16 21 28 43 59 68 80 89 89 69 66 75 78 74 75 74 66 67 81 74 88 96 97 99 89
25 16 23 26 42 42 41 38 31 35 39 43 41 38 38 37 39 41 47 46 44 43 43 41 22 17 24 29 48 65 76 92 77 61 59 56 66 83 82 82 77 94 88 80 81 84 89 94 89
22 26 33 36 36 43 47 44 36 40 44 45 40 39 40 46 47 50 39 45 42 50 50 40 32 36 22 28 38 62 68 81 89 80 65 57 58 63 86 80 80 80 74 76 84 89 87 92 86
47 50 50 36 42 56 48 48 42 42 44 40 44 47 52 59 66 75 40 36 45 47 42 36 34 27 26 29 31 61 73 72 73 75 83 80 75 75 72 85 77 67 75 90 88 96 100 94 91
57 59 48 46 49 55 52 54 45 46 48 52 56 61 70 73 80 80 88 62 41 43 38 35 34 32 27 35 30 68 66 64 69 73 76 79 76 78 72 73 71 73 81 99 94 97 98 98 96
62 71 60 69 58 47 58 50 46 39 43 54 53 63 75 77 90 90 86 91 92 61 34 32 31 31 28 39 54 94 95 72 71 74 74 73 75 76 76 73 79 75 88 82 93 94 97 100 98
76 55 60 71 80 78 55 73 42 41 42 47 55 68 80 83 88 90 93 96 97 73 43 34 31 32 31 67 65 95 96 82 76 77 83 79 81 83 85 86 87 84 92 93 90 90 89 90 92
61 59 64 72 87 84 66 85 46 44 52 61 58 76 94 100 98 99 100 100 100 87 88 97 80 70 72 50 77 91 95 84 79 74 74 84 91 87 83 82 85 93 92 86 91 91 89 93 90
57 73 77 76 79 89 70 74 49 55 77 82 72 88 97 100 99 94 100 100 99 99 89 99 93 99 96 63 89 83 89 75 70 90 100 98 96 97 98 96 90 94 95 93 95 92 97 96 92
75 80 82 84 90 69 72 90 67 55 85 82 93 96 99 99 99 94 99 99 100 99 98 99 99 87 71 85 99 99 100 98 94 99 98 96 99 100 100 96 99 99 100 99 97 99 99 99 100
61 65 81 92 76 66 74 93 62 70 74 84 98 100 100 100 99 99 100 100 100 100 99 100 98 71 80 89 100 99 98 91 92 96 99 98 99 100 100 100 99 99 100 99 99 99 98 98 98
68 77 74 92 79 84 64 77 56 63 67 81 87 100 99 100 98 98 98 100 100 100 99 94 98 98 89 93 99 99 98 98 97 97 97 98 95 90 89 92 98 100 100 100 100 100 99 100 100
68 72 75 80 84 76 56 62 72 81 95 87 94 99 99 100 98 99 99 99 96 99 91 88 84 80 79 75 64 56 58 73 84 85 77 71 64 63 63 54 56 56 61 60 83 99 100 100 96
82 76 75 62 64 72 57 52 74 83 84 89 97 100 99 99 99 99 99 100 100 93 89 92 86 82 81 79 69 54 50 40 36 45 59 78 79 57 43 46 48 39 45 49 55 62 72 90 98
55 54 52 54 61 61 64 58 63 74 78 84 99 99 99 100 100 99 99 100 99 97 95 95 90 84 85 84 69 78 78 41 29 27 26 26 27 46 31 26 22 21 27 24 29 39 40 51 64

GFSSGP_850_rhum_111.txt.gz
RH
50 62 58 42 26 19 14 18 22 25 24 26 28 25 21 22 22 37 64 80 82 99 97 97 87 77 72 63 58 58 66 72 72 74 75 78 78 72 67 58 36 50 86 72 56 80 87 86 40
65 60 48 30 29 18 15 21 25 26 27 28 26 25 22 27 47 47 64 68 78 98 98 97 87 83 76 74 69 63 61 63 64 66 69 75 80 64 62 60 36 46 78 73 77 73 68 42 24
70 56 32 23 16 17 21 23 26 28 28 25 22 23 25 38 41 45 49 84 84 99 99 94 95 81 78 77 78 79 68 66 66 64 64 76 85 65 61 62 38 36 71 81 83 78 52 24 26
51 43 29 27 16 23 24 25 25 25 26 24 23 21 40 43 43 46 65 80 86 99 99 96 88 84 76 78 73 72 74 70 69 67 66 63 78 75 65 68 44 35 78 84 71 78 48 25 29
52 34 25 21 20 24 25 30 30 22 22 20 23 20 26 39 43 54 74 84 94 97 98 99 80 76 77 76 77 79 77 74 73 77 81 71 73 77 74 77 58 58 83 90 80 76 52 26 29
34 28 21 20 20 25 25 30 27 22 22 22 21 23 25 39 41 50 68 79 86 87 98 98 89 76 76 82 77 81 79 74 70 72 77 74 72 75 78 80 81 72 88 90 92 81 59 29 31
28 22 18 16 20 24 25 27 21 21 20 19 27 22 25 39 35 38 50 66 81 83 91 98 98 95 71 70 76 79 76 71 66 68 70 70 76 77 77 81 84 81 77 83 92 85 66 34 33
30 21 21 18 18 26 30 28 29 26 21 28 26 19 20 29 29 31 37 48 66 77 82 88 97 98 100 98 67 66 66 67 66 65 65 67 66 71 76 77 81 82 77 80 92 89 68 42 35
39 22 20 22 20 28 31 26 31 31 26 20 20 22 22 23 22 27 30 37 47 63 74 78 78 88 97 96 95 85 60 58 60 62 60 60 66 88 75 72 73 77 79 82 89 92 84 51 37
26 22 19 24 26 26 30 28 24 22 16 15 14 14 16 18 20 22 23 26 30 39 54 65 74 76 77 89 98 99 93 81 70 69 72 64 78 88 81 86 83 75 80 86 93 97 88 64 43
28 25 26 32 38 35 28 22 25 19 15 12 12 14 16 19 21 23 22 20 21 26 33 47 58 67 74 71 88 100 98 98 99 92 91 91 87 87 88 88 92 83 86 88 94 99 93 81 68
30 33 29 35 37 31 25 25 21 18 17 15 17 18 21 22 23 25 26 24 23 25 25 24 42 52 59 72 75 88 99 96 93 83 85 92 93 91 88 91 86 85 82 87 91 93 95 96 76
22 25 28 31 34 29 24 24 22 20 18 19 22 26 27 28 28 29 31 32 30 28 26 26 22 38 50 53 71 77 75 86 97 96 81 89 91 93 96 92 91 92 85 85 89 92 92 98 91
27 30 26 29 26 28 30 24 29 17 22 25 28 30 33 35 35 36 35 35 35 34 32 31 28 22 36 43 52 69 74 75 86 94 85 65 80 86 86 87 91 83 84 83 97 94 94 95 93
27 24 24 26 29 28 35 31 29 23 24 28 27 32 34 34 32 30 31 33 32 30 32 34 33 31 30 37 42 75 68 73 84 77 83 69 74 72 81 75 83 88 87 91 96 100 99 94 97
23 20 20 25 30 35 37 22 18 21 24 28 30 34 31 31 32 34 34 37 37 37 36 32 33 34 32 29 39 66 88 70 88 89 84 83 78 77 81 90 92 86 87 84 80 86 93 92 96
18 18 16 29 32 34 36 29 20 26 29 32 34 33 30 30 35 46 51 50 47 45 43 41 40 40 40 35 35 49 91 88 93 90 77 73 77 72 72 83 89 93 92 91 92 86 86 92 88
22 17 20 21 31 36 38 35 27 29 32 34 34 31 33 39 51 60 68 70 72 55 53 50 48 44 43 40 37 51 77 91 99 99 77 63 60 58 68 72 71 91 91 93 87 87 83 90 100
30 30 30 24 34 48 38 37 32 31 38 32 36 38 42 54 58 67 74 72 76 75 58 56 56 51 49 44 45 60 85 100 100 98 86 66 56 61 66 60 54 56 74 71 79 96 99 96 99
43 42 35 37 41 47 45 46 35 38 37 38 41 46 57 68 69 73 76 78 84 89 83 71 58 54 51 52 42 63 86 94 99 99 94 84 75 64 62 60 55 52 86 71 75 90 99 99 94
48 56 52 63 52 42 48 41 41 34 35 37 40 49 71 82 85 85 90 83 84 97 98 96 81 57 53 52 34 74 41 94 99 99 89 74 79 82 83 78 74 81 87 94 86 79 93 98 98
62 46 54 61 70 70 47 61 33 31 33 33 47 55 87 89 90 95 100 97 98 96 99 98 95 81 61 50 35 74 79 92 92 94 96 93 79 78 94 93 93 92 90 92 96 94 90 96 97
58 53 59 64 74 73 57 73 35 35 37 37 57 68 87 94 97 99 99 99 99 100 98 99 87 76 76 71 81 80 88 97 86 95 98 99 99 100 99 100 97 94 89 98 96 93 93 90 90
52 64 69 63 64 87 65 62 38 39 50 61 66 80 90 98 100 99 100 100 99 98 99 98 94 94 79 70 81 79 99 91 94 95 99 94 88 96 99 98 98 100 100 99 99 98 96 98 94
63 70 81 80 85 71 59 81 62 39 56 64 77 87 97 99 99 98 100 98 98 98 100 100 100 98 94 71 70 62 100 93 94 99 87 83 98 99 100 98 99 99 98 98 98 99 100 99 98
52 56 77 84 69 62 67 86 56 49 54 68 78 92 99 99 99 99 100 100 100 98 99 99 100 100 100 73 78 89 99 95 92 100 100 99 100 99 99 99 99 100 97 94 100 100 100 98 98
57 65 58 84 58 76 59 70 47 47 46 64 73 91 100 99 97 98 99 96 98 96 98 98 94 95 98 99 100 94 97 95 92 92 94 95 92 85 80 79 78 81 96 97 98 99 99 99 100
62 55 67 78 74 68 47 49 56 61 88 63 70 89 99 100 98 99 99 96 91 93 94 89 79 65 60 55 53 60 72 83 85 81 73 67 61 63 63 58 53 46 47 52 57 61 69 88 98
74 65 64 49 49 62 44 42 63 73 68 69 71 89 98 99 99 99 99 99 98 93 90 93 95 90 78 77 72 61 50 34 29 28 31 42 57 74 74 67 50 38 40 57 54 38 45 62 64
49 47 43 49 43 48 46 48 49 55 62 69 76 91 98 98 98 98 99 97 97 95 96 91 88 85 78 71 77 75 75 73 78 70 38 28 26 27 28 30 36 33 29 24 32 59 60 28 23

GFSSGP_850_rhum_114.txt.gz
RH
47 47 54 45 47 36 31 29 24 27 24 26 25 26 27 32 39 72 64 70 75 94 88 85 84 80 69 66 62 68 73 76 78 79 80 80 74 70 66 58 42 43 77 59 69 88 84 90 39
58 56 51 37 44 33 27 24 26 32 28 26 24 26 22 47 43 43 43 58 80 96 91 86 85 91 76 71 63 61 64 65 72 72 74 74 78 70 64 57 47 45 84 83 61 82 77 50 27
61 54 41 43 31 30 34 25 35 27 25 24 22 21 34 44 42 44 51 82 85 93 97 91 92 87 80 79 78 76 69 68 68 69 71 71 79 81 66 60 51 35 80 82 79 70 60 26 25
52 46 37 39 30 27 29 30 24 26 24 23 22 35 39 41 42 46 64 73 85 94 89 92 93 94 78 79 78 78 76 72 69 71 67 70 71 80 72 63 58 33 53 78 79 82 57 24 26
52 40 41 28 28 24 31 29 26 22 21 21 22 22 38 40 37 45 59 72 76 96 96 96 96 80 82 77 79 79 78 75 72 67 68 72 68 78 77 70 67 42 41 82 83 72 58 24 28
41 34 37 34 28 28 28 28 25 21 22 21 22 23 39 38 35 36 47 64 72 85 89 93 94 88 76 76 78 77 82 79 72 66 67 72 70 71 79 79 80 65 65 88 92 80 74 35 27
47 37 32 21 33 29 27 25 21 22 20 25 26 24 36 37 31 29 33 46 61 72 86 89 89 88 90 75 71 75 78 78 74 66 65 65 62 66 72 76 82 85 78 87 88 93 86 54 29
42 34 22 22 26 35 30 26 28 26 24 24 24 22 24 23 23 24 28 29 44 57 68 78 93 96 90 95 95 83 67 68 69 67 66 63 62 59 61 68 72 77 80 79 82 91 91 69 33
31 41 31 25 23 36 29 26 30 28 26 20 18 20 19 17 17 18 20 21 27 35 52 65 70 76 87 94 88 87 96 70 59 59 60 60 57 55 56 56 60 65 70 77 79 89 96 84 48
34 39 36 30 34 32 29 26 23 22 17 16 16 14 14 15 17 19 20 20 20 21 26 39 60 67 70 75 87 82 88 94 66 62 61 62 59 54 57 83 84 79 69 74 82 88 96 91 69
28 38 27 33 38 32 27 22 22 21 22 13 14 16 17 18 19 21 22 22 22 22 21 23 29 51 62 67 68 78 90 94 96 94 88 87 78 82 76 84 85 89 82 75 84 93 98 94 82
32 30 27 34 36 30 26 24 22 19 19 16 16 18 19 24 26 27 28 30 31 28 24 19 14 18 33 54 62 68 77 98 92 91 88 91 92 89 87 83 82 79 80 77 79 89 91 90 84
23 25 26 30 32 28 23 23 24 22 19 19 19 26 29 30 33 34 35 34 34 35 35 34 31 25 17 25 47 56 68 77 93 97 90 88 90 90 86 88 88 92 88 81 77 86 88 90 89
25 26 24 27 25 25 31 27 25 19 21 23 26 27 29 34 34 33 31 31 33 34 33 31 34 34 32 26 23 41 48 66 89 85 89 91 81 87 81 82 85 88 92 84 74 78 87 90 94
26 28 27 27 27 28 36 38 35 21 22 24 26 26 32 32 31 32 35 37 38 37 37 37 36 32 33 33 29 27 40 56 86 92 80 75 78 78 83 77 79 88 85 78 77 85 89 95 96
26 20 31 29 29 35 36 35 26 21 21 25 28 30 33 30 31 40 49 54 60 64 49 30 32 37 34 32 36 29 32 42 48 89 95 75 70 80 69 70 69 77 84 84 84 93 98 97 97
22 30 22 38 30 34 39 42 29 24 26 28 31 33 31 32 44 54 60 67 70 73 76 61 34 33 38 37 38 39 31 44 56 63 96 98 73 78 80 74 73 73 84 87 82 88 83 80 84
41 21 20 23 41 36 44 44 34 28 28 34 35 33 38 50 59 64 68 75 78 79 72 83 83 61 43 42 42 42 36 39 72 61 83 93 78 73 79 82 77 79 75 82 80 82 83 82 82
36 33 33 29 41 49 50 46 41 33 36 36 36 40 52 63 69 74 82 83 76 74 76 68 86 88 66 54 51 48 42 35 64 70 82 93 86 75 77 70 71 74 73 64 68 56 80 85 89
47 44 50 49 41 50 54 55 45 38 36 37 40 55 70 75 75 79 85 83 76 81 79 84 76 80 80 59 52 51 46 48 63 62 86 83 97 74 68 60 60 61 60 56 57 58 67 75 93
50 63 61 65 57 53 56 62 47 40 35 36 41 63 77 81 81 87 82 79 75 81 87 93 98 70 64 74 55 52 43 46 41 51 52 81 88 86 62 65 58 60 65 68 60 68 81 78 80
67 49 55 64 80 92 57 87 43 45 42 37 54 64 82 85 84 94 95 85 85 93 95 98 97 93 83 86 72 60 63 51 53 51 56 64 79 84 90 93 78 81 81 78 79 77 84 82 93
64 55 63 65 71 77 61 86 51 38 39 57 59 70 83 86 82 99 97 97 94 98 94 95 92 95 93 70 74 77 73 79 89 96 98 100 97 97 99 99 99 100 100 99 90 95 99 100 96
50 68 68 60 67 87 83 74 62 49 52 60 65 74 86 77 90 98 98 98 92 99 96 94 89 94 88 96 69 65 66 69 89 79 87 98 100 100 91 100 98 98 98 99 98 98 99 98 97
66 92 96 92 92 94 67 91 80 47 62 62 71 78 86 82 90 92 96 98 89 99 99 98 95 99 98 99 88 80 78 82 96 78 72 90 82 99 100 100 98 97 96 95 93 93 92 94 98
54 59 92 91 93 88 79 92 80 55 54 66 71 79 90 97 96 91 90 98 98 96 99 94 93 100 100 98 88 90 84 72 99 100 93 87 98 96 92 100 98 99 90 98 97 93 98 100 100
58 68 56 86 74 86 84 76 60 52 53 60 66 75 86 92 98 99 98 96 98 93 87 86 79 75 90 98 99 97 96 97 94 90 92 91 76 72 73 79 85 87 89 90 90 92 97 99 100
68 55 81 81 93 87 73 67 81 71 68 68 65 77 92 90 93 98 94 99 93 92 94 86 77 69 60 49 48 36 36 35 46 60 68 65 62 60 58 59 57 48 45 44 46 46 47 58 64
81 80 69 57 60 88 75 71 72 71 83 73 67 79 90 93 94 96 98 96 98 99 92 89 88 80 81 79 79 78 76 72 64 46 33 29 29 31 36 52 70 67 64 59 56 52 68 75 59
52 59 60 80 55 63 63 71 53 59 64 68 66 77 87 97 94 89 87 88 90 92 86 67 60 54 46 41 37 38 43 46 44 36 36 32 31 28 24 22 22 22 24 23 21 22 24 24 27

GFSSGP_850_rhum_117.txt.gz
RH
37 53 49 45 46 48 40 30 28 27 31 26 26 27 41 46 55 82 65 61 75 90 89 87 84 80 70 69 69 67 72 77 78 79 80 79 75 71 66 60 44 48 69 42 76 90 85 73 34
45 52 52 46 55 38 38 32 42 35 28 24 22 24 32 47 42 44 46 55 90 89 92 82 90 89 71 67 62 61 65 67 70 72 74 76 80 80 68 61 52 43 82 67 73 87 80 57 29
55 58 48 57 44 42 43 40 37 27 24 23 23 28 41 45 42 43 57 60 92 87 84 90 94 91 86 78 75 69 66 66 66 68 70 69 75 82 74 65 58 37 78 78 72 78 70 36 26
53 48 43 47 36 36 37 32 29 26 23 23 23 40 38 40 38 44 58 66 86 93 86 82 90 92 90 78 82 81 80 77 71 89 84 67 68 72 79 68 64 40 53 76 76 77 60 25 26
52 49 50 34 31 40 37 29 25 25 23 22 23 33 40 40 37 39 43 61 83 97 87 81 91 90 86 81 76 76 74 75 75 74 69 64 67 67 76 74 66 54 37 61 85 76 69 30 26
50 39 48 44 35 34 30 26 24 23 22 23 25 28 43 40 34 31 32 42 67 90 89 82 84 89 83 81 80 77 74 75 76 74 71 70 72 71 68 74 71 69 48 57 91 83 76 53 27
51 45 41 35 41 34 31 24 29 27 24 28 25 25 40 24 23 25 26 30 37 61 87 84 85 82 86 85 72 72 77 76 73 70 66 64 65 65 66 69 73 74 72 71 88 93 84 80 34
38 39 29 28 38 43 30 29 28 29 28 22 23 26 33 17 17 18 23 19 26 30 43 69 86 92 95 88 91 83 72 69 74 71 67 62 61 60 60 62 65 68 76 78 75 82 93 88 65
30 42 41 41 38 40 30 31 28 26 22 19 18 18 18 17 16 14 12 11 16 20 23 28 49 69 82 92 91 89 86 86 81 66 62 62 61 60 58 57 56 63 65 72 76 78 82 92 77
40 53 39 39 37 36 29 25 23 21 20 18 17 17 17 15 14 14 14 18 18 18 20 22 23 29 55 67 75 89 88 84 90 87 66 59 59 60 59 58 62 80 75 69 72 77 81 94 85
29 41 37 45 34 30 27 23 23 23 20 18 17 16 14 12 13 21 25 29 32 32 26 21 19 19 19 33 56 67 78 88 80 92 89 87 84 82 69 57 69 85 85 85 78 79 82 86 89
37 31 34 36 30 28 29 25 23 22 17 17 18 16 16 27 32 34 35 35 33 32 32 33 34 32 26 19 16 40 59 73 92 90 93 90 85 84 86 81 80 83 76 80 79 80 77 81 87
32 29 27 30 28 27 24 24 25 23 17 18 20 19 29 32 33 33 32 32 34 34 35 33 31 31 33 34 28 16 22 50 67 87 91 97 95 94 88 85 85 85 83 84 80 80 78 81 85
28 26 29 27 26 25 32 31 30 20 19 20 22 27 28 32 33 32 36 36 35 35 34 32 30 32 32 31 32 32 26 19 39 59 82 88 88 87 84 88 86 82 83 83 88 82 79 79 85
25 29 27 29 28 31 33 33 40 20 23 22 23 27 30 33 32 44 48 45 48 50 48 38 34 25 34 36 33 33 34 31 27 37 51 82 89 92 89 86 84 75 82 87 87 87 80 84 92
27 24 36 30 30 35 29 18 26 23 23 23 27 29 33 46 54 58 57 59 58 58 57 57 54 39 26 26 34 34 34 37 31 35 40 59 87 84 86 83 83 78 84 88 94 82 84 87 90
30 33 30 36 31 36 35 34 30 26 29 31 32 35 40 52 54 58 61 56 63 67 67 60 56 55 54 38 31 30 34 38 38 33 52 66 65 78 74 83 80 78 75 72 77 82 87 94 96
43 30 27 32 39 39 45 51 40 32 34 35 37 42 47 51 57 60 59 65 72 69 67 68 65 62 65 59 50 39 35 38 38 33 36 65 67 77 80 76 82 79 76 74 77 83 82 81 80
40 39 40 43 41 52 55 56 48 43 40 38 41 50 55 57 62 62 70 72 70 72 74 77 66 58 67 75 72 48 49 46 40 35 37 61 76 71 85 78 78 80 80 79 86 78 72 64 71
51 50 68 53 47 57 64 62 51 49 47 39 48 61 62 63 64 71 72 75 79 76 76 78 74 73 79 82 72 72 56 52 51 43 30 30 48 79 84 80 78 79 86 84 79 68 64 62 60
61 65 65 70 67 62 65 71 50 42 39 42 62 68 70 74 76 76 82 81 82 80 80 82 82 80 79 81 70 66 76 55 55 59 46 38 38 48 82 83 88 84 85 90 82 65 58 57 65
65 55 60 72 83 86 63 79 66 51 46 47 68 74 74 77 77 84 96 82 78 82 85 79 83 83 85 85 73 68 71 74 75 80 76 73 54 52 78 95 94 86 81 75 68 72 78 83 79
68 58 67 69 78 84 74 90 72 51 53 64 72 73 77 77 80 86 91 84 77 88 91 86 83 91 78 76 94 74 72 73 76 77 74 79 91 86 98 96 90 99 89 91 90 81 88 95 94
55 71 74 60 65 94 81 84 69 57 49 65 69 73 78 80 80 84 86 85 79 86 98 89 86 98 90 100 94 85 84 82 76 77 82 82 94 90 81 85 99 92 99 99 98 92 93 95 97
68 92 96 91 98 91 74 87 76 54 64 64 70 74 79 81 82 81 82 83 85 80 84 82 86 92 91 99 97 100 93 91 92 86 100 100 87 88 75 84 91 87 99 99 99 92 91 91 89
77 72 89 62 95 90 83 90 67 58 61 66 68 71 77 77 84 90 90 83 87 87 78 79 82 81 90 98 97 98 100 99 99 93 97 100 100 89 82 86 86 94 100 99 90 86 88 97 99
69 79 65 88 84 94 88 73 64 65 73 70 68 72 73 78 93 97 88 93 84 84 84 82 65 63 62 47 46 41 40 42 56 73 64 70 85 80 81 69 61 67 76 78 81 80 79 84 90
69 66 83 89 88 89 82 71 76 76 73 71 74 72 71 77 87 91 88 84 87 87 89 90 89 84 80 79 77 76 73 68 62 38 32 33 36 54 61 61 57 50 46 44 46 52 56 58 51
84 85 78 73 80 89 88 77 66 72 70 68 70 66 68 72 83 87 91 93 94 94 96 88 83 73 61 50 45 42 42 40 35 30 28 30 29 28 24 23 23 24 31 43 44 47 55 47 43
72 76 72 86 66 76 78 81 55 66 64 65 64 64 66 74 76 80 83 85 82 80 77 63 51 41 39 39 36 32 28 26 24 21 16 12 9 8 8 8 8 8 8 8 9 11 13 12 10